Wetterdaten: Montag, 15.01.2024
Datum Zeit Temp. I. Temp. A. Feuchte I. Feuchte A. Luftdruck Regen Wind Richtung Richtung Sonnenschein Solar Taupunkt Windchill Windböen
15.01.2024 00:00 20,9 °C 1,0 °C 51 % 87 % 998,7 hPa 0,0 l/m² 24,1 km/h (4 Bft) SW 225 ° 0 min 0 W/m² -0,9 °C -10,0 °C 29,0 km/h (5 Bft)
15.01.2024 00:01 20,9 °C 1,1 °C 51 % 87 % 998,7 hPa 0,0 l/m² 24,1 km/h (4 Bft) SW 225 ° 0 min 0 W/m² -0,8 °C -9,9 °C 30,6 km/h (5 Bft)
15.01.2024 00:02 20,9 °C 1,0 °C 51 % 87 % 998,7 hPa 0,0 l/m² 22,5 km/h (4 Bft) SW 225 ° 0 min 0 W/m² -0,9 °C -9,4 °C 30,6 km/h (5 Bft)
15.01.2024 00:03 20,9 °C 1,1 °C 51 % 87 % 998,6 hPa 0,0 l/m² 22,5 km/h (4 Bft) SW 225 ° 0 min 0 W/m² -0,8 °C -9,3 °C 30,6 km/h (5 Bft)
15.01.2024 00:04 20,9 °C 1,0 °C 51 % 87 % 998,7 hPa 0,0 l/m² 19,3 km/h (3 Bft) SW 225 ° 0 min 0 W/m² -0,9 °C -8,0 °C 24,1 km/h (4 Bft)
15.01.2024 00:05 20,9 °C 1,0 °C 51 % 87 % 998,6 hPa 0,0 l/m² 25,7 km/h (4 Bft) SW 225 ° 0 min 0 W/m² -0,9 °C -10,6 °C 33,8 km/h (5 Bft)
15.01.2024 00:06 20,9 °C 1,0 °C 51 % 87 % 998,6 hPa 0,0 l/m² 27,4 km/h (5 Bft) SW 225 ° 0 min 0 W/m² -0,9 °C -11,2 °C 30,6 km/h (5 Bft)
15.01.2024 00:07 20,9 °C 1,0 °C 51 % 87 % 998,6 hPa 0,0 l/m² 24,1 km/h (4 Bft) SW 225 ° 0 min 0 W/m² -0,9 °C -10,0 °C 30,6 km/h (5 Bft)
15.01.2024 00:08 20,9 °C 0,9 °C 51 % 87 % 998,5 hPa 0,0 l/m² 22,5 km/h (4 Bft) SW 225 ° 0 min 0 W/m² -1,0 °C -9,5 °C 29,0 km/h (5 Bft)
15.01.2024 00:09 20,9 °C 0,9 °C 51 % 87 % 998,5 hPa 0,0 l/m² 22,5 km/h (4 Bft) SW 225 ° 0 min 0 W/m² -1,0 °C -9,5 °C 29,0 km/h (5 Bft)
15.01.2024 00:10 20,9 °C 0,9 °C 51 % 87 % 998,5 hPa 0,0 l/m² 24,1 km/h (4 Bft) SW 225 ° 0 min 0 W/m² -1,0 °C -10,2 °C 37,0 km/h (5 Bft)
15.01.2024 00:11 20,9 °C 0,9 °C 51 % 87 % 998,5 hPa 0,0 l/m² 17,7 km/h (3 Bft) SW 225 ° 0 min 0 W/m² -1,0 °C -7,4 °C 24,1 km/h (4 Bft)
15.01.2024 00:12 20,9 °C 0,9 °C 51 % 87 % 998,5 hPa 0,0 l/m² 20,9 km/h (4 Bft) SW 225 ° 0 min 0 W/m² -1,0 °C -8,9 °C 30,6 km/h (5 Bft)
15.01.2024 00:13 21,0 °C 0,9 °C 51 % 87 % 998,5 hPa 0,0 l/m² 22,5 km/h (4 Bft) SW 225 ° 0 min 0 W/m² -1,0 °C -9,5 °C 29,0 km/h (5 Bft)
15.01.2024 00:14 20,9 °C 0,9 °C 51 % 87 % 998,5 hPa 0,0 l/m² 27,4 km/h (5 Bft) SW 225 ° 0 min 0 W/m² -1,0 °C -11,3 °C 35,4 km/h (5 Bft)
15.01.2024 00:15 20,9 °C 0,9 °C 51 % 87 % 998,5 hPa 0,0 l/m² 19,3 km/h (3 Bft) SW 225 ° 0 min 0 W/m² -1,0 °C -8,1 °C 27,4 km/h (5 Bft)
15.01.2024 00:16 20,9 °C 0,9 °C 51 % 87 % 998,5 hPa 0,0 l/m² 20,9 km/h (4 Bft) SW 225 ° 0 min 0 W/m² -1,0 °C -8,9 °C 27,4 km/h (5 Bft)
15.01.2024 00:17 20,9 °C 0,9 °C 51 % 87 % 998,5 hPa 0,0 l/m² 17,7 km/h (3 Bft) SW 225 ° 0 min 0 W/m² -1,0 °C -7,4 °C 24,1 km/h (4 Bft)
15.01.2024 00:18 20,9 °C 0,9 °C 51 % 87 % 998,5 hPa 0,0 l/m² 24,1 km/h (4 Bft) SW 225 ° 0 min 0 W/m² -1,0 °C -10,2 °C 30,6 km/h (5 Bft)
15.01.2024 00:19 20,9 °C 0,9 °C 51 % 87 % 998,5 hPa 0,0 l/m² 25,7 km/h (4 Bft) SW 225 ° 0 min 0 W/m² -1,0 °C -10,7 °C 35,4 km/h (5 Bft)
15.01.2024 00:20 20,9 °C 0,9 °C 51 % 87 % 998,5 hPa 0,0 l/m² 27,4 km/h (5 Bft) SW 225 ° 0 min 0 W/m² -1,0 °C -11,3 °C 38,6 km/h (6 Bft)
15.01.2024 00:21 20,9 °C 0,9 °C 51 % 87 % 998,4 hPa 0,0 l/m² 24,1 km/h (4 Bft) SW 225 ° 0 min 0 W/m² -1,0 °C -10,2 °C 38,6 km/h (6 Bft)
15.01.2024 00:22 20,9 °C 0,9 °C 51 % 87 % 998,4 hPa 0,0 l/m² 29,0 km/h (5 Bft) SW 225 ° 0 min 0 W/m² -1,0 °C -11,8 °C 37,0 km/h (5 Bft)
15.01.2024 00:23 20,9 °C 0,9 °C 51 % 87 % 998,3 hPa 0,0 l/m² 20,9 km/h (4 Bft) SW 225 ° 0 min 0 W/m² -1,0 °C -8,9 °C 27,4 km/h (5 Bft)
15.01.2024 00:24 20,9 °C 0,9 °C 51 % 87 % 998,4 hPa 0,0 l/m² 22,5 km/h (4 Bft) SW 225 ° 0 min 0 W/m² -1,0 °C -9,5 °C 29,0 km/h (5 Bft)
15.01.2024 00:25 20,9 °C 0,9 °C 51 % 87 % 998,4 hPa 0,0 l/m² 24,1 km/h (4 Bft) SW 225 ° 0 min 0 W/m² -1,0 °C -10,2 °C 32,2 km/h (5 Bft)
15.01.2024 00:26 20,9 °C 0,9 °C 51 % 87 % 998,4 hPa 0,0 l/m² 20,9 km/h (4 Bft) SW 225 ° 0 min 0 W/m² -1,0 °C -8,9 °C 29,0 km/h (5 Bft)
15.01.2024 00:27 20,9 °C 0,9 °C 51 % 87 % 998,5 hPa 0,0 l/m² 24,1 km/h (4 Bft) SW 225 ° 0 min 0 W/m² -1,0 °C -10,2 °C 32,2 km/h (5 Bft)
15.01.2024 00:28 20,9 °C 1,0 °C 51 % 87 % 998,5 hPa 0,0 l/m² 22,5 km/h (4 Bft) SW 225 ° 0 min 0 W/m² -0,9 °C -9,4 °C 33,8 km/h (5 Bft)
15.01.2024 00:29 20,9 °C 1,0 °C 51 % 87 % 998,4 hPa 0,0 l/m² 22,5 km/h (4 Bft) SW 225 ° 0 min 0 W/m² -0,9 °C -9,4 °C 27,4 km/h (5 Bft)
15.01.2024 00:30 20,9 °C 1,0 °C 51 % 87 % 998,4 hPa 0,0 l/m² 22,5 km/h (4 Bft) SW 225 ° 0 min 0 W/m² -0,9 °C -9,4 °C 32,2 km/h (5 Bft)
15.01.2024 00:31 20,9 °C 1,0 °C 51 % 87 % 998,4 hPa 0,0 l/m² 22,5 km/h (4 Bft) SW 225 ° 0 min 0 W/m² -0,9 °C -9,4 °C 32,2 km/h (5 Bft)
15.01.2024 00:32 20,9 °C 0,9 °C 51 % 87 % 998,4 hPa 0,0 l/m² 22,5 km/h (4 Bft) SW 225 ° 0 min 0 W/m² -1,0 °C -9,5 °C 29,0 km/h (5 Bft)
15.01.2024 00:33 20,9 °C 1,0 °C 51 % 87 % 998,4 hPa 0,0 l/m² 24,1 km/h (4 Bft) SW 225 ° 0 min 0 W/m² -0,9 °C -10,0 °C 33,8 km/h (5 Bft)
15.01.2024 00:34 20,9 °C 1,0 °C 51 % 87 % 998,4 hPa 0,0 l/m² 25,7 km/h (4 Bft) SW 225 ° 0 min 0 W/m² -0,9 °C -10,6 °C 37,0 km/h (5 Bft)
15.01.2024 00:35 20,9 °C 1,0 °C 51 % 87 % 998,4 hPa 0,0 l/m² 25,7 km/h (4 Bft) SW 225 ° 0 min 0 W/m² -0,9 °C -10,6 °C 35,4 km/h (5 Bft)
15.01.2024 00:36 20,9 °C 1,0 °C 51 % 87 % 998,3 hPa 0,0 l/m² 24,1 km/h (4 Bft) SW 225 ° 0 min 0 W/m² -0,9 °C -10,0 °C 32,2 km/h (5 Bft)
15.01.2024 00:37 20,9 °C 1,0 °C 51 % 87 % 998,3 hPa 0,0 l/m² 24,1 km/h (4 Bft) SW 225 ° 0 min 0 W/m² -0,9 °C -10,0 °C 30,6 km/h (5 Bft)
15.01.2024 00:38 20,9 °C 1,0 °C 51 % 87 % 998,3 hPa 0,0 l/m² 20,9 km/h (4 Bft) SW 225 ° 0 min 0 W/m² -0,9 °C -8,7 °C 29,0 km/h (5 Bft)
15.01.2024 00:39 20,9 °C 1,0 °C 51 % 87 % 998,2 hPa 0,0 l/m² 20,9 km/h (4 Bft) SW 225 ° 0 min 0 W/m² -0,9 °C -8,7 °C 32,2 km/h (5 Bft)
15.01.2024 00:40 20,9 °C 1,0 °C 51 % 87 % 998,2 hPa 0,0 l/m² 20,9 km/h (4 Bft) SW 225 ° 0 min 0 W/m² -0,9 °C -8,7 °C 29,0 km/h (5 Bft)
15.01.2024 00:41 20,9 °C 1,0 °C 51 % 87 % 998,2 hPa 0,0 l/m² 24,1 km/h (4 Bft) SW 225 ° 0 min 0 W/m² -0,9 °C -10,0 °C 29,0 km/h (5 Bft)
15.01.2024 00:42 20,9 °C 1,0 °C 51 % 87 % 998,1 hPa 0,0 l/m² 19,3 km/h (3 Bft) SW 225 ° 0 min 0 W/m² -0,9 °C -8,0 °C 24,1 km/h (4 Bft)
15.01.2024 00:43 20,9 °C 1,0 °C 51 % 87 % 998,1 hPa 0,0 l/m² 17,7 km/h (3 Bft) SW 225 ° 0 min 0 W/m² -0,9 °C -7,2 °C 25,7 km/h (4 Bft)
15.01.2024 00:44 20,9 °C 1,0 °C 51 % 87 % 998,1 hPa 0,0 l/m² 22,5 km/h (4 Bft) SW 225 ° 0 min 0 W/m² -0,9 °C -9,4 °C 32,2 km/h (5 Bft)
15.01.2024 00:45 20,9 °C 1,0 °C 51 % 87 % 998,1 hPa 0,0 l/m² 19,3 km/h (3 Bft) SW 225 ° 0 min 0 W/m² -0,9 °C -8,0 °C 27,4 km/h (5 Bft)
15.01.2024 00:46 20,9 °C 1,0 °C 51 % 87 % 998,1 hPa 0,0 l/m² 19,3 km/h (3 Bft) SW 225 ° 0 min 0 W/m² -0,9 °C -8,0 °C 25,7 km/h (4 Bft)
15.01.2024 00:47 20,9 °C 1,0 °C 51 % 87 % 998,1 hPa 0,0 l/m² 22,5 km/h (4 Bft) SW 225 ° 0 min 0 W/m² -0,9 °C -9,4 °C 32,2 km/h (5 Bft)
15.01.2024 00:48 20,9 °C 1,0 °C 51 % 87 % 998,0 hPa 0,0 l/m² 27,4 km/h (5 Bft) SW 225 ° 0 min 0 W/m² -0,9 °C -11,2 °C 32,2 km/h (5 Bft)
15.01.2024 00:49 20,9 °C 1,0 °C 51 % 87 % 998,0 hPa 0,0 l/m² 27,4 km/h (5 Bft) SW 225 ° 0 min 0 W/m² -0,9 °C -11,2 °C 35,4 km/h (5 Bft)
15.01.2024 00:50 20,9 °C 1,0 °C 51 % 87 % 998,1 hPa 0,0 l/m² 27,4 km/h (5 Bft) SW 225 ° 0 min 0 W/m² -0,9 °C -11,2 °C 32,2 km/h (5 Bft)
15.01.2024 00:51 20,9 °C 1,1 °C 51 % 87 % 998,1 hPa 0,0 l/m² 27,4 km/h (5 Bft) SW 225 ° 0 min 0 W/m² -0,8 °C -11,1 °C 32,2 km/h (5 Bft)
15.01.2024 00:52 20,9 °C 1,1 °C 51 % 87 % 998,0 hPa 0,0 l/m² 24,1 km/h (4 Bft) SW 225 ° 0 min 0 W/m² -0,8 °C -9,9 °C 29,0 km/h (5 Bft)
15.01.2024 00:53 20,9 °C 1,1 °C 51 % 87 % 998,1 hPa 0,0 l/m² 22,5 km/h (4 Bft) SW 225 ° 0 min 0 W/m² -0,8 °C -9,3 °C 30,6 km/h (5 Bft)
15.01.2024 00:54 20,9 °C 1,1 °C 51 % 87 % 998,0 hPa 0,0 l/m² 25,7 km/h (4 Bft) SW 225 ° 0 min 0 W/m² -0,8 °C -10,5 °C 30,6 km/h (5 Bft)
15.01.2024 00:55 20,9 °C 1,1 °C 51 % 87 % 998,1 hPa 0,0 l/m² 24,1 km/h (4 Bft) SW 225 ° 0 min 0 W/m² -0,8 °C -9,9 °C 27,4 km/h (5 Bft)
15.01.2024 00:56 20,9 °C 1,1 °C 51 % 87 % 998,1 hPa 0,0 l/m² 20,9 km/h (4 Bft) SW 225 ° 0 min 0 W/m² -0,8 °C -8,6 °C 25,7 km/h (4 Bft)
15.01.2024 00:57 20,9 °C 1,1 °C 51 % 86 % 997,9 hPa 0,0 l/m² 17,7 km/h (3 Bft) SW 225 ° 0 min 0 W/m² -1,0 °C -7,1 °C 25,7 km/h (4 Bft)
15.01.2024 00:58 20,9 °C 1,1 °C 51 % 87 % 997,9 hPa 0,0 l/m² 24,1 km/h (4 Bft) SW 225 ° 0 min 0 W/m² -0,8 °C -9,9 °C 35,4 km/h (5 Bft)
15.01.2024 00:59 20,9 °C 1,1 °C 51 % 87 % 997,9 hPa 0,0 l/m² 25,7 km/h (4 Bft) S-SW 202 ° 0 min 0 W/m² -0,8 °C -10,5 °C 33,8 km/h (5 Bft)
15.01.2024 01:00 20,9 °C 1,2 °C 51 % 87 % 998,0 hPa 0,0 l/m² 22,5 km/h (4 Bft) SW 225 ° 0 min 0 W/m² -0,7 °C -9,1 °C 32,2 km/h (5 Bft)
15.01.2024 01:01 20,9 °C 1,1 °C 51 % 87 % 997,9 hPa 0,0 l/m² 27,4 km/h (5 Bft) S-SW 202 ° 0 min 0 W/m² -0,8 °C -11,1 °C 37,0 km/h (5 Bft)
15.01.2024 01:02 20,9 °C 1,1 °C 51 % 87 % 997,9 hPa 0,0 l/m² 22,5 km/h (4 Bft) SW 225 ° 0 min 0 W/m² -0,8 °C -9,3 °C 30,6 km/h (5 Bft)
15.01.2024 01:03 20,9 °C 1,1 °C 51 % 87 % 997,9 hPa 0,0 l/m² 25,7 km/h (4 Bft) SW 225 ° 0 min 0 W/m² -0,8 °C -10,5 °C 30,6 km/h (5 Bft)
15.01.2024 01:04 20,9 °C 1,1 °C 51 % 87 % 997,8 hPa 0,0 l/m² 27,4 km/h (5 Bft) SW 225 ° 0 min 0 W/m² -0,8 °C -11,1 °C 33,8 km/h (5 Bft)
15.01.2024 01:05 20,9 °C 1,1 °C 51 % 87 % 997,9 hPa 0,0 l/m² 24,1 km/h (4 Bft) S-SW 202 ° 0 min 0 W/m² -0,8 °C -9,9 °C 30,6 km/h (5 Bft)
15.01.2024 01:06 20,9 °C 1,1 °C 51 % 87 % 997,9 hPa 0,0 l/m² 29,0 km/h (5 Bft) SW 225 ° 0 min 0 W/m² -0,8 °C -11,6 °C 33,8 km/h (5 Bft)
15.01.2024 01:07 20,9 °C 1,1 °C 51 % 87 % 997,8 hPa 0,0 l/m² 27,4 km/h (5 Bft) SW 225 ° 0 min 0 W/m² -0,8 °C -11,1 °C 33,8 km/h (5 Bft)
15.01.2024 01:08 20,9 °C 1,1 °C 51 % 87 % 997,8 hPa 0,0 l/m² 25,7 km/h (4 Bft) SW 225 ° 0 min 0 W/m² -0,8 °C -10,5 °C 32,2 km/h (5 Bft)
15.01.2024 01:09 20,9 °C 1,1 °C 51 % 87 % 997,8 hPa 0,0 l/m² 20,9 km/h (4 Bft) SW 225 ° 0 min 0 W/m² -0,8 °C -8,6 °C 29,0 km/h (5 Bft)
15.01.2024 01:10 20,9 °C 1,1 °C 51 % 86 % 997,9 hPa 0,0 l/m² 19,3 km/h (3 Bft) SW 225 ° 0 min 0 W/m² -1,0 °C -7,9 °C 25,7 km/h (4 Bft)
15.01.2024 01:11 20,9 °C 1,1 °C 51 % 86 % 997,8 hPa 0,0 l/m² 22,5 km/h (4 Bft) SW 225 ° 0 min 0 W/m² -1,0 °C -9,3 °C 30,6 km/h (5 Bft)
15.01.2024 01:12 20,9 °C 1,0 °C 51 % 86 % 997,7 hPa 0,0 l/m² 22,5 km/h (4 Bft) SW 225 ° 0 min 0 W/m² -1,1 °C -9,4 °C 27,4 km/h (5 Bft)
15.01.2024 01:13 20,9 °C 1,0 °C 51 % 87 % 997,7 hPa 0,0 l/m² 22,5 km/h (4 Bft) SW 225 ° 0 min 0 W/m² -0,9 °C -9,4 °C 32,2 km/h (5 Bft)
15.01.2024 01:14 20,9 °C 1,0 °C 51 % 87 % 997,7 hPa 0,0 l/m² 20,9 km/h (4 Bft) SW 225 ° 0 min 0 W/m² -0,9 °C -8,7 °C 27,4 km/h (5 Bft)
15.01.2024 01:15 20,9 °C 0,9 °C 51 % 87 % 997,6 hPa 0,0 l/m² 22,5 km/h (4 Bft) SW 225 ° 0 min 0 W/m² -1,0 °C -9,5 °C 29,0 km/h (5 Bft)
15.01.2024 01:16 20,9 °C 0,9 °C 51 % 87 % 997,6 hPa 0,0 l/m² 19,3 km/h (3 Bft) S-SW 202 ° 0 min 0 W/m² -1,0 °C -8,1 °C 24,1 km/h (4 Bft)
15.01.2024 01:17 20,9 °C 0,9 °C 51 % 87 % 997,6 hPa 0,0 l/m² 24,1 km/h (4 Bft) SW 225 ° 0 min 0 W/m² -1,0 °C -10,2 °C 30,6 km/h (5 Bft)
15.01.2024 01:18 20,9 °C 0,9 °C 51 % 87 % 997,6 hPa 0,0 l/m² 22,5 km/h (4 Bft) SW 225 ° 0 min 0 W/m² -1,0 °C -9,5 °C 27,4 km/h (5 Bft)
15.01.2024 01:19 20,9 °C 0,9 °C 51 % 87 % 997,6 hPa 0,0 l/m² 25,7 km/h (4 Bft) SW 225 ° 0 min 0 W/m² -1,0 °C -10,7 °C 35,4 km/h (5 Bft)
15.01.2024 01:20 20,9 °C 0,9 °C 51 % 87 % 997,6 hPa 0,0 l/m² 27,4 km/h (5 Bft) SW 225 ° 0 min 0 W/m² -1,0 °C -11,3 °C 37,0 km/h (5 Bft)
15.01.2024 01:21 20,9 °C 0,9 °C 51 % 87 % 997,5 hPa 0,0 l/m² 24,1 km/h (4 Bft) SW 225 ° 0 min 0 W/m² -1,0 °C -10,2 °C 29,0 km/h (5 Bft)
15.01.2024 01:22 20,9 °C 0,8 °C 51 % 87 % 997,5 hPa 0,0 l/m² 25,7 km/h (4 Bft) SW 225 ° 0 min 0 W/m² -1,1 °C -10,9 °C 32,2 km/h (5 Bft)
15.01.2024 01:23 20,9 °C 0,8 °C 51 % 87 % 997,4 hPa 0,0 l/m² 27,4 km/h (5 Bft) SW 225 ° 0 min 0 W/m² -1,1 °C -11,5 °C 35,4 km/h (5 Bft)
15.01.2024 01:24 20,9 °C 0,8 °C 51 % 87 % 997,4 hPa 0,0 l/m² 25,7 km/h (4 Bft) SW 225 ° 0 min 0 W/m² -1,1 °C -10,9 °C 37,0 km/h (5 Bft)
15.01.2024 01:25 20,9 °C 0,8 °C 51 % 87 % 997,4 hPa 0,0 l/m² 24,1 km/h (4 Bft) SW 225 ° 0 min 0 W/m² -1,1 °C -10,3 °C 35,4 km/h (5 Bft)
15.01.2024 01:26 20,9 °C 0,8 °C 51 % 87 % 997,4 hPa 0,0 l/m² 24,1 km/h (4 Bft) SW 225 ° 0 min 0 W/m² -1,1 °C -10,3 °C 30,6 km/h (5 Bft)
15.01.2024 01:27 20,9 °C 0,8 °C 51 % 87 % 997,3 hPa 0,0 l/m² 29,0 km/h (5 Bft) SW 225 ° 0 min 0 W/m² -1,1 °C -12,0 °C 37,0 km/h (5 Bft)
15.01.2024 01:28 20,9 °C 0,8 °C 51 % 87 % 997,3 hPa 0,0 l/m² 29,0 km/h (5 Bft) SW 225 ° 0 min 0 W/m² -1,1 °C -12,0 °C 38,6 km/h (6 Bft)
15.01.2024 01:29 20,9 °C 0,8 °C 50 % 87 % 997,3 hPa 0,0 l/m² 22,5 km/h (4 Bft) SW 225 ° 0 min 0 W/m² -1,1 °C -9,7 °C 29,0 km/h (5 Bft)
15.01.2024 01:30 20,9 °C 0,8 °C 51 % 87 % 997,3 hPa 0,0 l/m² 22,5 km/h (4 Bft) SW 225 ° 0 min 0 W/m² -1,1 °C -9,7 °C 40,2 km/h (6 Bft)
15.01.2024 01:31 20,9 °C 0,8 °C 51 % 87 % 997,3 hPa 0,0 l/m² 22,5 km/h (4 Bft) SW 225 ° 0 min 0 W/m² -1,1 °C -9,7 °C 32,2 km/h (5 Bft)
15.01.2024 01:32 20,9 °C 0,8 °C 51 % 87 % 997,2 hPa 0,0 l/m² 27,4 km/h (5 Bft) SW 225 ° 0 min 0 W/m² -1,1 °C -11,5 °C 37,0 km/h (5 Bft)
15.01.2024 01:33 20,9 °C 0,8 °C 51 % 87 % 997,2 hPa 0,0 l/m² 25,7 km/h (4 Bft) SW 225 ° 0 min 0 W/m² -1,1 °C -10,9 °C 41,8 km/h (6 Bft)
15.01.2024 01:34 20,9 °C 0,8 °C 51 % 87 % 997,2 hPa 0,0 l/m² 20,9 km/h (4 Bft) SW 225 ° 0 min 0 W/m² -1,1 °C -9,0 °C 29,0 km/h (5 Bft)
15.01.2024 01:35 20,9 °C 0,8 °C 50 % 87 % 997,3 hPa 0,0 l/m² 25,7 km/h (4 Bft) SW 225 ° 0 min 0 W/m² -1,1 °C -10,9 °C 37,0 km/h (5 Bft)
15.01.2024 01:36 20,9 °C 0,8 °C 50 % 87 % 997,4 hPa 0,0 l/m² 22,5 km/h (4 Bft) SW 225 ° 0 min 0 W/m² -1,1 °C -9,7 °C 32,2 km/h (5 Bft)
15.01.2024 01:37 20,9 °C 0,8 °C 50 % 87 % 997,3 hPa 0,0 l/m² 25,7 km/h (4 Bft) SW 225 ° 0 min 0 W/m² -1,1 °C -10,9 °C 35,4 km/h (5 Bft)
15.01.2024 01:38 20,9 °C 0,8 °C 50 % 87 % 997,3 hPa 0,0 l/m² 24,1 km/h (4 Bft) SW 225 ° 0 min 0 W/m² -1,1 °C -10,3 °C 32,2 km/h (5 Bft)
15.01.2024 01:39 20,9 °C 0,9 °C 50 % 87 % 997,3 hPa 0,0 l/m² 24,1 km/h (4 Bft) SW 225 ° 0 min 0 W/m² -1,0 °C -10,2 °C 32,2 km/h (5 Bft)
15.01.2024 01:40 20,9 °C 0,8 °C 50 % 87 % 997,1 hPa 0,0 l/m² 22,5 km/h (4 Bft) SW 225 ° 0 min 0 W/m² -1,1 °C -9,7 °C 30,6 km/h (5 Bft)
15.01.2024 01:41 20,9 °C 0,8 °C 50 % 87 % 997,2 hPa 0,0 l/m² 24,1 km/h (4 Bft) SW 225 ° 0 min 0 W/m² -1,1 °C -10,3 °C 35,4 km/h (5 Bft)
15.01.2024 01:42 21,0 °C 0,9 °C 50 % 87 % 997,2 hPa 0,0 l/m² 29,0 km/h (5 Bft) SW 225 ° 0 min 0 W/m² -1,0 °C -11,8 °C 33,8 km/h (5 Bft)
15.01.2024 01:43 20,9 °C 0,9 °C 50 % 87 % 997,1 hPa 0,0 l/m² 29,0 km/h (5 Bft) SW 225 ° 0 min 0 W/m² -1,0 °C -11,8 °C 37,0 km/h (5 Bft)
15.01.2024 01:44 21,0 °C 0,9 °C 50 % 87 % 997,2 hPa 0,0 l/m² 25,7 km/h (4 Bft) SW 225 ° 0 min 0 W/m² -1,0 °C -10,7 °C 35,4 km/h (5 Bft)
15.01.2024 01:45 20,9 °C 0,9 °C 50 % 87 % 997,1 hPa 0,0 l/m² 24,1 km/h (4 Bft) SW 225 ° 0 min 0 W/m² -1,0 °C -10,2 °C 32,2 km/h (5 Bft)
15.01.2024 01:46 21,0 °C 0,9 °C 50 % 87 % 997,1 hPa 0,0 l/m² 20,9 km/h (4 Bft) SW 225 ° 0 min 0 W/m² -1,0 °C -8,9 °C 29,0 km/h (5 Bft)
15.01.2024 01:47 20,9 °C 0,9 °C 50 % 87 % 997,2 hPa 0,0 l/m² 32,2 km/h (5 Bft) SW 225 ° 0 min 0 W/m² -1,0 °C -12,8 °C 43,5 km/h (6 Bft)
15.01.2024 01:48 21,0 °C 0,9 °C 50 % 87 % 997,1 hPa 0,0 l/m² 27,4 km/h (5 Bft) SW 225 ° 0 min 0 W/m² -1,0 °C -11,3 °C 43,5 km/h (6 Bft)
15.01.2024 01:49 21,0 °C 0,9 °C 50 % 87 % 997,2 hPa 0,0 l/m² 29,0 km/h (5 Bft) SW 225 ° 0 min 0 W/m² -1,0 °C -11,8 °C 40,2 km/h (6 Bft)
15.01.2024 01:50 20,9 °C 0,9 °C 50 % 87 % 997,2 hPa 0,0 l/m² 32,2 km/h (5 Bft) SW 225 ° 0 min 0 W/m² -1,0 °C -12,8 °C 40,2 km/h (6 Bft)
15.01.2024 01:51 21,0 °C 0,9 °C 50 % 87 % 997,1 hPa 0,0 l/m² 32,2 km/h (5 Bft) SW 225 ° 0 min 0 W/m² -1,0 °C -12,8 °C 46,7 km/h (6 Bft)
15.01.2024 01:52 21,0 °C 0,9 °C 50 % 87 % 997,1 hPa 0,0 l/m² 29,0 km/h (5 Bft) SW 225 ° 0 min 0 W/m² -1,0 °C -11,8 °C 46,7 km/h (6 Bft)
15.01.2024 01:53 20,9 °C 0,9 °C 50 % 87 % 997,2 hPa 0,0 l/m² 30,6 km/h (5 Bft) SW 225 ° 0 min 0 W/m² -1,0 °C -12,3 °C 37,0 km/h (5 Bft)
15.01.2024 01:54 20,9 °C 0,9 °C 50 % 87 % 997,3 hPa 0,0 l/m² 24,1 km/h (4 Bft) SW 225 ° 0 min 0 W/m² -1,0 °C -10,2 °C 32,2 km/h (5 Bft)
15.01.2024 01:55 20,9 °C 0,9 °C 50 % 87 % 997,2 hPa 0,0 l/m² 29,0 km/h (5 Bft) SW 225 ° 0 min 0 W/m² -1,0 °C -11,8 °C 41,8 km/h (6 Bft)
15.01.2024 01:56 21,0 °C 0,9 °C 50 % 87 % 997,1 hPa 0,0 l/m² 27,4 km/h (5 Bft) SW 225 ° 0 min 0 W/m² -1,0 °C -11,3 °C 37,0 km/h (5 Bft)
15.01.2024 01:57 21,0 °C 0,8 °C 50 % 87 % 997,1 hPa 0,0 l/m² 30,6 km/h (5 Bft) SW 225 ° 0 min 0 W/m² -1,1 °C -12,5 °C 37,0 km/h (5 Bft)
15.01.2024 01:58 20,9 °C 0,9 °C 50 % 86 % 997,1 hPa 0,0 l/m² 30,6 km/h (5 Bft) SW 225 ° 0 min 0 W/m² -1,2 °C -12,3 °C 38,6 km/h (6 Bft)
15.01.2024 01:59 21,0 °C 0,8 °C 50 % 86 % 997,1 hPa 0,0 l/m² 30,6 km/h (5 Bft) SW 225 ° 0 min 0 W/m² -1,3 °C -12,5 °C 41,8 km/h (6 Bft)
15.01.2024 02:00 21,0 °C 0,8 °C 50 % 87 % 997,0 hPa 0,0 l/m² 25,7 km/h (4 Bft) SW 225 ° 0 min 0 W/m² -1,1 °C -10,9 °C 33,8 km/h (5 Bft)
15.01.2024 02:01 21,0 °C 0,8 °C 50 % 87 % 997,0 hPa 0,0 l/m² 33,8 km/h (5 Bft) SW 225 ° 0 min 0 W/m² -1,1 °C -13,3 °C 43,5 km/h (6 Bft)
15.01.2024 02:02 21,0 °C 0,8 °C 50 % 87 % 997,0 hPa 0,0 l/m² 32,2 km/h (5 Bft) SW 225 ° 0 min 0 W/m² -1,1 °C -12,9 °C 41,8 km/h (6 Bft)
15.01.2024 02:03 21,0 °C 0,8 °C 50 % 87 % 997,0 hPa 0,0 l/m² 27,4 km/h (5 Bft) SW 225 ° 0 min 0 W/m² -1,1 °C -11,5 °C 35,4 km/h (5 Bft)
15.01.2024 02:04 21,0 °C 0,8 °C 50 % 87 % 997,0 hPa 0,0 l/m² 30,6 km/h (5 Bft) SW 225 ° 0 min 0 W/m² -1,1 °C -12,5 °C 45,1 km/h (6 Bft)
15.01.2024 02:05 21,0 °C 0,8 °C 50 % 87 % 997,1 hPa 0,0 l/m² 33,8 km/h (5 Bft) SW 225 ° 0 min 0 W/m² -1,1 °C -13,3 °C 48,3 km/h (6 Bft)
15.01.2024 02:06 20,9 °C 0,8 °C 50 % 87 % 997,1 hPa 0,0 l/m² 29,0 km/h (5 Bft) SW 225 ° 0 min 0 W/m² -1,1 °C -12,0 °C 33,8 km/h (5 Bft)
15.01.2024 02:07 21,0 °C 0,8 °C 50 % 87 % 997,1 hPa 0,0 l/m² 30,6 km/h (5 Bft) SW 225 ° 0 min 0 W/m² -1,1 °C -12,5 °C 40,2 km/h (6 Bft)
15.01.2024 02:08 21,0 °C 0,8 °C 50 % 87 % 997,2 hPa 0,0 l/m² 35,4 km/h (5 Bft) SW 225 ° 0 min 0 W/m² -1,1 °C -13,7 °C 48,3 km/h (6 Bft)
15.01.2024 02:09 21,0 °C 0,8 °C 50 % 87 % 997,1 hPa 0,0 l/m² 30,6 km/h (5 Bft) SW 225 ° 0 min 0 W/m² -1,1 °C -12,5 °C 41,8 km/h (6 Bft)
15.01.2024 02:10 21,0 °C 0,8 °C 50 % 87 % 997,2 hPa 0,0 l/m² 24,1 km/h (4 Bft) SW 225 ° 0 min 0 W/m² -1,1 °C -10,3 °C 37,0 km/h (5 Bft)
15.01.2024 02:11 20,9 °C 0,8 °C 50 % 87 % 997,1 hPa 0,0 l/m² 37,0 km/h (5 Bft) SW 225 ° 0 min 0 W/m² -1,1 °C -14,1 °C 46,7 km/h (6 Bft)
15.01.2024 02:12 21,0 °C 0,8 °C 50 % 87 % 997,0 hPa 0,0 l/m² 32,2 km/h (5 Bft) SW 225 ° 0 min 0 W/m² -1,1 °C -12,9 °C 43,5 km/h (6 Bft)
15.01.2024 02:13 21,0 °C 0,8 °C 50 % 87 % 997,1 hPa 0,0 l/m² 30,6 km/h (5 Bft) SW 225 ° 0 min 0 W/m² -1,1 °C -12,5 °C 38,6 km/h (6 Bft)
15.01.2024 02:14 20,9 °C 0,8 °C 50 % 87 % 997,2 hPa 0,0 l/m² 25,7 km/h (4 Bft) SW 225 ° 0 min 0 W/m² -1,1 °C -10,9 °C 38,6 km/h (6 Bft)
15.01.2024 02:15 21,0 °C 0,8 °C 50 % 87 % 997,1 hPa 0,0 l/m² 24,1 km/h (4 Bft) SW 225 ° 0 min 0 W/m² -1,1 °C -10,3 °C 35,4 km/h (5 Bft)
15.01.2024 02:16 21,0 °C 0,8 °C 50 % 87 % 997,2 hPa 0,0 l/m² 30,6 km/h (5 Bft) SW 225 ° 0 min 0 W/m² -1,1 °C -12,5 °C 41,8 km/h (6 Bft)
15.01.2024 02:17 21,0 °C 0,8 °C 50 % 87 % 997,1 hPa 0,0 l/m² 25,7 km/h (4 Bft) SW 225 ° 0 min 0 W/m² -1,1 °C -10,9 °C 38,6 km/h (6 Bft)
15.01.2024 02:18 21,0 °C 0,8 °C 50 % 87 % 997,1 hPa 0,0 l/m² 29,0 km/h (5 Bft) SW 225 ° 0 min 0 W/m² -1,1 °C -12,0 °C 37,0 km/h (5 Bft)
15.01.2024 02:19 21,0 °C 0,8 °C 50 % 87 % 997,2 hPa 0,0 l/m² 25,7 km/h (4 Bft) SW 225 ° 0 min 0 W/m² -1,1 °C -10,9 °C 40,2 km/h (6 Bft)
15.01.2024 02:20 21,0 °C 0,8 °C 50 % 87 % 997,1 hPa 0,0 l/m² 35,4 km/h (5 Bft) SW 225 ° 0 min 0 W/m² -1,1 °C -13,7 °C 46,7 km/h (6 Bft)
15.01.2024 02:21 20,9 °C 0,8 °C 50 % 87 % 997,2 hPa 0,0 l/m² 35,4 km/h (5 Bft) SW 225 ° 0 min 0 W/m² -1,1 °C -13,7 °C 46,7 km/h (6 Bft)
15.01.2024 02:22 21,0 °C 0,8 °C 50 % 87 % 997,1 hPa 0,0 l/m² 24,1 km/h (4 Bft) SW 225 ° 0 min 0 W/m² -1,1 °C -10,3 °C 30,6 km/h (5 Bft)
15.01.2024 02:23 21,0 °C 0,8 °C 50 % 87 % 997,1 hPa 0,0 l/m² 25,7 km/h (4 Bft) SW 225 ° 0 min 0 W/m² -1,1 °C -10,9 °C 37,0 km/h (5 Bft)
15.01.2024 02:24 21,0 °C 0,8 °C 50 % 87 % 997,1 hPa 0,0 l/m² 27,4 km/h (5 Bft) SW 225 ° 0 min 0 W/m² -1,1 °C -11,5 °C 37,0 km/h (5 Bft)
15.01.2024 02:25 21,0 °C 0,8 °C 50 % 87 % 997,1 hPa 0,0 l/m² 24,1 km/h (4 Bft) SW 225 ° 0 min 0 W/m² -1,1 °C -10,3 °C 32,2 km/h (5 Bft)
15.01.2024 02:26 21,0 °C 0,8 °C 50 % 87 % 997,1 hPa 0,0 l/m² 22,5 km/h (4 Bft) SW 225 ° 0 min 0 W/m² -1,1 °C -9,7 °C 35,4 km/h (5 Bft)
15.01.2024 02:27 21,0 °C 0,8 °C 50 % 87 % 997,1 hPa 0,0 l/m² 27,4 km/h (5 Bft) SW 225 ° 0 min 0 W/m² -1,1 °C -11,5 °C 33,8 km/h (5 Bft)
15.01.2024 02:28 20,9 °C 0,8 °C 50 % 87 % 997,1 hPa 0,0 l/m² 30,6 km/h (5 Bft) SW 225 ° 0 min 0 W/m² -1,1 °C -12,5 °C 40,2 km/h (6 Bft)
15.01.2024 02:29 20,9 °C 0,7 °C 50 % 87 % 997,0 hPa 0,0 l/m² 22,5 km/h (4 Bft) SW 225 ° 0 min 0 W/m² -1,2 °C -9,8 °C 32,2 km/h (5 Bft)
15.01.2024 02:30 21,0 °C 0,8 °C 50 % 87 % 997,1 hPa 0,0 l/m² 20,9 km/h (4 Bft) SW 225 ° 0 min 0 W/m² -1,1 °C -9,0 °C 41,8 km/h (6 Bft)
15.01.2024 02:31 20,9 °C 0,7 °C 50 % 87 % 996,9 hPa 0,0 l/m² 30,6 km/h (5 Bft) SW 225 ° 0 min 0 W/m² -1,2 °C -12,6 °C 38,6 km/h (6 Bft)
15.01.2024 02:32 20,9 °C 0,7 °C 50 % 87 % 997,0 hPa 0,0 l/m² 30,6 km/h (5 Bft) SW 225 ° 0 min 0 W/m² -1,2 °C -12,6 °C 38,6 km/h (6 Bft)
15.01.2024 02:33 20,9 °C 0,7 °C 50 % 87 % 996,9 hPa 0,0 l/m² 29,0 km/h (5 Bft) SW 225 ° 0 min 0 W/m² -1,2 °C -12,1 °C 38,6 km/h (6 Bft)
15.01.2024 02:34 20,9 °C 0,7 °C 50 % 87 % 997,0 hPa 0,0 l/m² 29,0 km/h (5 Bft) SW 225 ° 0 min 0 W/m² -1,2 °C -12,1 °C 38,6 km/h (6 Bft)
15.01.2024 02:35 20,9 °C 0,7 °C 50 % 87 % 997,0 hPa 0,0 l/m² 32,2 km/h (5 Bft) SW 225 ° 0 min 0 W/m² -1,2 °C -13,1 °C 40,2 km/h (6 Bft)
15.01.2024 02:36 20,9 °C 0,7 °C 50 % 87 % 997,0 hPa 0,0 l/m² 30,6 km/h (5 Bft) SW 225 ° 0 min 0 W/m² -1,2 °C -12,6 °C 43,5 km/h (6 Bft)
15.01.2024 02:37 20,9 °C 0,7 °C 50 % 87 % 996,9 hPa 0,0 l/m² 29,0 km/h (5 Bft) SW 225 ° 0 min 0 W/m² -1,2 °C -12,1 °C 40,2 km/h (6 Bft)
15.01.2024 02:38 20,9 °C 0,7 °C 50 % 87 % 997,0 hPa 0,0 l/m² 27,4 km/h (5 Bft) SW 225 ° 0 min 0 W/m² -1,2 °C -11,6 °C 35,4 km/h (5 Bft)
15.01.2024 02:39 20,9 °C 0,7 °C 50 % 87 % 997,0 hPa 0,0 l/m² 24,1 km/h (4 Bft) SW 225 ° 0 min 0 W/m² -1,2 °C -10,4 °C 32,2 km/h (5 Bft)
15.01.2024 02:40 20,9 °C 0,7 °C 50 % 87 % 996,9 hPa 0,0 l/m² 27,4 km/h (5 Bft) SW 225 ° 0 min 0 W/m² -1,2 °C -11,6 °C 37,0 km/h (5 Bft)
15.01.2024 02:41 20,9 °C 0,7 °C 50 % 87 % 997,0 hPa 0,0 l/m² 29,0 km/h (5 Bft) SW 225 ° 0 min 0 W/m² -1,2 °C -12,1 °C 38,6 km/h (6 Bft)
15.01.2024 02:42 20,9 °C 0,7 °C 50 % 87 % 996,9 hPa 0,0 l/m² 22,5 km/h (4 Bft) SW 225 ° 0 min 0 W/m² -1,2 °C -9,8 °C 35,4 km/h (5 Bft)
15.01.2024 02:43 20,9 °C 0,7 °C 50 % 87 % 997,0 hPa 0,0 l/m² 25,7 km/h (4 Bft) SW 225 ° 0 min 0 W/m² -1,2 °C -11,0 °C 37,0 km/h (5 Bft)
15.01.2024 02:44 20,9 °C 0,7 °C 50 % 87 % 996,9 hPa 0,0 l/m² 27,4 km/h (5 Bft) SW 225 ° 0 min 0 W/m² -1,2 °C -11,6 °C 35,4 km/h (5 Bft)
15.01.2024 02:45 20,9 °C 0,7 °C 50 % 87 % 996,9 hPa 0,0 l/m² 25,7 km/h (4 Bft) SW 225 ° 0 min 0 W/m² -1,2 °C -11,0 °C 33,8 km/h (5 Bft)
15.01.2024 02:46 20,9 °C 0,7 °C 50 % 87 % 996,9 hPa 0,0 l/m² 35,4 km/h (5 Bft) SW 225 ° 0 min 0 W/m² -1,2 °C -13,9 °C 46,7 km/h (6 Bft)
15.01.2024 02:47 20,9 °C 0,7 °C 50 % 87 % 996,8 hPa 0,0 l/m² 27,4 km/h (5 Bft) SW 225 ° 0 min 0 W/m² -1,2 °C -11,6 °C 33,8 km/h (5 Bft)
15.01.2024 02:48 20,9 °C 0,7 °C 50 % 87 % 996,9 hPa 0,0 l/m² 22,5 km/h (4 Bft) SW 225 ° 0 min 0 W/m² -1,2 °C -9,8 °C 29,0 km/h (5 Bft)
15.01.2024 02:49 20,9 °C 0,7 °C 50 % 87 % 996,9 hPa 0,0 l/m² 27,4 km/h (5 Bft) SW 225 ° 0 min 0 W/m² -1,2 °C -11,6 °C 38,6 km/h (6 Bft)
15.01.2024 02:50 20,9 °C 0,7 °C 50 % 87 % 996,8 hPa 0,0 l/m² 25,7 km/h (4 Bft) SW 225 ° 0 min 0 W/m² -1,2 °C -11,0 °C 35,4 km/h (5 Bft)
15.01.2024 02:51 20,9 °C 0,7 °C 50 % 87 % 996,8 hPa 0,0 l/m² 25,7 km/h (4 Bft) SW 225 ° 0 min 0 W/m² -1,2 °C -11,0 °C 33,8 km/h (5 Bft)
15.01.2024 02:52 20,9 °C 0,7 °C 50 % 87 % 996,7 hPa 0,0 l/m² 20,9 km/h (4 Bft) SW 225 ° 0 min 0 W/m² -1,2 °C -9,1 °C 32,2 km/h (5 Bft)
15.01.2024 02:53 20,9 °C 0,7 °C 50 % 87 % 996,7 hPa 0,0 l/m² 29,0 km/h (5 Bft) SW 225 ° 0 min 0 W/m² -1,2 °C -12,1 °C 41,8 km/h (6 Bft)
15.01.2024 02:54 21,0 °C 0,7 °C 50 % 87 % 996,7 hPa 0,0 l/m² 29,0 km/h (5 Bft) SW 225 ° 0 min 0 W/m² -1,2 °C -12,1 °C 38,6 km/h (6 Bft)
15.01.2024 02:55 20,9 °C 0,6 °C 50 % 87 % 996,8 hPa 0,0 l/m² 24,1 km/h (4 Bft) SW 225 ° 0 min 0 W/m² -1,3 °C -10,6 °C 32,2 km/h (5 Bft)
15.01.2024 02:56 20,9 °C 0,6 °C 50 % 87 % 996,8 hPa 0,0 l/m² 27,4 km/h (5 Bft) SW 225 ° 0 min 0 W/m² -1,3 °C -11,7 °C 32,2 km/h (5 Bft)
15.01.2024 02:57 20,9 °C 0,6 °C 50 % 87 % 996,9 hPa 0,0 l/m² 22,5 km/h (4 Bft) S-SW 202 ° 0 min 0 W/m² -1,3 °C -9,9 °C 32,2 km/h (5 Bft)
15.01.2024 02:58 20,9 °C 0,6 °C 50 % 87 % 996,7 hPa 0,0 l/m² 22,5 km/h (4 Bft) SW 225 ° 0 min 0 W/m² -1,3 °C -9,9 °C 27,4 km/h (5 Bft)
15.01.2024 02:59 20,9 °C 0,6 °C 50 % 87 % 996,8 hPa 0,0 l/m² 22,5 km/h (4 Bft) SW 225 ° 0 min 0 W/m² -1,3 °C -9,9 °C 33,8 km/h (5 Bft)
15.01.2024 03:00 20,9 °C 0,6 °C 50 % 87 % 996,7 hPa 0,0 l/m² 24,1 km/h (4 Bft) SW 225 ° 0 min 0 W/m² -1,3 °C -10,6 °C 32,2 km/h (5 Bft)
15.01.2024 03:01 20,9 °C 0,6 °C 50 % 87 % 996,8 hPa 0,0 l/m² 29,0 km/h (5 Bft) SW 225 ° 0 min 0 W/m² -1,3 °C -12,3 °C 35,4 km/h (5 Bft)
15.01.2024 03:02 20,9 °C 0,6 °C 50 % 87 % 996,7 hPa 0,0 l/m² 29,0 km/h (5 Bft) SW 225 ° 0 min 0 W/m² -1,3 °C -12,3 °C 35,4 km/h (5 Bft)
15.01.2024 03:03 20,9 °C 0,6 °C 50 % 87 % 996,8 hPa 0,0 l/m² 27,4 km/h (5 Bft) SW 225 ° 0 min 0 W/m² -1,3 °C -11,7 °C 35,4 km/h (5 Bft)
15.01.2024 03:04 20,9 °C 0,5 °C 50 % 87 % 996,8 hPa 0,0 l/m² 29,0 km/h (5 Bft) S-SW 202 ° 0 min 0 W/m² -1,4 °C -12,4 °C 38,6 km/h (6 Bft)
15.01.2024 03:05 20,9 °C 0,5 °C 50 % 87 % 996,8 hPa 0,0 l/m² 29,0 km/h (5 Bft) SW 225 ° 0 min 0 W/m² -1,4 °C -12,4 °C 35,4 km/h (5 Bft)
15.01.2024 03:06 20,9 °C 0,4 °C 50 % 87 % 996,8 hPa 0,0 l/m² 22,5 km/h (4 Bft) SW 225 ° 0 min 0 W/m² -1,5 °C -10,2 °C 29,0 km/h (5 Bft)
15.01.2024 03:07 20,9 °C 0,4 °C 50 % 88 % 996,7 hPa 0,0 l/m² 25,7 km/h (4 Bft) SW 225 ° 0 min 0 W/m² -1,3 °C -11,4 °C 35,4 km/h (5 Bft)
15.01.2024 03:08 20,9 °C 0,4 °C 50 % 88 % 996,9 hPa 0,0 l/m² 24,1 km/h (4 Bft) SW 225 ° 0 min 0 W/m² -1,3 °C -10,8 °C 33,8 km/h (5 Bft)
15.01.2024 03:09 20,9 °C 0,4 °C 50 % 88 % 996,8 hPa 0,0 l/m² 22,5 km/h (4 Bft) SW 225 ° 0 min 0 W/m² -1,3 °C -10,2 °C 29,0 km/h (5 Bft)
15.01.2024 03:10 20,9 °C 0,4 °C 50 % 88 % 996,9 hPa 0,0 l/m² 20,9 km/h (4 Bft) SW 225 ° 0 min 0 W/m² -1,3 °C -9,5 °C 25,7 km/h (4 Bft)
15.01.2024 03:11 20,9 °C 0,4 °C 50 % 88 % 996,9 hPa 0,0 l/m² 25,7 km/h (4 Bft) SW 225 ° 0 min 0 W/m² -1,3 °C -11,4 °C 30,6 km/h (5 Bft)
15.01.2024 03:12 20,9 °C 0,4 °C 50 % 88 % 996,9 hPa 0,0 l/m² 27,4 km/h (5 Bft) SW 225 ° 0 min 0 W/m² -1,3 °C -12,0 °C 33,8 km/h (5 Bft)
15.01.2024 03:13 20,9 °C 0,4 °C 50 % 88 % 996,9 hPa 0,0 l/m² 27,4 km/h (5 Bft) S-SW 202 ° 0 min 0 W/m² -1,3 °C -12,0 °C 35,4 km/h (5 Bft)
15.01.2024 03:14 20,9 °C 0,4 °C 50 % 88 % 996,8 hPa 0,0 l/m² 20,9 km/h (4 Bft) SW 225 ° 0 min 0 W/m² -1,3 °C -9,5 °C 29,0 km/h (5 Bft)
15.01.2024 03:15 20,9 °C 0,4 °C 50 % 88 % 996,8 hPa 0,0 l/m² 19,3 km/h (3 Bft) SW 225 ° 0 min 0 W/m² -1,3 °C -8,8 °C 25,7 km/h (4 Bft)
15.01.2024 03:16 20,9 °C 0,4 °C 50 % 88 % 996,9 hPa 0,0 l/m² 22,5 km/h (4 Bft) S-SW 202 ° 0 min 0 W/m² -1,3 °C -10,2 °C 33,8 km/h (5 Bft)
15.01.2024 03:17 20,9 °C 0,3 °C 50 % 88 % 997,0 hPa 0,0 l/m² 27,4 km/h (5 Bft) SW 225 ° 0 min 0 W/m² -1,4 °C -12,2 °C 35,4 km/h (5 Bft)
15.01.2024 03:18 20,9 °C 0,3 °C 50 % 88 % 996,8 hPa 0,0 l/m² 29,0 km/h (5 Bft) SW 225 ° 0 min 0 W/m² -1,4 °C -12,7 °C 35,4 km/h (5 Bft)
15.01.2024 03:19 20,9 °C 0,3 °C 50 % 88 % 996,9 hPa 0,0 l/m² 27,4 km/h (5 Bft) SW 225 ° 0 min 0 W/m² -1,4 °C -12,2 °C 35,4 km/h (5 Bft)
15.01.2024 03:20 20,9 °C 0,3 °C 50 % 88 % 996,9 hPa 0,0 l/m² 27,4 km/h (5 Bft) SW 225 ° 0 min 0 W/m² -1,4 °C -12,2 °C 32,2 km/h (5 Bft)
15.01.2024 03:21 20,9 °C 0,3 °C 50 % 88 % 996,9 hPa 0,0 l/m² 27,4 km/h (5 Bft) SW 225 ° 0 min 0 W/m² -1,4 °C -12,2 °C 32,2 km/h (5 Bft)
15.01.2024 03:22 20,9 °C 0,2 °C 50 % 88 % 996,9 hPa 0,0 l/m² 24,1 km/h (4 Bft) SW 225 ° 0 min 0 W/m² -1,5 °C -11,1 °C 29,0 km/h (5 Bft)
15.01.2024 03:23 20,9 °C 0,2 °C 50 % 88 % 996,9 hPa 0,0 l/m² 27,4 km/h (5 Bft) SW 225 ° 0 min 0 W/m² -1,5 °C -12,3 °C 33,8 km/h (5 Bft)
15.01.2024 03:24 20,9 °C 0,3 °C 50 % 88 % 996,9 hPa 0,0 l/m² 27,4 km/h (5 Bft) SW 225 ° 0 min 0 W/m² -1,4 °C -12,2 °C 33,8 km/h (5 Bft)
15.01.2024 03:25 20,9 °C 0,3 °C 50 % 88 % 996,9 hPa 0,0 l/m² 22,5 km/h (4 Bft) SW 225 ° 0 min 0 W/m² -1,4 °C -10,3 °C 27,4 km/h (5 Bft)
15.01.2024 03:26 20,9 °C 0,2 °C 50 % 88 % 996,9 hPa 0,0 l/m² 20,9 km/h (4 Bft) SW 225 ° 0 min 0 W/m² -1,5 °C -9,8 °C 29,0 km/h (5 Bft)
15.01.2024 03:27 20,9 °C 0,2 °C 50 % 88 % 996,9 hPa 0,0 l/m² 16,1 km/h (3 Bft) SW 225 ° 0 min 0 W/m² -1,5 °C -7,4 °C 20,9 km/h (4 Bft)
15.01.2024 03:28 21,0 °C 0,2 °C 50 % 88 % 997,0 hPa 0,0 l/m² 17,7 km/h (3 Bft) SW 225 ° 0 min 0 W/m² -1,5 °C -8,2 °C 24,1 km/h (4 Bft)
15.01.2024 03:29 20,9 °C 0,2 °C 50 % 88 % 996,9 hPa 0,0 l/m² 20,9 km/h (4 Bft) SW 225 ° 0 min 0 W/m² -1,5 °C -9,8 °C 27,4 km/h (5 Bft)
15.01.2024 03:30 21,0 °C 0,2 °C 50 % 88 % 996,9 hPa 0,0 l/m² 25,7 km/h (4 Bft) SW 225 ° 0 min 0 W/m² -1,5 °C -11,7 °C 35,4 km/h (5 Bft)
15.01.2024 03:31 20,9 °C 0,2 °C 50 % 88 % 997,0 hPa 0,0 l/m² 22,5 km/h (4 Bft) SW 225 ° 0 min 0 W/m² -1,5 °C -10,5 °C 30,6 km/h (5 Bft)
15.01.2024 03:32 21,0 °C 0,2 °C 50 % 88 % 996,8 hPa 0,0 l/m² 19,3 km/h (3 Bft) SW 225 ° 0 min 0 W/m² -1,5 °C -9,0 °C 22,5 km/h (4 Bft)
15.01.2024 03:33 20,9 °C 0,2 °C 50 % 88 % 996,8 hPa 0,0 l/m² 19,3 km/h (3 Bft) S-SW 202 ° 0 min 0 W/m² -1,5 °C -9,0 °C 25,7 km/h (4 Bft)
15.01.2024 03:34 20,9 °C 0,2 °C 50 % 88 % 996,9 hPa 0,0 l/m² 19,3 km/h (3 Bft) SW 225 ° 0 min 0 W/m² -1,5 °C -9,0 °C 30,6 km/h (5 Bft)
15.01.2024 03:35 21,0 °C 0,2 °C 50 % 88 % 996,8 hPa 0,0 l/m² 19,3 km/h (3 Bft) SW 225 ° 0 min 0 W/m² -1,5 °C -9,0 °C 27,4 km/h (5 Bft)
15.01.2024 03:36 21,0 °C 0,2 °C 50 % 88 % 996,8 hPa 0,0 l/m² 20,9 km/h (4 Bft) SW 225 ° 0 min 0 W/m² -1,5 °C -9,8 °C 25,7 km/h (4 Bft)
15.01.2024 03:37 21,0 °C 0,3 °C 50 % 88 % 996,9 hPa 0,0 l/m² 20,9 km/h (4 Bft) SW 225 ° 0 min 0 W/m² -1,4 °C -9,7 °C 27,4 km/h (5 Bft)
15.01.2024 03:38 21,0 °C 0,2 °C 50 % 89 % 996,8 hPa 0,0 l/m² 20,9 km/h (4 Bft) S-SW 202 ° 0 min 0 W/m² -1,4 °C -9,8 °C 29,0 km/h (5 Bft)
15.01.2024 03:39 20,9 °C 0,3 °C 50 % 89 % 996,8 hPa 0,0 l/m² 24,1 km/h (4 Bft) S-SW 202 ° 0 min 0 W/m² -1,3 °C -11,0 °C 35,4 km/h (5 Bft)
15.01.2024 03:40 20,9 °C 0,2 °C 50 % 89 % 996,8 hPa 0,0 l/m² 24,1 km/h (4 Bft) SW 225 ° 0 min 0 W/m² -1,4 °C -11,1 °C 29,0 km/h (5 Bft)
15.01.2024 03:41 21,0 °C 0,2 °C 50 % 89 % 996,8 hPa 0,0 l/m² 24,1 km/h (4 Bft) S-SW 202 ° 0 min 0 W/m² -1,4 °C -11,1 °C 35,4 km/h (5 Bft)
15.01.2024 03:42 21,0 °C 0,2 °C 50 % 89 % 996,8 hPa 0,0 l/m² 27,4 km/h (5 Bft) SW 225 ° 0 min 0 W/m² -1,4 °C -12,3 °C 37,0 km/h (5 Bft)
15.01.2024 03:43 21,0 °C 0,2 °C 50 % 89 % 996,8 hPa 0,0 l/m² 29,0 km/h (5 Bft) S-SW 202 ° 0 min 0 W/m² -1,4 °C -12,8 °C 33,8 km/h (5 Bft)
15.01.2024 03:44 21,0 °C 0,3 °C 50 % 89 % 996,8 hPa 0,0 l/m² 27,4 km/h (5 Bft) SW 225 ° 0 min 0 W/m² -1,3 °C -12,2 °C 35,4 km/h (5 Bft)
15.01.2024 03:45 21,0 °C 0,3 °C 50 % 89 % 996,9 hPa 0,0 l/m² 24,1 km/h (4 Bft) SW 225 ° 0 min 0 W/m² -1,3 °C -11,0 °C 32,2 km/h (5 Bft)
15.01.2024 03:46 21,0 °C 0,3 °C 50 % 89 % 996,9 hPa 0,0 l/m² 24,1 km/h (4 Bft) SW 225 ° 0 min 0 W/m² -1,3 °C -11,0 °C 32,2 km/h (5 Bft)
15.01.2024 03:47 20,9 °C 0,3 °C 50 % 89 % 996,9 hPa 0,0 l/m² 27,4 km/h (5 Bft) SW 225 ° 0 min 0 W/m² -1,3 °C -12,2 °C 32,2 km/h (5 Bft)
15.01.2024 03:48 21,0 °C 0,3 °C 49 % 89 % 996,9 hPa 0,0 l/m² 25,7 km/h (4 Bft) SW 225 ° 0 min 0 W/m² -1,3 °C -11,6 °C 30,6 km/h (5 Bft)
15.01.2024 03:49 21,0 °C 0,3 °C 50 % 89 % 996,8 hPa 0,0 l/m² 22,5 km/h (4 Bft) SW 225 ° 0 min 0 W/m² -1,3 °C -10,3 °C 32,2 km/h (5 Bft)
15.01.2024 03:50 21,0 °C 0,4 °C 50 % 89 % 996,9 hPa 0,0 l/m² 24,1 km/h (4 Bft) S-SW 202 ° 0 min 0 W/m² -1,2 °C -10,8 °C 33,8 km/h (5 Bft)
15.01.2024 03:51 21,0 °C 0,4 °C 49 % 89 % 996,9 hPa 0,0 l/m² 27,4 km/h (5 Bft) SW 225 ° 0 min 0 W/m² -1,2 °C -12,0 °C 38,6 km/h (6 Bft)
15.01.2024 03:52 21,0 °C 0,3 °C 49 % 89 % 996,8 hPa 0,0 l/m² 29,0 km/h (5 Bft) SW 225 ° 0 min 0 W/m² -1,3 °C -12,7 °C 41,8 km/h (6 Bft)
15.01.2024 03:53 21,0 °C 0,4 °C 50 % 89 % 996,9 hPa 0,0 l/m² 29,0 km/h (5 Bft) S-SW 202 ° 0 min 0 W/m² -1,2 °C -12,5 °C 37,0 km/h (5 Bft)
15.01.2024 03:54 21,0 °C 0,4 °C 49 % 89 % 996,8 hPa 0,0 l/m² 22,5 km/h (4 Bft) SW 225 ° 0 min 0 W/m² -1,2 °C -10,2 °C 32,2 km/h (5 Bft)
15.01.2024 03:55 21,0 °C 0,4 °C 49 % 89 % 996,8 hPa 0,0 l/m² 29,0 km/h (5 Bft) SW 225 ° 0 min 0 W/m² -1,2 °C -12,5 °C 38,6 km/h (6 Bft)
15.01.2024 03:56 21,0 °C 0,4 °C 49 % 89 % 996,8 hPa 0,0 l/m² 29,0 km/h (5 Bft) SW 225 ° 0 min 0 W/m² -1,2 °C -12,5 °C 37,0 km/h (5 Bft)
15.01.2024 03:57 21,0 °C 0,4 °C 49 % 89 % 996,9 hPa 0,0 l/m² 25,7 km/h (4 Bft) SW 225 ° 0 min 0 W/m² -1,2 °C -11,4 °C 35,4 km/h (5 Bft)
15.01.2024 03:58 21,1 °C 0,4 °C 49 % 88 % 996,8 hPa 0,0 l/m² 29,0 km/h (5 Bft) SW 225 ° 0 min 0 W/m² -1,3 °C -12,5 °C 40,2 km/h (6 Bft)
15.01.2024 03:59 21,0 °C 0,4 °C 49 % 88 % 997,0 hPa 0,0 l/m² 27,4 km/h (5 Bft) SW 225 ° 0 min 0 W/m² -1,3 °C -12,0 °C 37,0 km/h (5 Bft)
15.01.2024 04:00 21,0 °C 0,4 °C 49 % 88 % 996,9 hPa 0,0 l/m² 20,9 km/h (4 Bft) SW 225 ° 0 min 0 W/m² -1,3 °C -9,5 °C 27,4 km/h (5 Bft)
15.01.2024 04:01 21,0 °C 0,4 °C 49 % 88 % 996,9 hPa 0,0 l/m² 22,5 km/h (4 Bft) S-SW 202 ° 0 min 0 W/m² -1,3 °C -10,2 °C 33,8 km/h (5 Bft)
15.01.2024 04:02 21,0 °C 0,4 °C 49 % 88 % 996,9 hPa 0,0 l/m² 24,1 km/h (4 Bft) SW 225 ° 0 min 0 W/m² -1,3 °C -10,8 °C 30,6 km/h (5 Bft)
15.01.2024 04:03 21,0 °C 0,3 °C 49 % 88 % 996,9 hPa 0,0 l/m² 25,7 km/h (4 Bft) SW 225 ° 0 min 0 W/m² -1,4 °C -11,6 °C 33,8 km/h (5 Bft)
15.01.2024 04:04 21,0 °C 0,4 °C 49 % 88 % 996,9 hPa 0,0 l/m² 25,7 km/h (4 Bft) SW 225 ° 0 min 0 W/m² -1,3 °C -11,4 °C 30,6 km/h (5 Bft)
15.01.2024 04:05 21,1 °C 0,3 °C 49 % 88 % 996,9 hPa 0,0 l/m² 24,1 km/h (4 Bft) SW 225 ° 0 min 0 W/m² -1,4 °C -11,0 °C 29,0 km/h (5 Bft)
15.01.2024 04:06 21,0 °C 0,3 °C 49 % 88 % 997,0 hPa 0,0 l/m² 20,9 km/h (4 Bft) SW 225 ° 0 min 0 W/m² -1,4 °C -9,7 °C 29,0 km/h (5 Bft)
15.01.2024 04:07 21,1 °C 0,3 °C 49 % 88 % 996,9 hPa 0,0 l/m² 20,9 km/h (4 Bft) SW 225 ° 0 min 0 W/m² -1,4 °C -9,7 °C 25,7 km/h (4 Bft)
15.01.2024 04:08 21,0 °C 0,3 °C 49 % 88 % 997,0 hPa 0,0 l/m² 24,1 km/h (4 Bft) SW 225 ° 0 min 0 W/m² -1,4 °C -11,0 °C 30,6 km/h (5 Bft)
15.01.2024 04:09 21,1 °C 0,3 °C 49 % 88 % 996,9 hPa 0,0 l/m² 20,9 km/h (4 Bft) SW 225 ° 0 min 0 W/m² -1,4 °C -9,7 °C 27,4 km/h (5 Bft)
15.01.2024 04:10 21,1 °C 0,3 °C 49 % 88 % 996,9 hPa 0,0 l/m² 27,4 km/h (5 Bft) SW 225 ° 0 min 0 W/m² -1,4 °C -12,2 °C 38,6 km/h (6 Bft)
15.01.2024 04:11 21,1 °C 0,3 °C 49 % 88 % 997,0 hPa 0,0 l/m² 25,7 km/h (4 Bft) SW 225 ° 0 min 0 W/m² -1,4 °C -11,6 °C 32,2 km/h (5 Bft)
15.01.2024 04:12 21,1 °C 0,3 °C 49 % 88 % 996,9 hPa 0,0 l/m² 19,3 km/h (3 Bft) SW 225 ° 0 min 0 W/m² -1,4 °C -8,9 °C 27,4 km/h (5 Bft)
15.01.2024 04:13 21,1 °C 0,3 °C 49 % 88 % 997,0 hPa 0,0 l/m² 24,1 km/h (4 Bft) SW 225 ° 0 min 0 W/m² -1,4 °C -11,0 °C 29,0 km/h (5 Bft)
15.01.2024 04:14 21,1 °C 0,3 °C 49 % 88 % 997,0 hPa 0,0 l/m² 27,4 km/h (5 Bft) SW 225 ° 0 min 0 W/m² -1,4 °C -12,2 °C 35,4 km/h (5 Bft)
15.01.2024 04:15 21,1 °C 0,3 °C 49 % 88 % 997,0 hPa 0,0 l/m² 25,7 km/h (4 Bft) SW 225 ° 0 min 0 W/m² -1,4 °C -11,6 °C 32,2 km/h (5 Bft)
15.01.2024 04:16 21,1 °C 0,3 °C 49 % 88 % 997,0 hPa 0,0 l/m² 17,7 km/h (3 Bft) SW 225 ° 0 min 0 W/m² -1,4 °C -8,1 °C 25,7 km/h (4 Bft)
15.01.2024 04:17 21,1 °C 0,2 °C 49 % 88 % 997,0 hPa 0,0 l/m² 17,7 km/h (3 Bft) SW 225 ° 0 min 0 W/m² -1,5 °C -8,2 °C 30,6 km/h (5 Bft)
15.01.2024 04:18 21,1 °C 0,2 °C 49 % 88 % 997,0 hPa 0,0 l/m² 22,5 km/h (4 Bft) SW 225 ° 0 min 0 W/m² -1,5 °C -10,5 °C 29,0 km/h (5 Bft)
15.01.2024 04:19 21,1 °C 0,2 °C 49 % 88 % 997,0 hPa 0,0 l/m² 16,1 km/h (3 Bft) S-SW 202 ° 0 min 0 W/m² -1,5 °C -7,4 °C 29,0 km/h (5 Bft)
15.01.2024 04:20 21,1 °C 0,2 °C 49 % 88 % 997,0 hPa 0,0 l/m² 25,7 km/h (4 Bft) SW 225 ° 0 min 0 W/m² -1,5 °C -11,7 °C 35,4 km/h (5 Bft)
15.01.2024 04:21 21,1 °C 0,2 °C 49 % 88 % 996,9 hPa 0,0 l/m² 25,7 km/h (4 Bft) SW 225 ° 0 min 0 W/m² -1,5 °C -11,7 °C 40,2 km/h (6 Bft)
15.01.2024 04:22 21,1 °C 0,2 °C 49 % 88 % 996,9 hPa 0,0 l/m² 22,5 km/h (4 Bft) SW 225 ° 0 min 0 W/m² -1,5 °C -10,5 °C 29,0 km/h (5 Bft)
15.01.2024 04:23 21,1 °C 0,2 °C 49 % 88 % 997,0 hPa 0,0 l/m² 20,9 km/h (4 Bft) SW 225 ° 0 min 0 W/m² -1,5 °C -9,8 °C 27,4 km/h (5 Bft)
15.01.2024 04:24 21,1 °C 0,2 °C 49 % 88 % 996,9 hPa 0,0 l/m² 22,5 km/h (4 Bft) SW 225 ° 0 min 0 W/m² -1,5 °C -10,5 °C 30,6 km/h (5 Bft)
15.01.2024 04:25 21,1 °C 0,2 °C 49 % 88 % 997,0 hPa 0,0 l/m² 20,9 km/h (4 Bft) SW 225 ° 0 min 0 W/m² -1,5 °C -9,8 °C 25,7 km/h (4 Bft)
15.01.2024 04:26 21,1 °C 0,1 °C 49 % 88 % 997,0 hPa 0,0 l/m² 24,1 km/h (4 Bft) SW 225 ° 0 min 0 W/m² -1,6 °C -11,2 °C 32,2 km/h (5 Bft)
15.01.2024 04:27 21,1 °C 0,2 °C 49 % 88 % 996,9 hPa 0,0 l/m² 25,7 km/h (4 Bft) SW 225 ° 0 min 0 W/m² -1,5 °C -11,7 °C 33,8 km/h (5 Bft)
15.01.2024 04:28 21,1 °C 0,1 °C 49 % 88 % 996,9 hPa 0,0 l/m² 25,7 km/h (4 Bft) SW 225 ° 0 min 0 W/m² -1,6 °C -11,8 °C 33,8 km/h (5 Bft)
15.01.2024 04:29 21,1 °C 0,1 °C 49 % 88 % 997,0 hPa 0,0 l/m² 22,5 km/h (4 Bft) SW 225 ° 0 min 0 W/m² -1,6 °C -10,6 °C 32,2 km/h (5 Bft)
15.01.2024 04:30 21,1 °C 0,1 °C 49 % 88 % 997,0 hPa 0,0 l/m² 20,9 km/h (4 Bft) SW 225 ° 0 min 0 W/m² -1,6 °C -9,9 °C 33,8 km/h (5 Bft)
15.01.2024 04:31 21,1 °C 0,1 °C 49 % 88 % 997,0 hPa 0,0 l/m² 22,5 km/h (4 Bft) SW 225 ° 0 min 0 W/m² -1,6 °C -10,6 °C 25,7 km/h (4 Bft)
15.01.2024 04:32 21,1 °C 0,1 °C 49 % 88 % 997,0 hPa 0,0 l/m² 19,3 km/h (3 Bft) SW 225 ° 0 min 0 W/m² -1,6 °C -9,2 °C 27,4 km/h (5 Bft)
15.01.2024 04:33 21,1 °C 0,1 °C 49 % 89 % 996,9 hPa 0,0 l/m² 22,5 km/h (4 Bft) SW 225 ° 0 min 0 W/m² -1,5 °C -10,6 °C 27,4 km/h (5 Bft)
15.01.2024 04:34 21,1 °C 0,1 °C 49 % 89 % 996,9 hPa 0,0 l/m² 20,9 km/h (4 Bft) SW 225 ° 0 min 0 W/m² -1,5 °C -9,9 °C 25,7 km/h (4 Bft)
15.01.2024 04:35 21,1 °C 0,1 °C 49 % 89 % 997,0 hPa 0,0 l/m² 20,9 km/h (4 Bft) SW 225 ° 0 min 0 W/m² -1,5 °C -9,9 °C 27,4 km/h (5 Bft)
15.01.2024 04:36 21,1 °C 0,0 °C 49 % 89 % 996,9 hPa 0,0 l/m² 19,3 km/h (3 Bft) SW 225 ° 0 min 0 W/m² -1,6 °C -9,3 °C 22,5 km/h (4 Bft)
15.01.2024 04:37 21,1 °C 0,0 °C 49 % 89 % 997,0 hPa 0,0 l/m² 17,7 km/h (3 Bft) SW 225 ° 0 min 0 W/m² -1,6 °C -8,5 °C 22,5 km/h (4 Bft)
15.01.2024 04:38 21,1 °C 0,0 °C 49 % 89 % 996,9 hPa 0,0 l/m² 19,3 km/h (3 Bft) S-SW 202 ° 0 min 0 W/m² -1,6 °C -9,3 °C 22,5 km/h (4 Bft)
15.01.2024 04:39 21,1 °C -0,1 °C 49 % 89 % 996,9 hPa 0,0 l/m² 19,3 km/h (3 Bft) SW 225 ° 0 min 0 W/m² -1,7 °C -9,4 °C 22,5 km/h (4 Bft)
15.01.2024 04:40 21,1 °C 0,0 °C 49 % 89 % 996,9 hPa 0,0 l/m² 17,7 km/h (3 Bft) SW 225 ° 0 min 0 W/m² -1,6 °C -8,5 °C 24,1 km/h (4 Bft)
15.01.2024 04:41 21,1 °C 0,0 °C 49 % 89 % 996,9 hPa 0,0 l/m² 20,9 km/h (4 Bft) S-SW 202 ° 0 min 0 W/m² -1,6 °C -10,0 °C 25,7 km/h (4 Bft)
15.01.2024 04:42 21,1 °C -0,1 °C 49 % 89 % 996,9 hPa 0,0 l/m² 19,3 km/h (3 Bft) SW 225 ° 0 min 0 W/m² -1,7 °C -9,4 °C 27,4 km/h (5 Bft)
15.01.2024 04:43 21,1 °C 0,0 °C 49 % 89 % 996,9 hPa 0,0 l/m² 20,9 km/h (4 Bft) SW 225 ° 0 min 0 W/m² -1,6 °C -10,0 °C 25,7 km/h (4 Bft)
15.01.2024 04:44 21,1 °C 0,0 °C 49 % 89 % 997,0 hPa 0,0 l/m² 19,3 km/h (3 Bft) SW 225 ° 0 min 0 W/m² -1,6 °C -9,3 °C 25,7 km/h (4 Bft)
15.01.2024 04:45 21,1 °C 0,0 °C 49 % 89 % 997,0 hPa 0,0 l/m² 20,9 km/h (4 Bft) SW 225 ° 0 min 0 W/m² -1,6 °C -10,0 °C 27,4 km/h (5 Bft)
15.01.2024 04:46 21,1 °C 0,1 °C 49 % 89 % 997,0 hPa 0,0 l/m² 20,9 km/h (4 Bft) SW 225 ° 0 min 0 W/m² -1,5 °C -9,9 °C 27,4 km/h (5 Bft)
15.01.2024 04:47 21,1 °C 0,0 °C 49 % 89 % 997,0 hPa 0,0 l/m² 19,3 km/h (3 Bft) SW 225 ° 0 min 0 W/m² -1,6 °C -9,3 °C 25,7 km/h (4 Bft)
15.01.2024 04:53 21,2 °C 0,1 °C 49 % 89 % 997,1 hPa 0,0 l/m² 17,6 km/h (3 Bft) SW 214 ° 0 min 0 W/m² -1,5 °C -8,3 °C 22,5 km/h (4 Bft)
15.01.2024 04:55 21,2 °C 0,1 °C 49 % 89 % 997,0 hPa 0,0 l/m² 17,4 km/h (3 Bft) SW 234 ° 0 min 0 W/m² -1,5 °C -8,2 °C 22,5 km/h (4 Bft)
15.01.2024 04:56 21,2 °C 0,2 °C 49 % 89 % 997,0 hPa 0,0 l/m² 24,5 km/h (4 Bft) S-SW 200 ° 0 min 0 W/m² -1,4 °C -11,3 °C 32,2 km/h (5 Bft)
15.01.2024 04:58 21,2 °C 0,1 °C 49 % 89 % 997,0 hPa 0,0 l/m² 19,3 km/h (3 Bft) S-SW 209 ° 0 min 0 W/m² -1,5 °C -9,2 °C 25,7 km/h (4 Bft)
15.01.2024 04:59 21,2 °C 0,2 °C 49 % 89 % 997,0 hPa 0,0 l/m² 18,0 km/h (3 Bft) SW 222 ° 0 min 0 W/m² -1,4 °C -8,4 °C 24,1 km/h (4 Bft)
15.01.2024 05:01 21,2 °C 0,2 °C 49 % 89 % 996,8 hPa 0,0 l/m² 17,0 km/h (3 Bft) S-SW 197 ° 0 min 0 W/m² -1,4 °C -7,9 °C 22,5 km/h (4 Bft)
15.01.2024 05:02 21,2 °C 0,2 °C 49 % 89 % 996,9 hPa 0,0 l/m² 18,5 km/h (3 Bft) S-SW 196 ° 0 min 0 W/m² -1,4 °C -8,7 °C 22,5 km/h (4 Bft)
15.01.2024 05:04 21,3 °C 0,1 °C 49 % 89 % 996,9 hPa 0,0 l/m² 19,2 km/h (3 Bft) S-SW 211 ° 0 min 0 W/m² -1,5 °C -9,1 °C 22,5 km/h (4 Bft)
15.01.2024 05:06 21,3 °C 0,1 °C 49 % 89 % 996,9 hPa 0,0 l/m² 19,3 km/h (3 Bft) S-SW 208 ° 0 min 0 W/m² -1,5 °C -9,2 °C 35,4 km/h (5 Bft)
15.01.2024 05:08 21,3 °C 0,1 °C 49 % 89 % 996,9 hPa 0,0 l/m² 22,1 km/h (4 Bft) SW 235 ° 0 min 0 W/m² -1,5 °C -10,4 °C 37,0 km/h (5 Bft)
15.01.2024 05:10 21,3 °C 0,2 °C 49 % 89 % 996,9 hPa 0,0 l/m² 22,1 km/h (4 Bft) S-SW 210 ° 0 min 0 W/m² -1,4 °C -10,3 °C 35,4 km/h (5 Bft)
15.01.2024 05:11 21,3 °C 0,2 °C 49 % 89 % 996,8 hPa 0,0 l/m² 17,2 km/h (3 Bft) SW 231 ° 0 min 0 W/m² -1,4 °C -8,0 °C 22,5 km/h (4 Bft)
15.01.2024 05:13 21,3 °C 0,2 °C 49 % 89 % 996,9 hPa 0,0 l/m² 23,0 km/h (4 Bft) W 262 ° 0 min 0 W/m² -1,4 °C -10,7 °C 38,6 km/h (6 Bft)
15.01.2024 05:14 21,3 °C 0,2 °C 49 % 89 % 996,9 hPa 0,0 l/m² 24,8 km/h (4 Bft) SW 217 ° 0 min 0 W/m² -1,4 °C -11,4 °C 32,2 km/h (5 Bft)
15.01.2024 05:16 21,3 °C 0,2 °C 49 % 89 % 996,7 hPa 0,0 l/m² 25,9 km/h (4 Bft) SW 227 ° 0 min 0 W/m² -1,4 °C -11,8 °C 38,6 km/h (6 Bft)
15.01.2024 05:18 21,3 °C 0,3 °C 49 % 89 % 996,7 hPa 0,0 l/m² 26,7 km/h (4 Bft) SW 218 ° 0 min 0 W/m² -1,3 °C -11,9 °C 38,6 km/h (6 Bft)
15.01.2024 05:20 21,3 °C 0,3 °C 49 % 89 % 996,7 hPa 0,0 l/m² 18,7 km/h (3 Bft) SW 219 ° 0 min 0 W/m² -1,3 °C -8,6 °C 24,1 km/h (4 Bft)
15.01.2024 05:21 21,3 °C 0,3 °C 49 % 89 % 996,7 hPa 0,0 l/m² 22,6 km/h (4 Bft) S-SW 207 ° 0 min 0 W/m² -1,3 °C -10,4 °C 35,4 km/h (5 Bft)
15.01.2024 05:23 21,3 °C 0,4 °C 49 % 89 % 996,7 hPa 0,0 l/m² 22,2 km/h (4 Bft) S-SW 213 ° 0 min 0 W/m² -1,2 °C -10,1 °C 30,6 km/h (5 Bft)
15.01.2024 05:24 21,3 °C 0,4 °C 49 % 89 % 996,7 hPa 0,0 l/m² 22,2 km/h (4 Bft) S-SW 213 ° 0 min 0 W/m² -1,2 °C -10,1 °C 27,4 km/h (5 Bft)
15.01.2024 05:26 21,3 °C 0,4 °C 50 % 89 % 996,7 hPa 0,0 l/m² 20,7 km/h (4 Bft) S-SW 207 ° 0 min 0 W/m² -1,2 °C -9,4 °C 30,6 km/h (5 Bft)
15.01.2024 05:28 21,4 °C 0,4 °C 50 % 88 % 996,6 hPa 0,0 l/m² 23,4 km/h (4 Bft) SW 224 ° 0 min 0 W/m² -1,3 °C -10,6 °C 35,4 km/h (5 Bft)
15.01.2024 05:30 21,4 °C 0,4 °C 50 % 88 % 996,7 hPa 0,0 l/m² 26,3 km/h (4 Bft) SW 217 ° 0 min 0 W/m² -1,3 °C -11,6 °C 35,4 km/h (5 Bft)
15.01.2024 05:31 21,4 °C 0,4 °C 50 % 88 % 996,7 hPa 0,0 l/m² 22,4 km/h (4 Bft) S-SW 211 ° 0 min 0 W/m² -1,3 °C -10,2 °C 30,6 km/h (5 Bft)
15.01.2024 05:33 21,3 °C 0,4 °C 50 % 88 % 996,7 hPa 0,0 l/m² 24,6 km/h (4 Bft) S-SW 202 ° 0 min 0 W/m² -1,3 °C -11,0 °C 33,8 km/h (5 Bft)
15.01.2024 05:35 21,4 °C 0,4 °C 50 % 88 % 996,6 hPa 0,0 l/m² 23,8 km/h (4 Bft) S 188 ° 0 min 0 W/m² -1,3 °C -10,7 °C 32,2 km/h (5 Bft)
15.01.2024 05:37 21,3 °C 0,4 °C 49 % 88 % 996,6 hPa 0,0 l/m² 20,9 km/h (4 Bft) SW 219 ° 0 min 0 W/m² -1,3 °C -9,5 °C 29,0 km/h (5 Bft)
15.01.2024 05:39 21,4 °C 0,5 °C 49 % 88 % 996,6 hPa 0,0 l/m² 21,3 km/h (4 Bft) S-SW 211 ° 0 min 0 W/m² -1,3 °C -9,6 °C 29,0 km/h (5 Bft)
15.01.2024 05:41 21,4 °C 0,5 °C 49 % 88 % 996,6 hPa 0,0 l/m² 21,6 km/h (4 Bft) S-SW 193 ° 0 min 0 W/m² -1,3 °C -9,7 °C 30,6 km/h (5 Bft)
15.01.2024 05:42 21,3 °C 0,5 °C 49 % 87 % 996,7 hPa 0,0 l/m² 24,1 km/h (4 Bft) S-SW 198 ° 0 min 0 W/m² -1,4 °C -10,7 °C 32,2 km/h (5 Bft)
15.01.2024 05:43 21,3 °C 0,5 °C 49 % 87 % 996,7 hPa 0,0 l/m² 21,4 km/h (4 Bft) S-SW 212 ° 0 min 0 W/m² -1,4 °C -9,6 °C 27,4 km/h (5 Bft)
15.01.2024 05:45 21,4 °C 0,4 °C 49 % 87 % 996,5 hPa 0,0 l/m² 22,9 km/h (4 Bft) S-SW 213 ° 0 min 0 W/m² -1,5 °C -10,4 °C 33,8 km/h (5 Bft)
15.01.2024 05:47 21,4 °C 0,4 °C 49 % 87 % 996,6 hPa 0,0 l/m² 22,7 km/h (4 Bft) S-SW 207 ° 0 min 0 W/m² -1,5 °C -10,3 °C 30,6 km/h (5 Bft)
15.01.2024 05:49 21,3 °C 0,5 °C 49 % 87 % 996,5 hPa 0,0 l/m² 22,4 km/h (4 Bft) S-SW 207 ° 0 min 0 W/m² -1,4 °C -10,0 °C 29,0 km/h (5 Bft)
15.01.2024 05:50 21,4 °C 0,4 °C 49 % 87 % 996,5 hPa 0,0 l/m² 22,0 km/h (4 Bft) S 182 ° 0 min 0 W/m² -1,5 °C -10,0 °C 27,4 km/h (5 Bft)
15.01.2024 05:52 21,3 °C 0,4 °C 49 % 87 % 996,5 hPa 0,0 l/m² 22,5 km/h (4 Bft) S-SW 192 ° 0 min 0 W/m² -1,5 °C -10,2 °C 29,0 km/h (5 Bft)
15.01.2024 05:53 21,3 °C 0,4 °C 49 % 87 % 996,5 hPa 0,0 l/m² 23,4 km/h (4 Bft) S-SW 208 ° 0 min 0 W/m² -1,5 °C -10,6 °C 27,4 km/h (5 Bft)
15.01.2024 05:54 21,3 °C 0,4 °C 49 % 87 % 996,5 hPa 0,0 l/m² 22,7 km/h (4 Bft) S-SW 200 ° 0 min 0 W/m² -1,5 °C -10,3 °C 25,7 km/h (4 Bft)
15.01.2024 05:56 21,3 °C 0,4 °C 49 % 87 % 996,6 hPa 0,0 l/m² 21,9 km/h (4 Bft) SW 214 ° 0 min 0 W/m² -1,5 °C -10,0 °C 27,4 km/h (5 Bft)
15.01.2024 05:58 21,3 °C 0,4 °C 49 % 87 % 996,5 hPa 0,0 l/m² 21,9 km/h (4 Bft) S-SW 198 ° 0 min 0 W/m² -1,5 °C -10,0 °C 27,4 km/h (5 Bft)
15.01.2024 06:00 21,4 °C 0,4 °C 49 % 87 % 996,5 hPa 0,0 l/m² 21,3 km/h (4 Bft) S-SW 209 ° 0 min 0 W/m² -1,5 °C -9,7 °C 25,7 km/h (4 Bft)
15.01.2024 06:01 21,3 °C 0,4 °C 49 % 87 % 996,6 hPa 0,0 l/m² 17,9 km/h (3 Bft) S-SW 212 ° 0 min 0 W/m² -1,5 °C -8,1 °C 22,5 km/h (4 Bft)
15.01.2024 06:03 21,3 °C 0,4 °C 49 % 87 % 996,6 hPa 0,0 l/m² 21,0 km/h (4 Bft) S-SW 209 ° 0 min 0 W/m² -1,5 °C -9,6 °C 29,0 km/h (5 Bft)
15.01.2024 06:04 21,3 °C 0,4 °C 49 % 87 % 996,6 hPa 0,0 l/m² 17,8 km/h (3 Bft) SW 225 ° 0 min 0 W/m² -1,5 °C -8,0 °C 22,5 km/h (4 Bft)
15.01.2024 06:05 21,3 °C 0,4 °C 49 % 87 % 996,6 hPa 0,0 l/m² 21,7 km/h (4 Bft) SW 220 ° 0 min 0 W/m² -1,5 °C -9,9 °C 32,2 km/h (5 Bft)
15.01.2024 06:07 21,3 °C 0,4 °C 49 % 87 % 996,6 hPa 0,0 l/m² 19,2 km/h (3 Bft) S-SW 198 ° 0 min 0 W/m² -1,5 °C -8,7 °C 27,4 km/h (5 Bft)
15.01.2024 06:09 21,3 °C 0,4 °C 49 % 87 % 996,6 hPa 0,0 l/m² 22,1 km/h (4 Bft) SW 228 ° 0 min 0 W/m² -1,5 °C -10,0 °C 30,6 km/h (5 Bft)
15.01.2024 06:11 21,4 °C 0,4 °C 49 % 87 % 996,6 hPa 0,0 l/m² 19,6 km/h (3 Bft) S-SW 204 ° 0 min 0 W/m² -1,5 °C -8,9 °C 25,7 km/h (4 Bft)
15.01.2024 06:12 21,3 °C 0,4 °C 49 % 87 % 996,6 hPa 0,0 l/m² 20,1 km/h (4 Bft) S-SW 196 ° 0 min 0 W/m² -1,5 °C -9,2 °C 25,7 km/h (4 Bft)
15.01.2024 06:13 21,3 °C 0,4 °C 49 % 87 % 996,5 hPa 0,0 l/m² 17,6 km/h (3 Bft) S-SW 212 ° 0 min 0 W/m² -1,5 °C -7,9 °C 22,5 km/h (4 Bft)
15.01.2024 06:15 21,3 °C 0,4 °C 49 % 86 % 996,6 hPa 0,0 l/m² 19,4 km/h (3 Bft) S-SW 202 ° 0 min 0 W/m² -1,7 °C -8,8 °C 27,4 km/h (5 Bft)
15.01.2024 06:17 21,3 °C 0,4 °C 49 % 86 % 996,5 hPa 0,0 l/m² 15,5 km/h (3 Bft) S-SW 193 ° 0 min 0 W/m² -1,7 °C -6,8 °C 22,5 km/h (4 Bft)
15.01.2024 06:18 21,4 °C 0,4 °C 50 % 86 % 996,6 hPa 0,0 l/m² 16,0 km/h (3 Bft) S-SW 212 ° 0 min 0 W/m² -1,7 °C -7,1 °C 19,3 km/h (3 Bft)
15.01.2024 06:20 21,3 °C 0,4 °C 50 % 86 % 996,6 hPa 0,0 l/m² 18,8 km/h (3 Bft) SW 223 ° 0 min 0 W/m² -1,7 °C -8,5 °C 24,1 km/h (4 Bft)
15.01.2024 06:21 21,4 °C 0,4 °C 49 % 86 % 996,5 hPa 0,0 l/m² 20,6 km/h (4 Bft) S-SW 209 ° 0 min 0 W/m² -1,7 °C -9,4 °C 25,7 km/h (4 Bft)
15.01.2024 06:23 21,4 °C 0,4 °C 49 % 86 % 996,6 hPa 0,0 l/m² 18,5 km/h (3 Bft) SW 223 ° 0 min 0 W/m² -1,7 °C -8,4 °C 25,7 km/h (4 Bft)
15.01.2024 06:24 21,4 °C 0,4 °C 50 % 86 % 996,4 hPa 0,0 l/m² 20,9 km/h (4 Bft) S-SW 209 ° 0 min 0 W/m² -1,7 °C -9,5 °C 27,4 km/h (5 Bft)
15.01.2024 06:26 21,4 °C 0,4 °C 50 % 86 % 996,5 hPa 0,0 l/m² 21,9 km/h (4 Bft) S-SW 205 ° 0 min 0 W/m² -1,7 °C -10,0 °C 29,0 km/h (5 Bft)
15.01.2024 06:28 21,4 °C 0,4 °C 50 % 86 % 996,6 hPa 0,0 l/m² 20,7 km/h (4 Bft) SW 219 ° 0 min 0 W/m² -1,7 °C -9,4 °C 30,6 km/h (5 Bft)
15.01.2024 06:30 21,4 °C 0,4 °C 50 % 86 % 996,6 hPa 0,0 l/m² 21,7 km/h (4 Bft) S-SW 212 ° 0 min 0 W/m² -1,7 °C -9,9 °C 32,2 km/h (5 Bft)
15.01.2024 06:31 21,4 °C 0,5 °C 50 % 86 % 996,5 hPa 0,0 l/m² 20,4 km/h (4 Bft) SW 222 ° 0 min 0 W/m² -1,6 °C -9,2 °C 27,4 km/h (5 Bft)
15.01.2024 06:33 21,4 °C 0,6 °C 50 % 86 % 996,5 hPa 0,0 l/m² 23,9 km/h (4 Bft) SW 215 ° 0 min 0 W/m² -1,5 °C -10,5 °C 29,0 km/h (5 Bft)
15.01.2024 06:34 21,4 °C 0,6 °C 50 % 86 % 996,5 hPa 0,0 l/m² 22,7 km/h (4 Bft) SW 229 ° 0 min 0 W/m² -1,5 °C -10,0 °C 29,0 km/h (5 Bft)
15.01.2024 06:35 21,4 °C 0,6 °C 50 % 86 % 996,4 hPa 0,0 l/m² 27,6 km/h (5 Bft) SW 222 ° 0 min 0 W/m² -1,5 °C -11,8 °C 40,2 km/h (6 Bft)
15.01.2024 06:37 21,4 °C 0,6 °C 50 % 86 % 996,4 hPa 0,0 l/m² 24,9 km/h (4 Bft) S-SW 212 ° 0 min 0 W/m² -1,5 °C -10,9 °C 40,2 km/h (6 Bft)
15.01.2024 06:39 21,4 °C 0,6 °C 50 % 86 % 996,3 hPa 0,0 l/m² 24,2 km/h (4 Bft) S-SW 213 ° 0 min 0 W/m² -1,5 °C -10,6 °C 45,1 km/h (6 Bft)
15.01.2024 06:41 21,4 °C 0,7 °C 50 % 85 % 996,3 hPa 0,0 l/m² 29,8 km/h (5 Bft) S-SW 213 ° 0 min 0 W/m² -1,5 °C -12,4 °C 46,7 km/h (6 Bft)
15.01.2024 06:42 21,4 °C 0,7 °C 50 % 85 % 996,4 hPa 0,0 l/m² 20,6 km/h (4 Bft) S-SW 201 ° 0 min 0 W/m² -1,5 °C -9,0 °C 29,0 km/h (5 Bft)
15.01.2024 06:43 21,4 °C 0,7 °C 50 % 85 % 996,3 hPa 0,0 l/m² 24,8 km/h (4 Bft) SW 230 ° 0 min 0 W/m² -1,5 °C -10,7 °C 33,8 km/h (5 Bft)
15.01.2024 06:45 21,4 °C 0,7 °C 50 % 85 % 996,3 hPa 0,0 l/m² 27,6 km/h (5 Bft) SW 233 ° 0 min 0 W/m² -1,5 °C -11,7 °C 37,0 km/h (5 Bft)
15.01.2024 06:47 21,4 °C 0,7 °C 50 % 85 % 996,5 hPa 0,0 l/m² 24,7 km/h (4 Bft) SW 222 ° 0 min 0 W/m² -1,5 °C -10,7 °C 32,2 km/h (5 Bft)
15.01.2024 06:48 21,4 °C 0,7 °C 49 % 85 % 996,5 hPa 0,0 l/m² 24,7 km/h (4 Bft) SW 230 ° 0 min 0 W/m² -1,5 °C -10,7 °C 33,8 km/h (5 Bft)
15.01.2024 06:50 21,4 °C 0,8 °C 48 % 85 % 996,4 hPa 0,0 l/m² 29,6 km/h (5 Bft) S-SW 200 ° 0 min 0 W/m² -1,4 °C -12,2 °C 40,2 km/h (6 Bft)
15.01.2024 06:51 21,4 °C 0,7 °C 49 % 85 % 996,4 hPa 0,0 l/m² 26,2 km/h (4 Bft) SW 215 ° 0 min 0 W/m² -1,5 °C -11,2 °C 35,4 km/h (5 Bft)
15.01.2024 06:53 21,4 °C 0,7 °C 49 % 85 % 996,5 hPa 0,0 l/m² 25,2 km/h (4 Bft) SW 232 ° 0 min 0 W/m² -1,5 °C -10,8 °C 33,8 km/h (5 Bft)
15.01.2024 06:54 21,4 °C 0,8 °C 49 % 85 % 996,5 hPa 0,0 l/m² 26,7 km/h (4 Bft) SW 223 ° 0 min 0 W/m² -1,4 °C -11,2 °C 33,8 km/h (5 Bft)
15.01.2024 06:56 21,4 °C 0,8 °C 49 % 85 % 996,4 hPa 0,0 l/m² 24,7 km/h (4 Bft) S-SW 205 ° 0 min 0 W/m² -1,4 °C -10,5 °C 32,2 km/h (5 Bft)
15.01.2024 06:58 21,4 °C 0,8 °C 49 % 85 % 996,6 hPa 0,0 l/m² 20,1 km/h (4 Bft) W 259 ° 0 min 0 W/m² -1,4 °C -8,6 °C 32,2 km/h (5 Bft)
15.01.2024 06:59 21,4 °C 0,8 °C 48 % 85 % 996,6 hPa 0,0 l/m² 26,7 km/h (4 Bft) SW 221 ° 0 min 0 W/m² -1,4 °C -11,2 °C 35,4 km/h (5 Bft)
15.01.2024 07:01 21,4 °C 0,8 °C 48 % 85 % 996,6 hPa 0,0 l/m² 25,4 km/h (4 Bft) SW 223 ° 0 min 0 W/m² -1,4 °C -10,8 °C 32,2 km/h (5 Bft)
15.01.2024 07:02 21,4 °C 0,8 °C 48 % 85 % 996,7 hPa 0,0 l/m² 28,5 km/h (5 Bft) S-SW 210 ° 0 min 0 W/m² -1,4 °C -11,8 °C 37,0 km/h (5 Bft)
15.01.2024 07:03 21,4 °C 0,8 °C 48 % 85 % 996,6 hPa 0,0 l/m² 23,1 km/h (4 Bft) SW 224 ° 0 min 0 W/m² -1,4 °C -9,9 °C 29,0 km/h (5 Bft)
15.01.2024 07:05 21,4 °C 0,8 °C 48 % 85 % 996,6 hPa 0,0 l/m² 26,3 km/h (4 Bft) SW 223 ° 0 min 0 W/m² -1,4 °C -11,1 °C 33,8 km/h (5 Bft)
15.01.2024 07:06 21,4 °C 0,8 °C 48 % 85 % 996,6 hPa 0,0 l/m² 21,9 km/h (4 Bft) SW 223 ° 0 min 0 W/m² -1,4 °C -9,4 °C 29,0 km/h (5 Bft)
15.01.2024 07:08 21,4 °C 0,8 °C 48 % 85 % 996,6 hPa 0,0 l/m² 23,5 km/h (4 Bft) SW 223 ° 0 min 0 W/m² -1,4 °C -10,1 °C 33,8 km/h (5 Bft)
15.01.2024 07:10 21,3 °C 0,7 °C 48 % 85 % 996,7 hPa 0,0 l/m² 24,4 km/h (4 Bft) SW 236 ° 0 min 0 W/m² -1,5 °C -10,5 °C 32,2 km/h (5 Bft)
15.01.2024 07:11 21,4 °C 0,7 °C 48 % 85 % 996,7 hPa 0,0 l/m² 23,9 km/h (4 Bft) SW 223 ° 0 min 0 W/m² -1,5 °C -10,4 °C 32,2 km/h (5 Bft)
15.01.2024 07:13 21,4 °C 0,7 °C 48 % 85 % 996,5 hPa 0,0 l/m² 26,1 km/h (4 Bft) SW 217 ° 0 min 0 W/m² -1,5 °C -11,2 °C 38,6 km/h (6 Bft)
15.01.2024 07:14 21,4 °C 0,7 °C 48 % 85 % 996,7 hPa 0,0 l/m² 29,4 km/h (5 Bft) S-SW 211 ° 0 min 0 W/m² -1,5 °C -12,2 °C 38,6 km/h (6 Bft)
15.01.2024 07:16 21,4 °C 0,7 °C 48 % 85 % 996,7 hPa 0,0 l/m² 30,1 km/h (5 Bft) SW 215 ° 0 min 0 W/m² -1,5 °C -12,5 °C 41,8 km/h (6 Bft)
15.01.2024 07:18 21,4 °C 0,7 °C 48 % 85 % 996,5 hPa 0,0 l/m² 28,9 km/h (5 Bft) SW 220 ° 0 min 0 W/m² -1,5 °C -12,1 °C 49,9 km/h (7 Bft)
15.01.2024 07:20 21,4 °C 0,7 °C 48 % 85 % 996,5 hPa 0,0 l/m² 23,6 km/h (4 Bft) SW 217 ° 0 min 0 W/m² -1,5 °C -10,2 °C 35,4 km/h (5 Bft)
15.01.2024 07:21 21,4 °C 0,6 °C 48 % 85 % 996,4 hPa 0,0 l/m² 28,5 km/h (5 Bft) S-SW 204 ° 0 min 0 W/m² -1,6 °C -12,1 °C 35,4 km/h (5 Bft)
15.01.2024 07:23 21,4 °C 0,6 °C 48 % 85 % 996,4 hPa 0,0 l/m² 28,9 km/h (5 Bft) SW 226 ° 0 min 0 W/m² -1,6 °C -12,2 °C 38,6 km/h (6 Bft)
15.01.2024 07:24 21,4 °C 0,6 °C 48 % 85 % 996,4 hPa 0,0 l/m² 32,3 km/h (5 Bft) SW 219 ° 0 min 0 W/m² -1,6 °C -13,2 °C 40,2 km/h (6 Bft)
15.01.2024 07:26 21,4 °C 0,6 °C 48 % 86 % 996,4 hPa 0,0 l/m² 29,3 km/h (5 Bft) S-SW 205 ° 0 min 0 W/m² -1,5 °C -12,4 °C 38,6 km/h (6 Bft)
15.01.2024 07:28 21,4 °C 0,6 °C 48 % 86 % 996,4 hPa 0,0 l/m² 24,2 km/h (4 Bft) S-SW 211 ° 0 min 0 W/m² -1,5 °C -10,6 °C 41,8 km/h (6 Bft)
15.01.2024 07:30 21,4 °C 0,6 °C 48 % 86 % 996,4 hPa 0,0 l/m² 34,3 km/h (5 Bft) SW 219 ° 0 min 0 W/m² -1,5 °C -13,7 °C 45,1 km/h (6 Bft)
15.01.2024 07:31 21,4 °C 0,6 °C 48 % 86 % 996,5 hPa 0,0 l/m² 28,6 km/h (5 Bft) S-SW 205 ° 0 min 0 W/m² -1,5 °C -12,1 °C 37,0 km/h (5 Bft)
15.01.2024 07:33 21,4 °C 0,6 °C 48 % 86 % 996,5 hPa 0,0 l/m² 31,4 km/h (5 Bft) S-SW 213 ° 0 min 0 W/m² -1,5 °C -13,0 °C 41,8 km/h (6 Bft)
15.01.2024 07:35 21,4 °C 0,6 °C 48 % 86 % 996,6 hPa 0,0 l/m² 32,6 km/h (5 Bft) W 264 ° 0 min 0 W/m² -1,5 °C -13,3 °C 38,6 km/h (6 Bft)
15.01.2024 07:37 21,4 °C 0,6 °C 48 % 86 % 996,5 hPa 0,0 l/m² 25,0 km/h (4 Bft) SW 215 ° 0 min 0 W/m² -1,5 °C -10,9 °C 33,8 km/h (5 Bft)
15.01.2024 07:39 21,4 °C 0,6 °C 48 % 86 % 996,6 hPa 0,0 l/m² 30,5 km/h (5 Bft) SW 223 ° 0 min 0 W/m² -1,5 °C -12,7 °C 43,5 km/h (6 Bft)
15.01.2024 07:41 21,4 °C 0,6 °C 48 % 86 % 996,6 hPa 0,0 l/m² 30,0 km/h (5 Bft) SW 219 ° 0 min 0 W/m² -1,5 °C -12,6 °C 41,8 km/h (6 Bft)
15.01.2024 07:42 21,4 °C 0,6 °C 48 % 86 % 996,6 hPa 0,0 l/m² 25,7 km/h (4 Bft) SW 217 ° 0 min 0 W/m² -1,5 °C -11,2 °C 32,2 km/h (5 Bft)
15.01.2024 07:43 21,4 °C 0,6 °C 48 % 86 % 996,5 hPa 0,0 l/m² 27,9 km/h (5 Bft) SW 216 ° 0 min 0 W/m² -1,5 °C -11,9 °C 37,0 km/h (5 Bft)
15.01.2024 07:45 21,4 °C 0,6 °C 48 % 86 % 996,5 hPa 0,0 l/m² 27,5 km/h (5 Bft) S-SW 213 ° 0 min 0 W/m² -1,5 °C -11,8 °C 33,8 km/h (5 Bft)
15.01.2024 07:47 21,4 °C 0,6 °C 48 % 86 % 996,5 hPa 0,0 l/m² 25,7 km/h (4 Bft) SW 229 ° 0 min 0 W/m² -1,5 °C -11,2 °C 35,4 km/h (5 Bft)
15.01.2024 07:49 21,4 °C 0,5 °C 48 % 86 % 996,5 hPa 0,0 l/m² 29,5 km/h (5 Bft) SW 223 ° 0 min 0 W/m² -1,6 °C -12,6 °C 38,6 km/h (6 Bft)
15.01.2024 07:51 21,4 °C 0,5 °C 48 % 86 % 996,6 hPa 0,0 l/m² 23,5 km/h (4 Bft) S-SW 211 ° 0 min 0 W/m² -1,6 °C -10,5 °C 32,2 km/h (5 Bft)
15.01.2024 07:52 21,4 °C 0,5 °C 48 % 86 % 996,5 hPa 0,0 l/m² 23,8 km/h (4 Bft) SW 227 ° 0 min 0 W/m² -1,6 °C -10,6 °C 32,2 km/h (5 Bft)
15.01.2024 07:53 21,4 °C 0,5 °C 48 % 86 % 996,5 hPa 0,0 l/m² 26,0 km/h (4 Bft) S-SW 203 ° 0 min 0 W/m² -1,6 °C -11,4 °C 33,8 km/h (5 Bft)
15.01.2024 07:55 21,4 °C 0,5 °C 48 % 86 % 996,5 hPa 0,0 l/m² 24,5 km/h (4 Bft) SW 221 ° 0 min 0 W/m² -1,6 °C -10,9 °C 32,2 km/h (5 Bft)
15.01.2024 07:57 21,4 °C 0,5 °C 48 % 86 % 996,5 hPa 0,0 l/m² 27,2 km/h (5 Bft) W-SW 242 ° 0 min 0 W/m² -1,6 °C -11,8 °C 41,8 km/h (6 Bft)
15.01.2024 07:59 21,4 °C 0,4 °C 48 % 86 % 996,5 hPa 0,0 l/m² 27,8 km/h (5 Bft) S-SW 210 ° 0 min 0 W/m² -1,7 °C -12,2 °C 32,2 km/h (5 Bft)
15.01.2024 08:00 21,4 °C 0,5 °C 48 % 86 % 996,5 hPa 0,0 l/m² 24,9 km/h (4 Bft) SW 214 ° 0 min 0 W/m² -1,6 °C -11,0 °C 32,2 km/h (5 Bft)
15.01.2024 08:02 21,4 °C 0,4 °C 48 % 86 % 996,6 hPa 0,0 l/m² 20,6 km/h (4 Bft) S-SW 210 ° 0 min 0 W/m² -1,7 °C -9,4 °C 32,2 km/h (5 Bft)
15.01.2024 08:04 21,4 °C 0,4 °C 48 % 86 % 996,6 hPa 0,0 l/m² 24,5 km/h (4 Bft) SW 221 ° 0 min 0 W/m² -1,7 °C -11,0 °C 30,6 km/h (5 Bft)
15.01.2024 08:06 21,4 °C 0,4 °C 48 % 86 % 996,6 hPa 0,0 l/m² 24,6 km/h (4 Bft) SW 221 ° 0 min 0 W/m² -1,7 °C -11,0 °C 32,2 km/h (5 Bft)
15.01.2024 08:08 21,4 °C 0,4 °C 48 % 86 % 996,6 hPa 0,0 l/m² 27,6 km/h (5 Bft) SW 220 ° 0 min 0 W/m² -1,7 °C -12,1 °C 37,0 km/h (5 Bft)
15.01.2024 08:10 21,4 °C 0,5 °C 48 % 86 % 996,6 hPa 0,0 l/m² 22,5 km/h (4 Bft) S-SW 211 ° 0 min 0 W/m² -1,6 °C -10,1 °C 32,2 km/h (5 Bft)
15.01.2024 08:11 21,4 °C 0,5 °C 48 % 86 % 996,6 hPa 0,0 l/m² 17,9 km/h (3 Bft) SW 224 ° 0 min 0 W/m² -1,6 °C -8,0 °C 27,4 km/h (5 Bft)
15.01.2024 08:13 21,4 °C 0,5 °C 48 % 87 % 996,6 hPa 0,0 l/m² 21,5 km/h (4 Bft) SW 225 ° 0 min 0 W/m² -1,4 °C -9,7 °C 32,2 km/h (5 Bft)
15.01.2024 08:15 21,4 °C 0,4 °C 48 % 87 % 996,7 hPa 0,0 l/m² 17,5 km/h (3 Bft) S-SW 211 ° 0 min 0 W/m² -1,5 °C -7,9 °C 22,5 km/h (4 Bft)
15.01.2024 08:17 21,4 °C 0,4 °C 48 % 87 % 996,7 hPa 0,0 l/m² 18,9 km/h (3 Bft) SW 221 ° 0 min 0 W/m² -1,5 °C -8,6 °C 25,7 km/h (4 Bft)
15.01.2024 08:19 21,4 °C 0,4 °C 48 % 87 % 996,6 hPa 0,0 l/m² 22,5 km/h (4 Bft) SW 226 ° 0 min 0 W/m² -1,5 °C -10,2 °C 35,4 km/h (5 Bft)
15.01.2024 08:21 21,4 °C 0,4 °C 48 % 87 % 996,6 hPa 0,0 l/m² 19,7 km/h (3 Bft) SW 214 ° 0 min 0 W/m² -1,5 °C -9,0 °C 25,7 km/h (4 Bft)
15.01.2024 08:22 21,4 °C 0,4 °C 48 % 87 % 996,5 hPa 0,0 l/m² 16,2 km/h (3 Bft) S-SW 212 ° 0 min 5 W/m² -1,5 °C -7,2 °C 22,5 km/h (4 Bft)
15.01.2024 08:23 21,4 °C 0,4 °C 48 % 87 % 996,6 hPa 0,0 l/m² 15,2 km/h (3 Bft) SW 223 ° 0 min 5 W/m² -1,5 °C -6,6 °C 27,4 km/h (5 Bft)
15.01.2024 08:25 21,4 °C 0,3 °C 48 % 87 % 996,6 hPa 0,0 l/m² 21,2 km/h (4 Bft) SW 225 ° 0 min 5 W/m² -1,6 °C -9,8 °C 27,4 km/h (5 Bft)
15.01.2024 08:27 21,4 °C 0,3 °C 48 % 87 % 996,6 hPa 0,0 l/m² 22,1 km/h (4 Bft) S-SW 213 ° 0 min 7 W/m² -1,6 °C -10,2 °C 27,4 km/h (5 Bft)
15.01.2024 08:29 21,4 °C 0,2 °C 48 % 87 % 996,6 hPa 0,0 l/m² 16,5 km/h (3 Bft) S-SW 205 ° 0 min 7 W/m² -1,7 °C -7,6 °C 24,1 km/h (4 Bft)
15.01.2024 08:31 21,3 °C 0,2 °C 48 % 87 % 996,6 hPa 0,0 l/m² 16,7 km/h (3 Bft) SW 217 ° 0 min 9 W/m² -1,7 °C -7,7 °C 22,5 km/h (4 Bft)
15.01.2024 08:32 21,4 °C 0,2 °C 48 % 87 % 996,7 hPa 0,0 l/m² 16,4 km/h (3 Bft) SW 217 ° 0 min 9 W/m² -1,7 °C -7,5 °C 20,9 km/h (4 Bft)
15.01.2024 08:33 21,4 °C 0,2 °C 48 % 87 % 996,6 hPa 0,0 l/m² 23,3 km/h (4 Bft) SW 225 ° 0 min 9 W/m² -1,7 °C -10,8 °C 27,4 km/h (5 Bft)
15.01.2024 08:35 21,3 °C 0,2 °C 48 % 87 % 996,6 hPa 0,0 l/m² 16,3 km/h (3 Bft) SW 215 ° 0 min 11 W/m² -1,7 °C -7,5 °C 24,1 km/h (4 Bft)
15.01.2024 08:37 21,4 °C 0,1 °C 48 % 87 % 996,7 hPa 0,0 l/m² 15,8 km/h (3 Bft) SW 221 ° 0 min 12 W/m² -1,8 °C -7,3 °C 19,3 km/h (3 Bft)
15.01.2024 08:39 21,4 °C 0,2 °C 48 % 87 % 996,7 hPa 0,0 l/m² 19,1 km/h (3 Bft) SW 223 ° 0 min 18 W/m² -1,7 °C -8,9 °C 27,4 km/h (5 Bft)
15.01.2024 08:41 21,4 °C 0,2 °C 48 % 87 % 996,7 hPa 0,0 l/m² 16,5 km/h (3 Bft) S-SW 211 ° 0 min 21 W/m² -1,7 °C -7,6 °C 20,9 km/h (4 Bft)
15.01.2024 08:42 21,3 °C 0,2 °C 48 % 87 % 996,7 hPa 0,0 l/m² 17,2 km/h (3 Bft) S-SW 209 ° 0 min 25 W/m² -1,7 °C -8,0 °C 20,9 km/h (4 Bft)
15.01.2024 08:43 21,3 °C 0,2 °C 48 % 87 % 996,8 hPa 0,0 l/m² 19,2 km/h (3 Bft) SW 215 ° 0 min 28 W/m² -1,7 °C -9,0 °C 25,7 km/h (4 Bft)
15.01.2024 08:45 21,4 °C 0,2 °C 48 % 87 % 996,7 hPa 0,0 l/m² 19,0 km/h (3 Bft) SW 234 ° 0 min 26 W/m² -1,7 °C -8,9 °C 25,7 km/h (4 Bft)
15.01.2024 08:47 21,4 °C 0,2 °C 48 % 87 % 996,7 hPa 0,0 l/m² 17,0 km/h (3 Bft) S-SW 211 ° 0 min 18 W/m² -1,7 °C -7,9 °C 22,5 km/h (4 Bft)
15.01.2024 08:49 21,4 °C 0,2 °C 48 % 87 % 996,7 hPa 0,0 l/m² 16,2 km/h (3 Bft) SW 216 ° 0 min 18 W/m² -1,7 °C -7,4 °C 20,9 km/h (4 Bft)
15.01.2024 08:51 21,4 °C 0,2 °C 48 % 87 % 996,7 hPa 0,0 l/m² 16,4 km/h (3 Bft) SW 225 ° 0 min 21 W/m² -1,7 °C -7,5 °C 20,9 km/h (4 Bft)
15.01.2024 08:52 21,4 °C 0,2 °C 48 % 87 % 996,6 hPa 0,0 l/m² 16,0 km/h (3 Bft) SW 221 ° 0 min 26 W/m² -1,7 °C -7,3 °C 20,9 km/h (4 Bft)
15.01.2024 08:53 21,4 °C 0,1 °C 48 % 87 % 996,6 hPa 0,0 l/m² 21,2 km/h (4 Bft) SW 236 ° 0 min 26 W/m² -1,8 °C -10,0 °C 29,0 km/h (5 Bft)
15.01.2024 08:55 21,4 °C 0,2 °C 48 % 87 % 996,6 hPa 0,0 l/m² 19,4 km/h (3 Bft) SW 219 ° 0 min 35 W/m² -1,7 °C -9,1 °C 24,1 km/h (4 Bft)
15.01.2024 08:57 21,4 °C 0,1 °C 48 % 87 % 996,7 hPa 0,0 l/m² 17,3 km/h (3 Bft) SW 219 ° 0 min 51 W/m² -1,8 °C -8,2 °C 29,0 km/h (5 Bft)
15.01.2024 08:59 21,4 °C 0,2 °C 48 % 87 % 996,7 hPa 0,0 l/m² 22,9 km/h (4 Bft) SW 223 ° 2 min 62 W/m² -1,7 °C -10,6 °C 30,6 km/h (5 Bft)
15.01.2024 09:01 21,4 °C 0,3 °C 48 % 87 % 996,7 hPa 0,0 l/m² 24,1 km/h (4 Bft) SW 223 ° 2 min 60 W/m² -1,6 °C -11,0 °C 37,0 km/h (5 Bft)
15.01.2024 09:02 21,6 °C 0,4 °C 48 % 87 % 996,7 hPa 0,0 l/m² 22,4 km/h (4 Bft) SW 225 ° 1 min 63 W/m² -1,5 °C -10,2 °C 29,0 km/h (5 Bft)
15.01.2024 09:03 21,6 °C 0,4 °C 48 % 87 % 996,7 hPa 0,0 l/m² 23,0 km/h (4 Bft) W-SW 244 ° 1 min 70 W/m² -1,5 °C -10,4 °C 30,6 km/h (5 Bft)
15.01.2024 09:05 21,9 °C 0,5 °C 47 % 87 % 996,7 hPa 0,0 l/m² 22,7 km/h (4 Bft) W-SW 253 ° 2 min 70 W/m² -1,4 °C -10,2 °C 32,2 km/h (5 Bft)
15.01.2024 09:07 22,1 °C 0,6 °C 47 % 87 % 996,7 hPa 0,0 l/m² 20,3 km/h (4 Bft) SW 217 ° 2 min 65 W/m² -1,3 °C -9,0 °C 27,4 km/h (5 Bft)
15.01.2024 09:09 22,2 °C 0,6 °C 47 % 87 % 996,6 hPa 0,0 l/m² 22,8 km/h (4 Bft) W-SW 248 ° 0 min 46 W/m² -1,3 °C -10,1 °C 30,6 km/h (5 Bft)
15.01.2024 09:11 22,2 °C 0,6 °C 47 % 87 % 996,6 hPa 0,0 l/m² 27,6 km/h (5 Bft) S-SW 203 ° 0 min 39 W/m² -1,3 °C -11,8 °C 37,0 km/h (5 Bft)
15.01.2024 09:12 22,2 °C 0,6 °C 47 % 87 % 996,6 hPa 0,0 l/m² 23,8 km/h (4 Bft) SW 234 ° 0 min 42 W/m² -1,3 °C -10,5 °C 32,2 km/h (5 Bft)
15.01.2024 09:13 22,2 °C 0,6 °C 47 % 87 % 996,6 hPa 0,0 l/m² 26,2 km/h (4 Bft) S-SW 213 ° 1 min 65 W/m² -1,3 °C -11,3 °C 37,0 km/h (5 Bft)
15.01.2024 09:15 22,1 °C 0,6 °C 47 % 87 % 996,7 hPa 0,0 l/m² 22,5 km/h (4 Bft) W-SW 250 ° 2 min 63 W/m² -1,3 °C -9,9 °C 30,6 km/h (5 Bft)
15.01.2024 09:17 22,1 °C 0,6 °C 47 % 87 % 996,6 hPa 0,0 l/m² 27,1 km/h (5 Bft) SW 225 ° 2 min 70 W/m² -1,3 °C -11,6 °C 38,6 km/h (6 Bft)
15.01.2024 09:19 22,1 °C 0,5 °C 47 % 87 % 996,7 hPa 0,0 l/m² 27,9 km/h (5 Bft) SW 216 ° 2 min 65 W/m² -1,4 °C -12,0 °C 35,4 km/h (5 Bft)
15.01.2024 09:21 22,1 °C 0,6 °C 47 % 87 % 996,7 hPa 0,0 l/m² 22,5 km/h (4 Bft) SW 225 ° 2 min 84 W/m² -1,3 °C -9,9 °C 29,0 km/h (5 Bft)
15.01.2024 09:22 22,1 °C 0,5 °C 47 % 87 % 996,8 hPa 0,0 l/m² 29,8 km/h (5 Bft) S-SW 201 ° 1 min 84 W/m² -1,4 °C -12,6 °C 40,2 km/h (6 Bft)
15.01.2024 09:23 22,1 °C 0,6 °C 47 % 87 % 996,8 hPa 0,0 l/m² 23,0 km/h (4 Bft) SW 228 ° 1 min 86 W/m² -1,3 °C -10,1 °C 33,8 km/h (5 Bft)
15.01.2024 09:25 22,1 °C 0,6 °C 47 % 87 % 996,6 hPa 0,0 l/m² 23,4 km/h (4 Bft) SW 232 ° 2 min 90 W/m² -1,3 °C -10,3 °C 37,0 km/h (5 Bft)
15.01.2024 09:27 22,1 °C 0,7 °C 47 % 87 % 996,6 hPa 0,0 l/m² 23,9 km/h (4 Bft) S-SW 207 ° 2 min 88 W/m² -1,2 °C -10,4 °C 35,4 km/h (5 Bft)
15.01.2024 09:29 22,1 °C 0,7 °C 47 % 87 % 996,7 hPa 0,0 l/m² 22,4 km/h (4 Bft) SW 232 ° 2 min 95 W/m² -1,2 °C -9,8 °C 35,4 km/h (5 Bft)
15.01.2024 09:30 22,1 °C 0,7 °C 47 % 87 % 996,7 hPa 0,0 l/m² 23,2 km/h (4 Bft) S-SW 200 ° 1 min 100 W/m² -1,2 °C -10,1 °C 33,8 km/h (5 Bft)
15.01.2024 09:32 22,1 °C 0,7 °C 47 % 87 % 996,7 hPa 0,0 l/m² 26,7 km/h (4 Bft) SW 221 ° 2 min 107 W/m² -1,2 °C -11,4 °C 38,6 km/h (6 Bft)
15.01.2024 09:33 22,1 °C 0,7 °C 47 % 86 % 996,7 hPa 0,0 l/m² 28,3 km/h (5 Bft) S-SW 213 ° 1 min 111 W/m² -1,4 °C -11,9 °C 37,0 km/h (5 Bft)
15.01.2024 09:34 22,1 °C 0,8 °C 47 % 87 % 996,7 hPa 0,0 l/m² 30,4 km/h (5 Bft) SW 216 ° 1 min 114 W/m² -1,1 °C -12,4 °C 45,1 km/h (6 Bft)
15.01.2024 09:36 22,1 °C 0,8 °C 47 % 86 % 996,6 hPa 0,0 l/m² 29,2 km/h (5 Bft) SW 236 ° 2 min 123 W/m² -1,3 °C -12,0 °C 40,2 km/h (6 Bft)
15.01.2024 09:38 22,1 °C 0,8 °C 47 % 86 % 996,7 hPa 0,0 l/m² 26,4 km/h (4 Bft) S-SW 209 ° 2 min 128 W/m² -1,3 °C -11,1 °C 38,6 km/h (6 Bft)
15.01.2024 09:40 22,1 °C 0,9 °C 47 % 86 % 996,7 hPa 0,0 l/m² 26,8 km/h (4 Bft) SW 221 ° 2 min 132 W/m² -1,2 °C -11,1 °C 40,2 km/h (6 Bft)
15.01.2024 09:41 22,1 °C 0,9 °C 47 % 86 % 996,6 hPa 0,0 l/m² 30,0 km/h (5 Bft) SW 223 ° 1 min 135 W/m² -1,2 °C -12,1 °C 35,4 km/h (5 Bft)
15.01.2024 09:42 22,1 °C 0,9 °C 47 % 86 % 996,6 hPa 0,0 l/m² 26,8 km/h (4 Bft) S-SW 209 ° 1 min 95 W/m² -1,2 °C -11,1 °C 35,4 km/h (5 Bft)
15.01.2024 09:45 22,1 °C 0,9 °C 47 % 85 % 996,5 hPa 0,0 l/m² 22,6 km/h (4 Bft) SW 215 ° 0 min 46 W/m² -1,3 °C -9,6 °C 32,2 km/h (5 Bft)
15.01.2024 09:46 22,1 °C 0,9 °C 47 % 85 % 996,6 hPa 0,0 l/m² 26,4 km/h (4 Bft) SW 215 ° 0 min 46 W/m² -1,3 °C -11,0 °C 33,8 km/h (5 Bft)
15.01.2024 09:47 22,1 °C 0,9 °C 47 % 85 % 996,6 hPa 0,0 l/m² 21,7 km/h (4 Bft) SW 219 ° 0 min 44 W/m² -1,3 °C -9,2 °C 29,0 km/h (5 Bft)
15.01.2024 09:48 22,1 °C 0,8 °C 47 % 85 % 996,6 hPa 0,0 l/m² 25,4 km/h (4 Bft) SW 221 ° 0 min 44 W/m² -1,4 °C -10,8 °C 35,4 km/h (5 Bft)
15.01.2024 09:50 22,1 °C 0,8 °C 47 % 85 % 996,5 hPa 0,0 l/m² 31,4 km/h (5 Bft) SW 228 ° 0 min 47 W/m² -1,4 °C -12,7 °C 41,8 km/h (6 Bft)
15.01.2024 09:51 22,1 °C 0,8 °C 47 % 85 % 996,5 hPa 0,0 l/m² 27,2 km/h (5 Bft) SW 221 ° 1 min 107 W/m² -1,4 °C -11,4 °C 40,2 km/h (6 Bft)
15.01.2024 09:52 22,1 °C 0,8 °C 47 % 85 % 996,4 hPa 0,0 l/m² 29,0 km/h (5 Bft) SW 223 ° 1 min 67 W/m² -1,4 °C -12,0 °C 37,0 km/h (5 Bft)
15.01.2024 09:53 22,1 °C 0,8 °C 47 % 85 % 996,5 hPa 0,0 l/m² 31,6 km/h (5 Bft) SW 217 ° 1 min 104 W/m² -1,4 °C -12,7 °C 37,0 km/h (5 Bft)
15.01.2024 09:54 22,1 °C 0,8 °C 47 % 85 % 996,5 hPa 0,0 l/m² 27,6 km/h (5 Bft) S-SW 208 ° 1 min 81 W/m² -1,4 °C -11,5 °C 38,6 km/h (6 Bft)
15.01.2024 09:56 22,1 °C 0,9 °C 47 % 85 % 996,5 hPa 0,0 l/m² 25,4 km/h (4 Bft) SW 221 ° 2 min 153 W/m² -1,3 °C -10,6 °C 38,6 km/h (6 Bft)
15.01.2024 09:58 22,1 °C 1,0 °C 47 % 85 % 996,5 hPa 0,0 l/m² 30,2 km/h (5 Bft) S-SW 212 ° 2 min 155 W/m² -1,2 °C -12,1 °C 40,2 km/h (6 Bft)
15.01.2024 10:00 22,2 °C 1,1 °C 47 % 85 % 996,4 hPa 0,0 l/m² 25,8 km/h (4 Bft) SW 221 ° 2 min 158 W/m² -1,1 °C -10,5 °C 35,4 km/h (5 Bft)
15.01.2024 10:01 22,2 °C 1,1 °C 47 % 85 % 996,5 hPa 0,0 l/m² 24,8 km/h (4 Bft) SW 236 ° 1 min 162 W/m² -1,1 °C -10,2 °C 30,6 km/h (5 Bft)
15.01.2024 10:02 22,2 °C 1,1 °C 47 % 85 % 996,4 hPa 0,0 l/m² 27,7 km/h (5 Bft) SW 220 ° 1 min 165 W/m² -1,1 °C -11,2 °C 35,4 km/h (5 Bft)
15.01.2024 10:03 22,2 °C 1,2 °C 47 % 85 % 996,4 hPa 0,0 l/m² 27,9 km/h (5 Bft) SW 230 ° 1 min 165 W/m² -1,0 °C -11,1 °C 35,4 km/h (5 Bft)
15.01.2024 10:04 22,3 °C 1,2 °C 47 % 85 % 996,5 hPa 0,0 l/m² 22,4 km/h (4 Bft) SW 228 ° 1 min 169 W/m² -1,0 °C -9,1 °C 29,0 km/h (5 Bft)
15.01.2024 10:06 22,3 °C 1,2 °C 47 % 85 % 996,6 hPa 0,0 l/m² 25,4 km/h (4 Bft) SW 229 ° 2 min 171 W/m² -1,0 °C -10,2 °C 30,6 km/h (5 Bft)
15.01.2024 10:08 22,3 °C 1,2 °C 47 % 85 % 996,5 hPa 0,0 l/m² 25,1 km/h (4 Bft) W-SW 239 ° 2 min 178 W/m² -1,0 °C -10,1 °C 33,8 km/h (5 Bft)
15.01.2024 10:10 22,4 °C 1,3 °C 47 % 85 % 996,6 hPa 0,0 l/m² 25,2 km/h (4 Bft) SW 223 ° 2 min 179 W/m² -0,9 °C -10,0 °C 37,0 km/h (5 Bft)
15.01.2024 10:11 22,4 °C 1,3 °C 47 % 85 % 996,6 hPa 0,0 l/m² 21,7 km/h (4 Bft) W-SW 254 ° 1 min 181 W/m² -0,9 °C -8,7 °C 32,2 km/h (5 Bft)
15.01.2024 10:12 22,4 °C 1,3 °C 47 % 85 % 996,6 hPa 0,0 l/m² 23,2 km/h (4 Bft) W-SW 241 ° 1 min 179 W/m² -0,9 °C -9,3 °C 30,6 km/h (5 Bft)
15.01.2024 10:13 22,4 °C 1,3 °C 47 % 85 % 996,6 hPa 0,0 l/m² 27,4 km/h (5 Bft) W-SW 257 ° 1 min 183 W/m² -0,9 °C -10,8 °C 33,8 km/h (5 Bft)
15.01.2024 10:14 22,4 °C 1,3 °C 47 % 85 % 996,6 hPa 0,0 l/m² 24,0 km/h (4 Bft) SW 235 ° 1 min 185 W/m² -0,9 °C -9,6 °C 33,8 km/h (5 Bft)
15.01.2024 10:16 22,5 °C 1,4 °C 47 % 85 % 996,6 hPa 0,0 l/m² 22,2 km/h (4 Bft) SW 223 ° 2 min 190 W/m² -0,8 °C -8,8 °C 29,0 km/h (5 Bft)
15.01.2024 10:18 22,6 °C 1,4 °C 46 % 85 % 996,7 hPa 0,0 l/m² 21,9 km/h (4 Bft) W-SW 257 ° 2 min 192 W/m² -0,8 °C -8,6 °C 32,2 km/h (5 Bft)
15.01.2024 10:20 22,6 °C 1,6 °C 46 % 85 % 996,6 hPa 0,0 l/m² 20,5 km/h (4 Bft) SW 221 ° 2 min 199 W/m² -0,6 °C -7,8 °C 29,0 km/h (5 Bft)
15.01.2024 10:22 22,7 °C 1,6 °C 46 % 84 % 996,7 hPa 0,0 l/m² 23,7 km/h (4 Bft) SW 221 ° 2 min 209 W/m² -0,8 °C -9,1 °C 33,8 km/h (5 Bft)
15.01.2024 10:23 22,7 °C 1,6 °C 46 % 84 % 996,7 hPa 0,0 l/m² 22,0 km/h (4 Bft) S-SW 213 ° 1 min 213 W/m² -0,8 °C -8,4 °C 29,0 km/h (5 Bft)
15.01.2024 10:24 22,7 °C 1,7 °C 46 % 84 % 996,7 hPa 0,0 l/m² 18,7 km/h (3 Bft) SW 223 ° 1 min 218 W/m² -0,7 °C -6,8 °C 24,1 km/h (4 Bft)
15.01.2024 10:26 22,7 °C 1,7 °C 46 % 84 % 996,7 hPa 0,0 l/m² 21,2 km/h (4 Bft) S-SW 213 ° 2 min 206 W/m² -0,7 °C -8,0 °C 32,2 km/h (5 Bft)
15.01.2024 10:28 22,7 °C 1,7 °C 46 % 84 % 996,7 hPa 0,0 l/m² 26,5 km/h (4 Bft) SW 222 ° 2 min 128 W/m² -0,7 °C -9,9 °C 37,0 km/h (5 Bft)
15.01.2024 10:30 22,8 °C 1,7 °C 46 % 84 % 996,8 hPa 0,0 l/m² 22,6 km/h (4 Bft) SW 225 ° 2 min 216 W/m² -0,7 °C -8,5 °C 30,6 km/h (5 Bft)
15.01.2024 10:31 22,8 °C 1,8 °C 46 % 84 % 996,8 hPa 0,0 l/m² 24,6 km/h (4 Bft) SW 217 ° 1 min 218 W/m² -0,6 °C -9,1 °C 35,4 km/h (5 Bft)
15.01.2024 10:32 22,8 °C 1,8 °C 46 % 84 % 996,8 hPa 0,0 l/m² 25,4 km/h (4 Bft) W-SW 255 ° 1 min 220 W/m² -0,6 °C -9,4 °C 32,2 km/h (5 Bft)
15.01.2024 10:33 22,8 °C 1,8 °C 46 % 84 % 996,7 hPa 0,0 l/m² 31,3 km/h (5 Bft) S-SW 209 ° 1 min 223 W/m² -0,6 °C -11,2 °C 41,8 km/h (6 Bft)
15.01.2024 10:34 22,8 °C 1,8 °C 46 % 83 % 996,8 hPa 0,0 l/m² 27,9 km/h (5 Bft) SW 220 ° 1 min 225 W/m² -0,8 °C -10,2 °C 35,4 km/h (5 Bft)
15.01.2024 10:36 22,9 °C 1,8 °C 46 % 83 % 996,8 hPa 0,0 l/m² 27,1 km/h (5 Bft) W-SW 254 ° 2 min 230 W/m² -0,8 °C -10,0 °C 37,0 km/h (5 Bft)
15.01.2024 10:38 22,9 °C 1,9 °C 46 % 83 % 996,7 hPa 0,0 l/m² 20,8 km/h (4 Bft) S-SW 212 ° 2 min 236 W/m² -0,7 °C -7,5 °C 29,0 km/h (5 Bft)
15.01.2024 10:40 22,9 °C 1,9 °C 46 % 83 % 996,8 hPa 0,0 l/m² 23,4 km/h (4 Bft) SW 223 ° 2 min 236 W/m² -0,7 °C -8,6 °C 32,2 km/h (5 Bft)
15.01.2024 10:41 22,9 °C 1,9 °C 46 % 83 % 996,8 hPa 0,0 l/m² 23,1 km/h (4 Bft) SW 220 ° 1 min 236 W/m² -0,7 °C -8,4 °C 35,4 km/h (5 Bft)
15.01.2024 10:42 22,9 °C 1,9 °C 46 % 83 % 996,8 hPa 0,0 l/m² 17,1 km/h (3 Bft) W-SW 240 ° 1 min 236 W/m² -0,7 °C -5,8 °C 27,4 km/h (5 Bft)
15.01.2024 10:43 22,9 °C 2,0 °C 46 % 84 % 996,7 hPa 0,0 l/m² 18,8 km/h (3 Bft) SW 218 ° 1 min 234 W/m² -0,4 °C -6,5 °C 25,7 km/h (4 Bft)
15.01.2024 10:44 22,9 °C 2,0 °C 46 % 84 % 996,7 hPa 0,0 l/m² 24,1 km/h (4 Bft) SW 227 ° 1 min 234 W/m² -0,4 °C -8,7 °C 32,2 km/h (5 Bft)
15.01.2024 10:46 23,0 °C 2,0 °C 46 % 83 % 996,7 hPa 0,0 l/m² 24,4 km/h (4 Bft) SW 232 ° 2 min 239 W/m² -0,6 °C -8,8 °C 33,8 km/h (5 Bft)
15.01.2024 10:48 23,1 °C 2,0 °C 46 % 83 % 996,6 hPa 0,0 l/m² 25,4 km/h (4 Bft) SW 215 ° 2 min 239 W/m² -0,6 °C -9,1 °C 35,4 km/h (5 Bft)
15.01.2024 10:50 23,1 °C 2,1 °C 46 % 83 % 996,7 hPa 0,0 l/m² 22,6 km/h (4 Bft) S-SW 203 ° 2 min 241 W/m² -0,5 °C -8,0 °C 32,2 km/h (5 Bft)
15.01.2024 10:51 23,1 °C 2,1 °C 46 % 83 % 996,7 hPa 0,0 l/m² 21,5 km/h (4 Bft) SW 229 ° 1 min 244 W/m² -0,5 °C -7,6 °C 37,0 km/h (5 Bft)
15.01.2024 10:52 23,1 °C 2,1 °C 46 % 83 % 996,7 hPa 0,0 l/m² 24,5 km/h (4 Bft) W-SW 238 ° 1 min 246 W/m² -0,5 °C -8,7 °C 35,4 km/h (5 Bft)
15.01.2024 10:53 23,1 °C 2,1 °C 46 % 83 % 996,6 hPa 0,0 l/m² 23,9 km/h (4 Bft) SW 221 ° 1 min 250 W/m² -0,5 °C -8,5 °C 35,4 km/h (5 Bft)
15.01.2024 10:54 23,1 °C 2,1 °C 46 % 82 % 996,7 hPa 0,0 l/m² 25,9 km/h (4 Bft) W-SW 238 ° 1 min 251 W/m² -0,6 °C -9,2 °C 30,6 km/h (5 Bft)
15.01.2024 10:56 23,1 °C 2,2 °C 46 % 83 % 996,7 hPa 0,0 l/m² 26,0 km/h (4 Bft) W-SW 238 ° 2 min 258 W/m² -0,4 °C -9,1 °C 35,4 km/h (5 Bft)
15.01.2024 10:58 23,1 °C 2,2 °C 46 % 82 % 996,6 hPa 0,0 l/m² 24,7 km/h (4 Bft) W-SW 238 ° 2 min 260 W/m² -0,5 °C -8,6 °C 35,4 km/h (5 Bft)
15.01.2024 11:00 23,1 °C 2,2 °C 46 % 82 % 996,6 hPa 0,0 l/m² 26,9 km/h (4 Bft) SW 217 ° 2 min 264 W/m² -0,5 °C -9,4 °C 35,4 km/h (5 Bft)
15.01.2024 11:01 23,1 °C 2,2 °C 46 % 82 % 996,7 hPa 0,0 l/m² 26,0 km/h (4 Bft) W-SW 241 ° 1 min 265 W/m² -0,5 °C -9,1 °C 37,0 km/h (5 Bft)
15.01.2024 11:02 23,1 °C 2,2 °C 46 % 82 % 996,7 hPa 0,0 l/m² 26,7 km/h (4 Bft) SW 227 ° 1 min 265 W/m² -0,5 °C -9,3 °C 32,2 km/h (5 Bft)
15.01.2024 11:03 23,1 °C 2,2 °C 46 % 82 % 996,7 hPa 0,0 l/m² 22,5 km/h (4 Bft) W-SW 244 ° 1 min 267 W/m² -0,5 °C -7,8 °C 29,0 km/h (5 Bft)
15.01.2024 11:04 23,2 °C 2,3 °C 46 % 82 % 996,7 hPa 0,0 l/m² 26,4 km/h (4 Bft) W-SW 240 ° 1 min 269 W/m² -0,4 °C -9,1 °C 32,2 km/h (5 Bft)
15.01.2024 11:06 23,1 °C 2,3 °C 46 % 82 % 996,6 hPa 0,0 l/m² 25,1 km/h (4 Bft) W-SW 248 ° 2 min 274 W/m² -0,4 °C -8,6 °C 35,4 km/h (5 Bft)
15.01.2024 11:08 23,2 °C 2,3 °C 46 % 82 % 996,6 hPa 0,0 l/m² 21,9 km/h (4 Bft) W-SW 257 ° 2 min 274 W/m² -0,4 °C -7,4 °C 30,6 km/h (5 Bft)
15.01.2024 11:10 23,1 °C 2,3 °C 46 % 82 % 996,6 hPa 0,0 l/m² 24,1 km/h (4 Bft) SW 232 ° 2 min 276 W/m² -0,4 °C -8,3 °C 32,2 km/h (5 Bft)
15.01.2024 11:11 23,2 °C 2,3 °C 46 % 82 % 996,4 hPa 0,0 l/m² 20,4 km/h (4 Bft) SW 223 ° 1 min 274 W/m² -0,4 °C -6,8 °C 25,7 km/h (4 Bft)
15.01.2024 11:12 23,2 °C 2,3 °C 46 % 82 % 996,4 hPa 0,0 l/m² 21,5 km/h (4 Bft) W-SW 241 ° 1 min 281 W/m² -0,4 °C -7,3 °C 32,2 km/h (5 Bft)
15.01.2024 11:13 23,2 °C 2,4 °C 46 % 82 % 996,5 hPa 0,0 l/m² 20,8 km/h (4 Bft) W-SW 237 ° 1 min 278 W/m² -0,4 °C -6,9 °C 27,4 km/h (5 Bft)
15.01.2024 11:14 23,2 °C 2,4 °C 46 % 82 % 996,5 hPa 0,0 l/m² 23,4 km/h (4 Bft) SW 234 ° 1 min 285 W/m² -0,4 °C -7,9 °C 27,4 km/h (5 Bft)
15.01.2024 11:16 23,2 °C 2,4 °C 46 % 82 % 996,5 hPa 0,0 l/m² 19,8 km/h (3 Bft) W-SW 255 ° 2 min 279 W/m² -0,4 °C -6,4 °C 29,0 km/h (5 Bft)
15.01.2024 11:18 23,2 °C 2,4 °C 46 % 82 % 996,5 hPa 0,0 l/m² 21,0 km/h (4 Bft) SW 229 ° 2 min 271 W/m² -0,4 °C -7,0 °C 27,4 km/h (5 Bft)
15.01.2024 11:20 23,2 °C 2,4 °C 46 % 82 % 996,4 hPa 0,0 l/m² 20,7 km/h (4 Bft) S-SW 205 ° 2 min 221 W/m² -0,4 °C -6,8 °C 30,6 km/h (5 Bft)
15.01.2024 11:21 23,2 °C 2,3 °C 46 % 82 % 996,4 hPa 0,0 l/m² 24,4 km/h (4 Bft) SW 229 ° 1 min 288 W/m² -0,4 °C -8,4 °C 32,2 km/h (5 Bft)
15.01.2024 11:22 23,2 °C 2,3 °C 46 % 82 % 996,5 hPa 0,0 l/m² 18,5 km/h (3 Bft) SW 236 ° 1 min 301 W/m² -0,4 °C -6,0 °C 24,1 km/h (4 Bft)
15.01.2024 11:23 23,2 °C 2,3 °C 46 % 82 % 996,4 hPa 0,0 l/m² 22,8 km/h (4 Bft) SW 221 ° 1 min 301 W/m² -0,4 °C -7,8 °C 32,2 km/h (5 Bft)
15.01.2024 11:24 23,2 °C 2,3 °C 46 % 82 % 996,4 hPa 0,0 l/m² 24,1 km/h (4 Bft) W-SW 241 ° 1 min 156 W/m² -0,4 °C -8,3 °C 30,6 km/h (5 Bft)
15.01.2024 11:26 23,2 °C 2,2 °C 46 % 82 % 996,4 hPa 0,0 l/m² 28,3 km/h (5 Bft) W-SW 252 ° 2 min 237 W/m² -0,5 °C -9,8 °C 40,2 km/h (6 Bft)
15.01.2024 11:28 23,2 °C 2,3 °C 46 % 82 % 996,4 hPa 0,0 l/m² 22,2 km/h (4 Bft) SW 216 ° 2 min 283 W/m² -0,4 °C -7,6 °C 32,2 km/h (5 Bft)
15.01.2024 11:30 23,1 °C 2,3 °C 46 % 83 % 996,4 hPa 0,0 l/m² 20,5 km/h (4 Bft) SW 236 ° 2 min 295 W/m² -0,3 °C -6,9 °C 38,6 km/h (6 Bft)
15.01.2024 11:31 23,1 °C 2,3 °C 46 % 83 % 996,4 hPa 0,0 l/m² 26,9 km/h (4 Bft) SW 226 ° 1 min 306 W/m² -0,3 °C -9,2 °C 33,8 km/h (5 Bft)
15.01.2024 11:32 23,1 °C 2,4 °C 46 % 82 % 996,4 hPa 0,0 l/m² 23,1 km/h (4 Bft) W-SW 239 ° 1 min 311 W/m² -0,4 °C -7,8 °C 30,6 km/h (5 Bft)
15.01.2024 11:33 23,1 °C 2,4 °C 46 % 83 % 996,4 hPa 0,0 l/m² 21,1 km/h (4 Bft) SW 226 ° 1 min 332 W/m² -0,2 °C -7,0 °C 29,0 km/h (5 Bft)
15.01.2024 11:34 23,1 °C 2,4 °C 46 % 83 % 996,3 hPa 0,0 l/m² 26,7 km/h (4 Bft) SW 221 ° 1 min 339 W/m² -0,2 °C -9,0 °C 35,4 km/h (5 Bft)
15.01.2024 11:36 23,1 °C 2,4 °C 46 % 82 % 996,4 hPa 0,0 l/m² 29,7 km/h (5 Bft) SW 232 ° 2 min 318 W/m² -0,4 °C -9,9 °C 37,0 km/h (5 Bft)
15.01.2024 11:38 23,1 °C 2,5 °C 46 % 82 % 996,3 hPa 0,0 l/m² 25,8 km/h (4 Bft) W-SW 238 ° 2 min 302 W/m² -0,3 °C -8,6 °C 33,8 km/h (5 Bft)
15.01.2024 11:40 23,1 °C 2,6 °C 46 % 82 % 996,3 hPa 0,0 l/m² 32,0 km/h (5 Bft) W-SW 238 ° 2 min 302 W/m² -0,2 °C -10,3 °C 43,5 km/h (6 Bft)
15.01.2024 11:41 23,2 °C 2,5 °C 46 % 82 % 996,3 hPa 0,0 l/m² 29,2 km/h (5 Bft) W-SW 250 ° 1 min 292 W/m² -0,3 °C -9,7 °C 40,2 km/h (6 Bft)
15.01.2024 11:42 23,2 °C 2,5 °C 46 % 82 % 996,3 hPa 0,0 l/m² 26,3 km/h (4 Bft) SW 235 ° 1 min 313 W/m² -0,3 °C -8,8 °C 35,4 km/h (5 Bft)
15.01.2024 11:43 23,2 °C 2,5 °C 46 % 82 % 996,3 hPa 0,0 l/m² 27,0 km/h (5 Bft) SW 221 ° 1 min 315 W/m² -0,3 °C -9,0 °C 33,8 km/h (5 Bft)
15.01.2024 11:44 23,2 °C 2,6 °C 46 % 82 % 996,3 hPa 0,0 l/m² 28,4 km/h (5 Bft) W-SW 237 ° 1 min 316 W/m² -0,2 °C -9,3 °C 35,4 km/h (5 Bft)
15.01.2024 11:46 23,2 °C 2,6 °C 46 % 82 % 996,3 hPa 0,0 l/m² 29,1 km/h (5 Bft) W-SW 243 ° 2 min 320 W/m² -0,2 °C -9,5 °C 38,6 km/h (6 Bft)
15.01.2024 11:48 23,2 °C 2,6 °C 46 % 82 % 996,3 hPa 0,0 l/m² 31,1 km/h (5 Bft) SW 227 ° 2 min 297 W/m² -0,2 °C -10,1 °C 43,5 km/h (6 Bft)
15.01.2024 11:50 23,2 °C 2,6 °C 46 % 82 % 996,3 hPa 0,0 l/m² 26,8 km/h (4 Bft) SW 223 ° 2 min 246 W/m² -0,2 °C -8,8 °C 35,4 km/h (5 Bft)
15.01.2024 11:51 23,2 °C 2,6 °C 46 % 82 % 996,3 hPa 0,0 l/m² 30,6 km/h (5 Bft) W-SW 257 ° 1 min 283 W/m² -0,2 °C -9,9 °C 38,6 km/h (6 Bft)
15.01.2024 11:52 23,2 °C 2,6 °C 46 % 82 % 996,3 hPa 0,0 l/m² 22,3 km/h (4 Bft) W-SW 242 ° 1 min 320 W/m² -0,2 °C -7,2 °C 29,0 km/h (5 Bft)
15.01.2024 11:53 23,2 °C 2,6 °C 46 % 82 % 996,3 hPa 0,0 l/m² 32,9 km/h (5 Bft) SW 232 ° 1 min 297 W/m² -0,2 °C -10,5 °C 45,1 km/h (6 Bft)
15.01.2024 11:54 23,2 °C 2,6 °C 46 % 82 % 996,3 hPa 0,0 l/m² 28,5 km/h (5 Bft) SW 234 ° 1 min 309 W/m² -0,2 °C -9,3 °C 33,8 km/h (5 Bft)
15.01.2024 11:56 23,2 °C 2,6 °C 46 % 82 % 996,2 hPa 0,0 l/m² 29,6 km/h (5 Bft) W-SW 245 ° 2 min 316 W/m² -0,2 °C -9,6 °C 45,1 km/h (6 Bft)
15.01.2024 11:58 23,2 °C 2,6 °C 46 % 82 % 996,3 hPa 0,0 l/m² 28,5 km/h (5 Bft) W-SW 238 ° 2 min 301 W/m² -0,2 °C -9,3 °C 41,8 km/h (6 Bft)
15.01.2024 12:00 23,2 °C 2,6 °C 46 % 82 % 996,3 hPa 0,0 l/m² 30,5 km/h (5 Bft) W-SW 241 ° 2 min 316 W/m² -0,2 °C -9,9 °C 43,5 km/h (6 Bft)
15.01.2024 12:01 23,2 °C 2,6 °C 46 % 82 % 996,3 hPa 0,0 l/m² 26,8 km/h (4 Bft) W-SW 237 ° 1 min 322 W/m² -0,2 °C -8,8 °C 38,6 km/h (6 Bft)
15.01.2024 12:02 23,2 °C 2,6 °C 46 % 82 % 996,3 hPa 0,0 l/m² 21,9 km/h (4 Bft) SW 219 ° 1 min 318 W/m² -0,2 °C -7,1 °C 32,2 km/h (5 Bft)
15.01.2024 12:03 23,2 °C 2,7 °C 46 % 82 % 996,3 hPa 0,0 l/m² 22,6 km/h (4 Bft) W-SW 250 ° 1 min 309 W/m² -0,1 °C -7,2 °C 29,0 km/h (5 Bft)
15.01.2024 12:04 23,2 °C 2,7 °C 46 % 82 % 996,2 hPa 0,0 l/m² 31,4 km/h (5 Bft) SW 223 ° 1 min 315 W/m² -0,1 °C -10,0 °C 38,6 km/h (6 Bft)
15.01.2024 12:06 23,2 °C 2,7 °C 46 % 82 % 996,3 hPa 0,0 l/m² 27,1 km/h (5 Bft) S-SW 205 ° 2 min 327 W/m² -0,1 °C -8,7 °C 38,6 km/h (6 Bft)
15.01.2024 12:08 23,2 °C 2,7 °C 46 % 82 % 996,3 hPa 0,0 l/m² 28,1 km/h (5 Bft) SW 231 ° 2 min 313 W/m² -0,1 °C -9,1 °C 41,8 km/h (6 Bft)
15.01.2024 12:10 23,2 °C 2,7 °C 46 % 82 % 996,3 hPa 0,0 l/m² 27,7 km/h (5 Bft) SW 219 ° 2 min 255 W/m² -0,1 °C -8,9 °C 33,8 km/h (5 Bft)
15.01.2024 12:11 23,2 °C 2,7 °C 46 % 82 % 996,3 hPa 0,0 l/m² 28,6 km/h (5 Bft) W-SW 242 ° 1 min 250 W/m² -0,1 °C -9,2 °C 37,0 km/h (5 Bft)
15.01.2024 12:12 23,2 °C 2,6 °C 46 % 82 % 996,3 hPa 0,0 l/m² 27,4 km/h (5 Bft) SW 223 ° 1 min 97 W/m² -0,2 °C -9,0 °C 33,8 km/h (5 Bft)
15.01.2024 12:13 23,2 °C 2,4 °C 46 % 82 % 996,3 hPa 0,0 l/m² 24,8 km/h (4 Bft) SW 234 ° 1 min 105 W/m² -0,4 °C -8,4 °C 30,6 km/h (5 Bft)
15.01.2024 12:15 23,2 °C 2,3 °C 46 % 82 % 996,3 hPa 0,0 l/m² 23,7 km/h (4 Bft) SW 225 ° 2 min 142 W/m² -0,4 °C -8,1 °C 30,6 km/h (5 Bft)
15.01.2024 12:17 23,2 °C 2,3 °C 46 % 83 % 996,3 hPa 0,0 l/m² 23,8 km/h (4 Bft) SW 229 ° 2 min 313 W/m² -0,3 °C -8,2 °C 32,2 km/h (5 Bft)
15.01.2024 12:19 23,2 °C 2,2 °C 46 % 83 % 996,4 hPa 0,0 l/m² 26,1 km/h (4 Bft) W 260 ° 2 min 100 W/m² -0,4 °C -9,1 °C 35,4 km/h (5 Bft)
15.01.2024 12:21 23,1 °C 2,2 °C 46 % 83 % 996,3 hPa 0,0 l/m² 23,2 km/h (4 Bft) W-SW 257 ° 2 min 165 W/m² -0,4 °C -8,1 °C 32,2 km/h (5 Bft)
15.01.2024 12:22 23,1 °C 2,1 °C 46 % 82 % 996,3 hPa 0,0 l/m² 25,6 km/h (4 Bft) SW 236 ° 1 min 195 W/m² -0,6 °C -9,1 °C 35,4 km/h (5 Bft)
15.01.2024 12:24 23,2 °C 2,1 °C 46 % 83 % 996,3 hPa 0,0 l/m² 25,8 km/h (4 Bft) SW 220 ° 2 min 200 W/m² -0,5 °C -9,1 °C 35,4 km/h (5 Bft)
15.01.2024 12:26 23,1 °C 2,2 °C 46 % 83 % 996,3 hPa 0,0 l/m² 24,1 km/h (4 Bft) SW 234 ° 2 min 285 W/m² -0,4 °C -8,4 °C 32,2 km/h (5 Bft)
15.01.2024 12:28 23,1 °C 2,3 °C 46 % 83 % 996,3 hPa 0,0 l/m² 25,3 km/h (4 Bft) SW 229 ° 2 min 325 W/m² -0,3 °C -8,7 °C 32,2 km/h (5 Bft)
15.01.2024 12:30 23,1 °C 2,5 °C 46 % 83 % 996,2 hPa 0,0 l/m² 28,0 km/h (5 Bft) SW 222 ° 2 min 334 W/m² -0,1 °C -9,3 °C 38,6 km/h (6 Bft)
15.01.2024 12:32 23,1 °C 2,7 °C 46 % 83 % 996,2 hPa 0,0 l/m² 25,3 km/h (4 Bft) SW 217 ° 2 min 338 W/m² 0,1 °C -8,2 °C 37,0 km/h (5 Bft)
15.01.2024 12:33 23,1 °C 2,8 °C 46 % 82 % 996,2 hPa 0,0 l/m² 28,5 km/h (5 Bft) SW 233 ° 1 min 330 W/m² 0,0 °C -9,0 °C 33,8 km/h (5 Bft)
15.01.2024 12:35 23,1 °C 2,8 °C 46 % 82 % 996,2 hPa 0,0 l/m² 23,2 km/h (4 Bft) SW 224 ° 2 min 343 W/m² 0,0 °C -7,3 °C 32,2 km/h (5 Bft)
15.01.2024 12:36 23,1 °C 2,9 °C 46 % 82 % 996,2 hPa 0,0 l/m² 24,7 km/h (4 Bft) SW 236 ° 1 min 346 W/m² 0,1 °C -7,7 °C 33,8 km/h (5 Bft)
15.01.2024 12:37 23,1 °C 3,0 °C 46 % 82 % 996,2 hPa 0,0 l/m² 26,8 km/h (4 Bft) SW 225 ° 1 min 352 W/m² 0,2 °C -8,2 °C 33,8 km/h (5 Bft)
15.01.2024 12:39 23,1 °C 3,1 °C 46 % 82 % 996,2 hPa 0,0 l/m² 31,4 km/h (5 Bft) W 264 ° 2 min 364 W/m² 0,3 °C -9,4 °C 46,7 km/h (6 Bft)
15.01.2024 12:40 23,1 °C 3,1 °C 46 % 81 % 996,2 hPa 0,0 l/m² 29,8 km/h (5 Bft) SW 220 ° 1 min 367 W/m² 0,2 °C -9,0 °C 41,8 km/h (6 Bft)
15.01.2024 12:41 23,2 °C 3,2 °C 46 % 81 % 996,2 hPa 0,0 l/m² 29,8 km/h (5 Bft) SW 222 ° 1 min 366 W/m² 0,3 °C -8,9 °C 46,7 km/h (6 Bft)
15.01.2024 12:42 23,2 °C 3,2 °C 46 % 81 % 996,2 hPa 0,0 l/m² 27,0 km/h (5 Bft) W-SW 243 ° 1 min 338 W/m² 0,3 °C -8,0 °C 33,8 km/h (5 Bft)
15.01.2024 12:44 23,2 °C 3,2 °C 46 % 81 % 996,1 hPa 0,0 l/m² 30,5 km/h (5 Bft) SW 220 ° 2 min 346 W/m² 0,3 °C -9,0 °C 41,8 km/h (6 Bft)
15.01.2024 12:46 23,2 °C 3,2 °C 46 % 81 % 996,1 hPa 0,0 l/m² 29,0 km/h (5 Bft) SW 227 ° 2 min 223 W/m² 0,3 °C -8,6 °C 43,5 km/h (6 Bft)
15.01.2024 12:47 23,2 °C 3,1 °C 46 % 81 % 996,2 hPa 0,0 l/m² 23,3 km/h (4 Bft) W-SW 242 ° 1 min 199 W/m² 0,2 °C -6,9 °C 27,4 km/h (5 Bft)
15.01.2024 12:49 23,2 °C 2,9 °C 46 % 81 % 996,1 hPa 0,0 l/m² 26,7 km/h (4 Bft) W-SW 244 ° 2 min 163 W/m² -0,0 °C -8,3 °C 37,0 km/h (5 Bft)
15.01.2024 12:51 23,1 °C 2,7 °C 46 % 82 % 996,2 hPa 0,0 l/m² 26,8 km/h (4 Bft) SW 233 ° 2 min 149 W/m² -0,1 °C -8,7 °C 41,8 km/h (6 Bft)
15.01.2024 12:52 23,1 °C 2,6 °C 46 % 82 % 996,2 hPa 0,0 l/m² 27,7 km/h (5 Bft) SW 225 ° 1 min 146 W/m² -0,2 °C -9,1 °C 37,0 km/h (5 Bft)
15.01.2024 12:54 23,1 °C 2,4 °C 46 % 82 % 996,2 hPa 0,0 l/m² 27,5 km/h (5 Bft) SW 226 ° 2 min 142 W/m² -0,4 °C -9,3 °C 41,8 km/h (6 Bft)
15.01.2024 12:55 23,1 °C 2,3 °C 46 % 82 % 996,1 hPa 0,0 l/m² 31,6 km/h (5 Bft) W-SW 241 ° 1 min 141 W/m² -0,4 °C -10,6 °C 41,8 km/h (6 Bft)
15.01.2024 12:56 23,1 °C 2,3 °C 46 % 83 % 996,1 hPa 0,0 l/m² 26,1 km/h (4 Bft) SW 223 ° 1 min 139 W/m² -0,3 °C -9,0 °C 33,8 km/h (5 Bft)
15.01.2024 12:57 23,1 °C 2,3 °C 46 % 83 % 996,1 hPa 0,0 l/m² 28,3 km/h (5 Bft) W-SW 240 ° 1 min 135 W/m² -0,3 °C -9,7 °C 38,6 km/h (6 Bft)
15.01.2024 12:59 23,0 °C 2,2 °C 46 % 83 % 996,2 hPa 0,0 l/m² 24,9 km/h (4 Bft) W-SW 254 ° 2 min 135 W/m² -0,4 °C -8,7 °C 33,8 km/h (5 Bft)
15.01.2024 13:01 23,0 °C 2,2 °C 47 % 83 % 996,1 hPa 0,0 l/m² 25,8 km/h (4 Bft) W-SW 241 ° 2 min 135 W/m² -0,4 °C -9,0 °C 38,6 km/h (6 Bft)
15.01.2024 13:02 22,9 °C 2,2 °C 46 % 83 % 996,1 hPa 0,0 l/m² 20,3 km/h (4 Bft) W-SW 245 ° 1 min 137 W/m² -0,4 °C -6,9 °C 29,0 km/h (5 Bft)
15.01.2024 13:04 22,9 °C 2,1 °C 47 % 84 % 996,2 hPa 0,0 l/m² 21,9 km/h (4 Bft) SW 236 ° 2 min 139 W/m² -0,3 °C -7,7 °C 27,4 km/h (5 Bft)
15.01.2024 13:06 22,9 °C 2,1 °C 47 % 84 % 996,2 hPa 0,0 l/m² 23,4 km/h (4 Bft) W-SW 248 ° 2 min 144 W/m² -0,3 °C -8,3 °C 32,2 km/h (5 Bft)
15.01.2024 13:08 22,9 °C 2,1 °C 47 % 84 % 996,2 hPa 0,0 l/m² 25,7 km/h (4 Bft) SW 220 ° 2 min 169 W/m² -0,3 °C -9,1 °C 38,6 km/h (6 Bft)
15.01.2024 13:10 22,9 °C 2,1 °C 47 % 84 % 996,2 hPa 0,0 l/m² 25,0 km/h (4 Bft) SW 228 ° 2 min 221 W/m² -0,3 °C -8,9 °C 32,2 km/h (5 Bft)
15.01.2024 13:12 22,9 °C 2,2 °C 47 % 85 % 996,1 hPa 0,0 l/m² 20,2 km/h (4 Bft) SW 231 ° 2 min 214 W/m² -0,1 °C -6,9 °C 32,2 km/h (5 Bft)
15.01.2024 13:13 22,9 °C 2,2 °C 47 % 85 % 996,1 hPa 0,0 l/m² 22,1 km/h (4 Bft) W-SW 247 ° 1 min 199 W/m² -0,1 °C -7,7 °C 32,2 km/h (5 Bft)
15.01.2024 13:15 22,8 °C 2,2 °C 47 % 85 % 996,2 hPa 0,0 l/m² 20,5 km/h (4 Bft) W 259 ° 2 min 171 W/m² -0,1 °C -7,0 °C 29,0 km/h (5 Bft)
15.01.2024 13:17 22,8 °C 2,2 °C 47 % 84 % 996,1 hPa 0,0 l/m² 24,0 km/h (4 Bft) W-SW 257 ° 2 min 160 W/m² -0,2 °C -8,4 °C 30,6 km/h (5 Bft)
15.01.2024 13:19 22,8 °C 2,2 °C 47 % 84 % 996,1 hPa 0,0 l/m² 23,6 km/h (4 Bft) W-SW 244 ° 2 min 162 W/m² -0,2 °C -8,2 °C 33,8 km/h (5 Bft)
15.01.2024 13:21 22,8 °C 2,2 °C 47 % 84 % 996,2 hPa 0,0 l/m² 19,5 km/h (3 Bft) SW 221 ° 2 min 141 W/m² -0,2 °C -6,6 °C 29,0 km/h (5 Bft)
15.01.2024 13:22 22,8 °C 2,2 °C 47 % 84 % 996,2 hPa 0,0 l/m² 24,0 km/h (4 Bft) SW 232 ° 1 min 149 W/m² -0,2 °C -8,4 °C 30,6 km/h (5 Bft)
15.01.2024 13:24 22,8 °C 2,2 °C 47 % 84 % 996,2 hPa 0,0 l/m² 20,8 km/h (4 Bft) W-SW 240 ° 2 min 162 W/m² -0,2 °C -7,1 °C 27,4 km/h (5 Bft)
15.01.2024 13:25 22,8 °C 2,2 °C 47 % 84 % 996,1 hPa 0,0 l/m² 23,0 km/h (4 Bft) W-SW 245 ° 1 min 162 W/m² -0,2 °C -8,0 °C 32,2 km/h (5 Bft)
15.01.2024 13:26 22,8 °C 2,2 °C 47 % 84 % 996,2 hPa 0,0 l/m² 22,2 km/h (4 Bft) W-SW 258 ° 1 min 151 W/m² -0,2 °C -7,7 °C 29,0 km/h (5 Bft)
15.01.2024 13:27 22,8 °C 2,2 °C 47 % 84 % 996,2 hPa 0,0 l/m² 25,3 km/h (4 Bft) W-SW 250 ° 1 min 123 W/m² -0,2 °C -8,8 °C 33,8 km/h (5 Bft)
15.01.2024 13:29 22,8 °C 2,2 °C 47 % 84 % 996,1 hPa 0,0 l/m² 22,1 km/h (4 Bft) S-SW 211 ° 2 min 105 W/m² -0,2 °C -7,7 °C 32,2 km/h (5 Bft)
15.01.2024 13:31 22,7 °C 2,1 °C 47 % 84 % 996,2 hPa 0,0 l/m² 26,5 km/h (4 Bft) W-SW 257 ° 2 min 125 W/m² -0,3 °C -9,4 °C 38,6 km/h (6 Bft)
15.01.2024 13:32 22,7 °C 2,1 °C 47 % 84 % 996,2 hPa 0,0 l/m² 24,6 km/h (4 Bft) SW 229 ° 1 min 130 W/m² -0,3 °C -8,7 °C 33,8 km/h (5 Bft)
15.01.2024 13:34 22,7 °C 2,0 °C 47 % 84 % 996,1 hPa 0,0 l/m² 23,2 km/h (4 Bft) SW 219 ° 2 min 93 W/m² -0,4 °C -8,4 °C 30,6 km/h (5 Bft)
15.01.2024 13:35 22,7 °C 2,0 °C 47 % 84 % 996,2 hPa 0,0 l/m² 21,6 km/h (4 Bft) SW 227 ° 1 min 91 W/m² -0,4 °C -7,7 °C 25,7 km/h (4 Bft)
15.01.2024 13:36 22,7 °C 2,0 °C 47 % 84 % 996,2 hPa 0,0 l/m² 20,5 km/h (4 Bft) S-SW 209 ° 1 min 91 W/m² -0,4 °C -7,3 °C 24,1 km/h (4 Bft)
15.01.2024 13:37 22,7 °C 1,9 °C 47 % 84 % 996,2 hPa 0,0 l/m² 22,4 km/h (4 Bft) W-SW 240 ° 1 min 97 W/m² -0,5 °C -8,2 °C 25,7 km/h (4 Bft)
15.01.2024 13:39 22,7 °C 1,9 °C 47 % 84 % 996,2 hPa 0,0 l/m² 27,9 km/h (5 Bft) SW 235 ° 2 min 105 W/m² -0,5 °C -10,1 °C 35,4 km/h (5 Bft)
15.01.2024 13:41 22,7 °C 2,0 °C 47 % 84 % 996,1 hPa 0,0 l/m² 21,5 km/h (4 Bft) SW 228 ° 2 min 104 W/m² -0,4 °C -7,7 °C 27,4 km/h (5 Bft)
15.01.2024 13:42 22,7 °C 2,0 °C 47 % 84 % 996,1 hPa 0,0 l/m² 16,8 km/h (3 Bft) W-SW 251 ° 1 min 100 W/m² -0,4 °C -5,5 °C 20,9 km/h (4 Bft)
15.01.2024 13:43 22,7 °C 1,9 °C 47 % 84 % 996,1 hPa 0,0 l/m² 16,7 km/h (3 Bft) W-SW 241 ° 1 min 100 W/m² -0,5 °C -5,6 °C 20,9 km/h (4 Bft)
15.01.2024 13:45 22,6 °C 1,9 °C 47 % 84 % 996,1 hPa 0,0 l/m² 16,8 km/h (3 Bft) W-SW 244 ° 2 min 116 W/m² -0,5 °C -5,7 °C 22,5 km/h (4 Bft)
15.01.2024 13:47 22,7 °C 1,9 °C 47 % 84 % 996,1 hPa 0,0 l/m² 21,3 km/h (4 Bft) W-SW 249 ° 2 min 114 W/m² -0,5 °C -7,7 °C 32,2 km/h (5 Bft)
15.01.2024 13:49 22,6 °C 2,0 °C 47 % 84 % 996,1 hPa 0,0 l/m² 26,9 km/h (4 Bft) SW 231 ° 2 min 120 W/m² -0,4 °C -9,6 °C 38,6 km/h (6 Bft)
15.01.2024 13:51 22,6 °C 2,1 °C 47 % 84 % 996,2 hPa 0,0 l/m² 25,4 km/h (4 Bft) W-SW 252 ° 2 min 179 W/m² -0,3 °C -9,0 °C 37,0 km/h (5 Bft)
15.01.2024 13:52 22,6 °C 2,2 °C 47 % 84 % 996,2 hPa 0,0 l/m² 25,1 km/h (4 Bft) SW 236 ° 1 min 179 W/m² -0,2 °C -8,8 °C 32,2 km/h (5 Bft)
15.01.2024 13:53 22,6 °C 2,2 °C 47 % 84 % 996,2 hPa 0,0 l/m² 26,1 km/h (4 Bft) W-SW 243 ° 1 min 169 W/m² -0,2 °C -9,1 °C 33,8 km/h (5 Bft)
15.01.2024 13:55 22,6 °C 2,3 °C 47 % 84 % 996,4 hPa 0,0 l/m² 23,7 km/h (4 Bft) SW 236 ° 2 min 207 W/m² -0,1 °C -8,1 °C 33,8 km/h (5 Bft)
15.01.2024 13:57 22,6 °C 2,4 °C 47 % 84 % 996,4 hPa 0,0 l/m² 23,4 km/h (4 Bft) W-SW 247 ° 2 min 264 W/m² -0,0 °C -7,9 °C 30,6 km/h (5 Bft)
15.01.2024 13:59 22,6 °C 2,6 °C 47 % 84 % 996,3 hPa 0,0 l/m² 28,7 km/h (5 Bft) W-SW 243 ° 2 min 345 W/m² 0,2 °C -9,4 °C 37,0 km/h (5 Bft)
15.01.2024 14:01 22,6 °C 2,8 °C 47 % 83 % 996,3 hPa 0,0 l/m² 30,1 km/h (5 Bft) W-SW 258 ° 2 min 294 W/m² 0,2 °C -9,5 °C 40,2 km/h (6 Bft)
15.01.2024 14:02 22,6 °C 2,9 °C 47 % 83 % 996,3 hPa 0,0 l/m² 33,9 km/h (5 Bft) W-SW 242 ° 1 min 309 W/m² 0,3 °C -10,3 °C 43,5 km/h (6 Bft)
15.01.2024 14:03 22,6 °C 2,9 °C 47 % 83 % 996,3 hPa 0,0 l/m² 32,1 km/h (5 Bft) W-SW 254 ° 1 min 309 W/m² 0,3 °C -9,9 °C 41,8 km/h (6 Bft)
15.01.2024 14:04 22,6 °C 2,9 °C 47 % 82 % 996,3 hPa 0,0 l/m² 29,4 km/h (5 Bft) SW 234 ° 1 min 292 W/m² 0,1 °C -9,2 °C 41,8 km/h (6 Bft)
15.01.2024 14:05 22,6 °C 3,0 °C 47 % 82 % 996,3 hPa 0,0 l/m² 32,8 km/h (5 Bft) W-SW 242 ° 1 min 292 W/m² 0,2 °C -9,9 °C 37,0 km/h (5 Bft)
15.01.2024 14:07 22,6 °C 2,9 °C 47 % 82 % 996,3 hPa 0,0 l/m² 27,5 km/h (5 Bft) W-SW 252 ° 2 min 118 W/m² 0,1 °C -8,6 °C 33,8 km/h (5 Bft)
15.01.2024 14:09 22,6 °C 2,8 °C 47 % 82 % 996,3 hPa 0,0 l/m² 26,5 km/h (4 Bft) W-SW 242 ° 2 min 72 W/m² 0,0 °C -8,4 °C 32,2 km/h (5 Bft)
15.01.2024 14:11 22,6 °C 2,7 °C 47 % 82 % 996,3 hPa 0,0 l/m² 26,7 km/h (4 Bft) W-SW 250 ° 2 min 134 W/m² -0,1 °C -8,6 °C 37,0 km/h (5 Bft)
15.01.2024 14:14 22,6 °C 2,6 °C 47 % 82 % 996,4 hPa 0,0 l/m² 26,5 km/h (4 Bft) W-SW 244 ° 3 min 98 W/m² -0,2 °C -8,7 °C 35,4 km/h (5 Bft)
15.01.2024 14:16 22,6 °C 2,6 °C 47 % 82 % 996,4 hPa 0,0 l/m² 23,6 km/h (4 Bft) W-SW 248 ° 2 min 95 W/m² -0,2 °C -7,7 °C 32,2 km/h (5 Bft)
15.01.2024 14:18 22,5 °C 2,6 °C 47 % 83 % 996,5 hPa 0,0 l/m² 20,5 km/h (4 Bft) W-SW 242 ° 2 min 88 W/m² 0,0 °C -6,5 °C 27,4 km/h (5 Bft)
15.01.2024 14:20 22,6 °C 2,5 °C 47 % 83 % 996,4 hPa 0,0 l/m² 23,8 km/h (4 Bft) SW 214 ° 2 min 111 W/m² -0,1 °C -7,9 °C 30,6 km/h (5 Bft)
15.01.2024 14:22 22,5 °C 2,4 °C 47 % 83 % 996,5 hPa 0,0 l/m² 25,1 km/h (4 Bft) SW 230 ° 2 min 171 W/m² -0,2 °C -8,5 °C 35,4 km/h (5 Bft)
15.01.2024 14:23 22,5 °C 2,4 °C 47 % 83 % 996,6 hPa 0,0 l/m² 29,2 km/h (5 Bft) W-SW 238 ° 1 min 107 W/m² -0,2 °C -9,8 °C 35,4 km/h (5 Bft)
15.01.2024 14:24 22,5 °C 2,4 °C 47 % 83 % 996,6 hPa 0,0 l/m² 28,3 km/h (5 Bft) SW 230 ° 1 min 91 W/m² -0,2 °C -9,5 °C 35,4 km/h (5 Bft)
15.01.2024 14:26 22,5 °C 2,4 °C 47 % 84 % 996,6 hPa 0,0 l/m² 26,6 km/h (4 Bft) W-SW 244 ° 2 min 105 W/m² -0,0 °C -9,0 °C 33,8 km/h (5 Bft)
15.01.2024 14:28 22,5 °C 2,4 °C 47 % 83 % 996,6 hPa 0,0 l/m² 26,9 km/h (4 Bft) W-SW 241 ° 2 min 74 W/m² -0,2 °C -9,1 °C 33,8 km/h (5 Bft)
15.01.2024 14:30 22,4 °C 2,4 °C 47 % 83 % 996,6 hPa 0,0 l/m² 24,2 km/h (4 Bft) W-SW 245 ° 2 min 62 W/m² -0,2 °C -8,2 °C 32,2 km/h (5 Bft)
15.01.2024 14:32 22,4 °C 2,3 °C 47 % 83 % 996,7 hPa 0,0 l/m² 23,5 km/h (4 Bft) W-SW 238 ° 2 min 58 W/m² -0,3 °C -8,1 °C 35,4 km/h (5 Bft)
15.01.2024 14:33 22,4 °C 2,3 °C 47 % 83 % 996,5 hPa 0,0 l/m² 24,9 km/h (4 Bft) W-SW 240 ° 1 min 60 W/m² -0,3 °C -8,6 °C 32,2 km/h (5 Bft)
15.01.2024 14:35 22,4 °C 2,3 °C 47 % 83 % 996,5 hPa 0,0 l/m² 22,1 km/h (4 Bft) W-SW 240 ° 2 min 69 W/m² -0,3 °C -7,5 °C 27,4 km/h (5 Bft)
15.01.2024 14:37 22,4 °C 2,3 °C 47 % 83 % 996,6 hPa 0,0 l/m² 22,5 km/h (4 Bft) W-SW 248 ° 2 min 76 W/m² -0,3 °C -7,7 °C 29,0 km/h (5 Bft)
15.01.2024 14:39 22,4 °C 2,3 °C 47 % 83 % 996,6 hPa 0,0 l/m² 24,7 km/h (4 Bft) SW 215 ° 2 min 72 W/m² -0,3 °C -8,5 °C 33,8 km/h (5 Bft)
15.01.2024 14:41 22,4 °C 2,2 °C 47 % 83 % 996,6 hPa 0,0 l/m² 26,2 km/h (4 Bft) SW 221 ° 2 min 76 W/m² -0,4 °C -9,1 °C 35,4 km/h (5 Bft)
15.01.2024 14:42 22,4 °C 2,2 °C 47 % 83 % 996,6 hPa 0,0 l/m² 29,3 km/h (5 Bft) W-SW 248 ° 1 min 77 W/m² -0,4 °C -10,1 °C 38,6 km/h (6 Bft)
15.01.2024 14:43 22,4 °C 2,2 °C 47 % 83 % 996,6 hPa 0,0 l/m² 23,4 km/h (4 Bft) SW 234 ° 1 min 76 W/m² -0,4 °C -8,2 °C 29,0 km/h (5 Bft)
15.01.2024 14:44 22,4 °C 2,2 °C 47 % 83 % 996,6 hPa 0,0 l/m² 26,3 km/h (4 Bft) SW 231 ° 1 min 79 W/m² -0,4 °C -9,2 °C 30,6 km/h (5 Bft)
15.01.2024 14:46 22,4 °C 2,2 °C 47 % 83 % 996,6 hPa 0,0 l/m² 21,4 km/h (4 Bft) W-SW 242 ° 2 min 72 W/m² -0,4 °C -7,4 °C 27,4 km/h (5 Bft)
15.01.2024 14:48 22,4 °C 2,1 °C 47 % 84 % 996,6 hPa 0,0 l/m² 22,5 km/h (4 Bft) SW 234 ° 2 min 72 W/m² -0,3 °C -8,0 °C 29,0 km/h (5 Bft)
15.01.2024 14:50 22,4 °C 2,1 °C 47 % 84 % 996,6 hPa 0,0 l/m² 24,9 km/h (4 Bft) SW 230 ° 2 min 69 W/m² -0,3 °C -8,8 °C 33,8 km/h (5 Bft)
15.01.2024 14:52 22,3 °C 2,1 °C 47 % 84 % 996,6 hPa 0,0 l/m² 20,4 km/h (4 Bft) W-SW 241 ° 2 min 62 W/m² -0,3 °C -7,1 °C 27,4 km/h (5 Bft)
15.01.2024 14:53 22,3 °C 2,1 °C 47 % 84 % 996,6 hPa 0,0 l/m² 21,1 km/h (4 Bft) W-SW 244 ° 1 min 58 W/m² -0,3 °C -7,4 °C 25,7 km/h (4 Bft)
15.01.2024 14:54 22,3 °C 2,1 °C 47 % 84 % 996,6 hPa 0,0 l/m² 21,6 km/h (4 Bft) W-SW 238 ° 1 min 53 W/m² -0,3 °C -7,6 °C 27,4 km/h (5 Bft)
15.01.2024 14:56 22,3 °C 2,1 °C 47 % 84 % 996,7 hPa 0,0 l/m² 23,1 km/h (4 Bft) W-SW 238 ° 0 min 44 W/m² -0,3 °C -8,2 °C 27,4 km/h (5 Bft)
15.01.2024 14:58 22,3 °C 2,1 °C 47 % 84 % 996,7 hPa 0,0 l/m² 20,8 km/h (4 Bft) SW 223 ° 0 min 49 W/m² -0,3 °C -7,3 °C 25,7 km/h (4 Bft)
15.01.2024 15:00 22,3 °C 2,1 °C 47 % 84 % 996,7 hPa 0,0 l/m² 21,9 km/h (4 Bft) W-SW 242 ° 2 min 67 W/m² -0,3 °C -7,7 °C 30,6 km/h (5 Bft)
15.01.2024 15:02 22,3 °C 2,0 °C 47 % 84 % 996,7 hPa 0,0 l/m² 17,7 km/h (3 Bft) W-SW 243 ° 2 min 86 W/m² -0,4 °C -6,0 °C 22,5 km/h (4 Bft)
15.01.2024 15:03 22,3 °C 2,0 °C 47 % 84 % 996,6 hPa 0,0 l/m² 19,6 km/h (3 Bft) W-SW 239 ° 1 min 86 W/m² -0,4 °C -6,9 °C 25,7 km/h (4 Bft)
15.01.2024 15:04 22,3 °C 2,0 °C 47 % 84 % 996,6 hPa 0,0 l/m² 24,5 km/h (4 Bft) W-SW 249 ° 1 min 86 W/m² -0,4 °C -8,8 °C 29,0 km/h (5 Bft)
15.01.2024 15:06 22,3 °C 1,9 °C 47 % 84 % 996,7 hPa 0,0 l/m² 20,1 km/h (4 Bft) W-SW 238 ° 2 min 86 W/m² -0,5 °C -7,2 °C 25,7 km/h (4 Bft)
15.01.2024 15:08 22,3 °C 1,9 °C 47 % 84 % 996,6 hPa 0,0 l/m² 24,5 km/h (4 Bft) W-SW 247 ° 2 min 88 W/m² -0,5 °C -9,0 °C 32,2 km/h (5 Bft)
15.01.2024 15:10 22,3 °C 1,9 °C 47 % 84 % 996,6 hPa 0,0 l/m² 20,9 km/h (4 Bft) W-SW 242 ° 2 min 88 W/m² -0,5 °C -7,6 °C 27,4 km/h (5 Bft)
15.01.2024 15:12 22,3 °C 1,9 °C 47 % 84 % 996,6 hPa 0,0 l/m² 22,6 km/h (4 Bft) W-SW 237 ° 2 min 93 W/m² -0,5 °C -8,3 °C 29,0 km/h (5 Bft)
15.01.2024 15:14 22,3 °C 1,9 °C 47 % 84 % 996,7 hPa 0,0 l/m² 23,3 km/h (4 Bft) W-SW 243 ° 2 min 88 W/m² -0,5 °C -8,5 °C 29,0 km/h (5 Bft)
15.01.2024 15:15 22,3 °C 1,9 °C 47 % 84 % 996,7 hPa 0,0 l/m² 21,8 km/h (4 Bft) W-SW 252 ° 1 min 86 W/m² -0,5 °C -7,9 °C 29,0 km/h (5 Bft)
15.01.2024 15:16 22,3 °C 1,9 °C 47 % 84 % 996,6 hPa 0,0 l/m² 24,0 km/h (4 Bft) W-SW 249 ° 1 min 86 W/m² -0,5 °C -8,8 °C 30,6 km/h (5 Bft)
15.01.2024 15:17 22,3 °C 2,0 °C 47 % 84 % 996,6 hPa 0,0 l/m² 22,9 km/h (4 Bft) W-SW 244 ° 1 min 86 W/m² -0,4 °C -8,2 °C 27,4 km/h (5 Bft)
15.01.2024 15:19 22,3 °C 2,0 °C 47 % 84 % 996,8 hPa 0,0 l/m² 21,7 km/h (4 Bft) SW 232 ° 2 min 79 W/m² -0,4 °C -7,8 °C 30,6 km/h (5 Bft)
15.01.2024 15:21 22,3 °C 2,0 °C 47 % 84 % 996,8 hPa 0,0 l/m² 20,6 km/h (4 Bft) W-SW 254 ° 2 min 76 W/m² -0,4 °C -7,3 °C 33,8 km/h (5 Bft)
15.01.2024 15:22 22,3 °C 2,0 °C 47 % 83 % 996,8 hPa 0,0 l/m² 23,7 km/h (4 Bft) W 261 ° 1 min 74 W/m² -0,6 °C -8,5 °C 30,6 km/h (5 Bft)
15.01.2024 15:23 22,3 °C 2,0 °C 47 % 83 % 996,8 hPa 0,0 l/m² 24,0 km/h (4 Bft) W-SW 244 ° 1 min 74 W/m² -0,6 °C -8,7 °C 30,6 km/h (5 Bft)
15.01.2024 15:24 22,3 °C 2,0 °C 47 % 83 % 996,8 hPa 0,0 l/m² 23,1 km/h (4 Bft) W-SW 241 ° 1 min 77 W/m² -0,6 °C -8,3 °C 30,6 km/h (5 Bft)
15.01.2024 15:26 22,3 °C 2,1 °C 47 % 83 % 996,9 hPa 0,0 l/m² 27,1 km/h (5 Bft) W-SW 242 ° 2 min 77 W/m² -0,5 °C -9,6 °C 37,0 km/h (5 Bft)
15.01.2024 15:28 22,3 °C 2,1 °C 48 % 83 % 996,8 hPa 0,0 l/m² 24,5 km/h (4 Bft) W-SW 245 ° 2 min 74 W/m² -0,5 °C -8,7 °C 32,2 km/h (5 Bft)
15.01.2024 15:30 22,3 °C 2,2 °C 48 % 83 % 996,9 hPa 0,0 l/m² 21,8 km/h (4 Bft) W-SW 239 ° 2 min 102 W/m² -0,4 °C -7,5 °C 27,4 km/h (5 Bft)
15.01.2024 15:32 22,3 °C 2,3 °C 48 % 83 % 996,9 hPa 0,0 l/m² 20,8 km/h (4 Bft) W-SW 249 ° 2 min 91 W/m² -0,3 °C -7,0 °C 27,4 km/h (5 Bft)
15.01.2024 15:33 22,3 °C 2,3 °C 48 % 83 % 997,0 hPa 0,0 l/m² 20,2 km/h (4 Bft) W-SW 244 ° 1 min 72 W/m² -0,3 °C -6,7 °C 25,7 km/h (4 Bft)
15.01.2024 15:35 22,3 °C 2,3 °C 48 % 83 % 996,9 hPa 0,0 l/m² 18,3 km/h (3 Bft) W-SW 248 ° 2 min 56 W/m² -0,3 °C -5,9 °C 25,7 km/h (4 Bft)
15.01.2024 15:37 22,3 °C 2,3 °C 48 % 82 % 997,0 hPa 0,0 l/m² 17,5 km/h (3 Bft) W-SW 254 ° 0 min 44 W/m² -0,4 °C -5,5 °C 22,5 km/h (4 Bft)
15.01.2024 15:39 22,3 °C 2,3 °C 48 % 82 % 997,0 hPa 0,0 l/m² 15,4 km/h (3 Bft) W-SW 244 ° 0 min 35 W/m² -0,4 °C -4,4 °C 20,9 km/h (4 Bft)
15.01.2024 15:41 22,3 °C 2,2 °C 48 % 83 % 997,1 hPa 0,0 l/m² 16,7 km/h (3 Bft) W-SW 250 ° 0 min 25 W/m² -0,4 °C -5,2 °C 20,9 km/h (4 Bft)
15.01.2024 15:42 22,3 °C 2,2 °C 48 % 83 % 997,1 hPa 0,0 l/m² 15,6 km/h (3 Bft) W-SW 244 ° 0 min 19 W/m² -0,4 °C -4,6 °C 19,3 km/h (3 Bft)
15.01.2024 15:43 22,3 °C 2,2 °C 48 % 83 % 997,1 hPa 0,0 l/m² 17,4 km/h (3 Bft) W 264 ° 0 min 18 W/m² -0,4 °C -5,6 °C 20,9 km/h (4 Bft)
15.01.2024 15:44 22,3 °C 2,1 °C 48 % 82 % 997,1 hPa 0,0 l/m² 15,9 km/h (3 Bft) SW 227 ° 0 min 16 W/m² -0,6 °C -4,9 °C 20,9 km/h (4 Bft)
15.01.2024 15:47 22,3 °C 2,1 °C 48 % 82 % 997,2 hPa 0,0 l/m² 18,8 km/h (3 Bft) W-SW 244 ° 0 min 23 W/m² -0,6 °C -6,4 °C 24,1 km/h (4 Bft)
15.01.2024 15:49 22,2 °C 2,1 °C 48 % 82 % 997,2 hPa 0,0 l/m² 20,9 km/h (4 Bft) SW 226 ° 0 min 30 W/m² -0,6 °C -7,3 °C 29,0 km/h (5 Bft)
15.01.2024 15:51 22,2 °C 2,1 °C 48 % 81 % 997,3 hPa 0,0 l/m² 20,8 km/h (4 Bft) W-SW 248 ° 0 min 33 W/m² -0,8 °C -7,3 °C 25,7 km/h (4 Bft)
15.01.2024 15:52 22,2 °C 2,1 °C 48 % 81 % 997,3 hPa 0,0 l/m² 21,2 km/h (4 Bft) W-SW 255 ° 0 min 33 W/m² -0,8 °C -7,4 °C 29,0 km/h (5 Bft)
15.01.2024 15:53 22,2 °C 2,1 °C 48 % 81 % 997,3 hPa 0,0 l/m² 23,2 km/h (4 Bft) W-SW 250 ° 0 min 32 W/m² -0,8 °C -8,2 °C 29,0 km/h (5 Bft)
15.01.2024 15:54 22,2 °C 2,1 °C 48 % 81 % 997,2 hPa 0,0 l/m² 18,9 km/h (3 Bft) SW 215 ° 0 min 30 W/m² -0,8 °C -6,4 °C 24,1 km/h (4 Bft)
15.01.2024 15:55 22,2 °C 2,1 °C 48 % 81 % 997,1 hPa 0,0 l/m² 21,7 km/h (4 Bft) SW 232 ° 0 min 32 W/m² -0,8 °C -7,6 °C 25,7 km/h (4 Bft)
15.01.2024 15:57 22,2 °C 2,1 °C 48 % 81 % 997,1 hPa 0,0 l/m² 25,0 km/h (4 Bft) W-SW 239 ° 0 min 33 W/m² -0,8 °C -8,9 °C 30,6 km/h (5 Bft)
15.01.2024 15:59 22,2 °C 2,1 °C 48 % 81 % 997,1 hPa 0,0 l/m² 21,6 km/h (4 Bft) W-SW 240 ° 0 min 32 W/m² -0,8 °C -7,6 °C 29,0 km/h (5 Bft)
15.01.2024 16:01 22,2 °C 2,1 °C 48 % 81 % 997,2 hPa 0,0 l/m² 21,5 km/h (4 Bft) W-SW 238 ° 0 min 25 W/m² -0,8 °C -7,6 °C 27,4 km/h (5 Bft)
15.01.2024 16:02 22,2 °C 2,1 °C 48 % 81 % 997,1 hPa 0,0 l/m² 19,5 km/h (3 Bft) W-SW 238 ° 0 min 23 W/m² -0,8 °C -6,7 °C 24,1 km/h (4 Bft)
15.01.2024 16:03 22,2 °C 2,1 °C 48 % 81 % 997,1 hPa 0,0 l/m² 20,2 km/h (4 Bft) SW 234 ° 0 min 21 W/m² -0,8 °C -7,0 °C 24,1 km/h (4 Bft)
15.01.2024 16:04 22,2 °C 2,0 °C 48 % 81 % 997,2 hPa 0,0 l/m² 19,8 km/h (3 Bft) SW 234 ° 0 min 18 W/m² -0,9 °C -7,0 °C 25,7 km/h (4 Bft)
15.01.2024 16:05 22,2 °C 2,0 °C 48 % 81 % 997,2 hPa 0,0 l/m² 19,8 km/h (3 Bft) SW 236 ° 0 min 16 W/m² -0,9 °C -7,0 °C 24,1 km/h (4 Bft)
15.01.2024 16:07 22,2 °C 1,9 °C 48 % 81 % 997,4 hPa 0,0 l/m² 20,9 km/h (4 Bft) SW 236 ° 0 min 12 W/m² -1,0 °C -7,6 °C 27,4 km/h (5 Bft)
15.01.2024 16:09 22,2 °C 1,9 °C 48 % 82 % 997,3 hPa 0,0 l/m² 16,7 km/h (3 Bft) SW 225 ° 0 min 12 W/m² -0,8 °C -5,6 °C 20,9 km/h (4 Bft)
15.01.2024 16:11 22,2 °C 1,9 °C 48 % 82 % 997,4 hPa 0,0 l/m² 20,5 km/h (4 Bft) SW 234 ° 0 min 11 W/m² -0,8 °C -7,4 °C 27,4 km/h (5 Bft)
15.01.2024 16:12 22,1 °C 1,9 °C 48 % 82 % 997,4 hPa 0,0 l/m² 19,4 km/h (3 Bft) SW 230 ° 0 min 11 W/m² -0,8 °C -6,9 °C 22,5 km/h (4 Bft)
15.01.2024 16:13 22,1 °C 1,9 °C 48 % 82 % 997,4 hPa 0,0 l/m² 20,5 km/h (4 Bft) W-SW 240 ° 0 min 11 W/m² -0,8 °C -7,4 °C 25,7 km/h (4 Bft)
15.01.2024 16:14 22,1 °C 1,9 °C 48 % 82 % 997,5 hPa 0,0 l/m² 23,3 km/h (4 Bft) SW 226 ° 0 min 11 W/m² -0,8 °C -8,5 °C 30,6 km/h (5 Bft)
15.01.2024 16:15 22,1 °C 1,9 °C 48 % 82 % 997,4 hPa 0,0 l/m² 21,2 km/h (4 Bft) W-SW 243 ° 0 min 11 W/m² -0,8 °C -7,7 °C 25,7 km/h (4 Bft)
15.01.2024 16:17 22,1 °C 1,9 °C 48 % 82 % 997,4 hPa 0,0 l/m² 19,3 km/h (3 Bft) SW 217 ° 0 min 9 W/m² -0,8 °C -6,9 °C 25,7 km/h (4 Bft)
15.01.2024 16:19 22,1 °C 1,9 °C 48 % 82 % 997,5 hPa 0,0 l/m² 18,0 km/h (3 Bft) W-SW 242 ° 0 min 9 W/m² -0,8 °C -6,3 °C 24,1 km/h (4 Bft)
15.01.2024 16:21 22,1 °C 1,8 °C 48 % 82 % 997,5 hPa 0,0 l/m² 16,6 km/h (3 Bft) SW 227 ° 0 min 9 W/m² -0,9 °C -5,7 °C 24,1 km/h (4 Bft)
15.01.2024 16:22 22,1 °C 1,8 °C 48 % 82 % 997,4 hPa 0,0 l/m² 19,0 km/h (3 Bft) SW 230 ° 0 min 9 W/m² -0,9 °C -6,9 °C 24,1 km/h (4 Bft)
15.01.2024 16:23 22,1 °C 1,8 °C 48 % 82 % 997,4 hPa 0,0 l/m² 18,5 km/h (3 Bft) SW 225 ° 0 min 9 W/m² -0,9 °C -6,6 °C 22,5 km/h (4 Bft)
15.01.2024 16:25 22,1 °C 1,8 °C 48 % 82 % 997,6 hPa 0,0 l/m² 14,5 km/h (3 Bft) SW 226 ° 0 min 7 W/m² -0,9 °C -4,5 °C 22,5 km/h (4 Bft)
15.01.2024 16:27 22,1 °C 1,8 °C 48 % 83 % 997,5 hPa 0,0 l/m² 16,1 km/h (3 Bft) SW 236 ° 0 min 7 W/m² -0,8 °C -5,4 °C 20,9 km/h (4 Bft)
15.01.2024 16:29 22,1 °C 1,7 °C 48 % 83 % 997,5 hPa 0,0 l/m² 17,9 km/h (3 Bft) SW 229 ° 0 min 5 W/m² -0,9 °C -6,5 °C 22,5 km/h (4 Bft)
15.01.2024 16:31 22,1 °C 1,6 °C 48 % 83 % 997,6 hPa 0,0 l/m² 18,1 km/h (3 Bft) W-SW 238 ° 0 min 5 W/m² -1,0 °C -6,7 °C 25,7 km/h (4 Bft)
15.01.2024 16:32 22,1 °C 1,6 °C 48 % 83 % 997,5 hPa 0,0 l/m² 18,0 km/h (3 Bft) SW 221 ° 0 min 5 W/m² -1,0 °C -6,6 °C 22,5 km/h (4 Bft)
15.01.2024 16:33 22,1 °C 1,6 °C 48 % 83 % 997,5 hPa 0,0 l/m² 22,3 km/h (4 Bft) SW 228 ° 0 min 5 W/m² -1,0 °C -8,5 °C 29,0 km/h (5 Bft)
15.01.2024 16:34 22,1 °C 1,6 °C 48 % 83 % 997,6 hPa 0,0 l/m² 17,0 km/h (3 Bft) W-SW 238 ° 0 min 5 W/m² -1,0 °C -6,1 °C 20,9 km/h (4 Bft)
15.01.2024 16:35 22,1 °C 1,6 °C 48 % 83 % 997,6 hPa 0,0 l/m² 18,3 km/h (3 Bft) W-SW 241 ° 0 min 5 W/m² -1,0 °C -6,8 °C 22,5 km/h (4 Bft)
15.01.2024 16:37 22,1 °C 1,4 °C 48 % 84 % 997,5 hPa 0,0 l/m² 17,4 km/h (3 Bft) W-SW 244 ° 0 min 5 W/m² -1,0 °C -6,6 °C 22,5 km/h (4 Bft)
15.01.2024 16:39 22,0 °C 1,4 °C 48 % 84 % 997,7 hPa 0,0 l/m² 17,2 km/h (3 Bft) W-SW 250 ° 0 min 0 W/m² -1,0 °C -6,5 °C 24,1 km/h (4 Bft)
15.01.2024 16:41 22,0 °C 1,4 °C 48 % 84 % 997,6 hPa 0,0 l/m² 18,3 km/h (3 Bft) SW 235 ° 0 min 0 W/m² -1,0 °C -7,0 °C 20,9 km/h (4 Bft)
15.01.2024 16:42 22,0 °C 1,4 °C 48 % 84 % 997,7 hPa 0,0 l/m² 18,7 km/h (3 Bft) W-SW 245 ° 0 min 0 W/m² -1,0 °C -7,2 °C 24,1 km/h (4 Bft)
15.01.2024 16:43 22,0 °C 1,4 °C 48 % 84 % 997,7 hPa 0,0 l/m² 20,8 km/h (4 Bft) SW 231 ° 0 min 0 W/m² -1,0 °C -8,2 °C 25,7 km/h (4 Bft)
15.01.2024 16:44 22,0 °C 1,3 °C 48 % 84 % 997,8 hPa 0,0 l/m² 17,7 km/h (3 Bft) SW 226 ° 0 min 0 W/m² -1,1 °C -6,9 °C 22,5 km/h (4 Bft)
15.01.2024 16:46 22,0 °C 1,3 °C 48 % 84 % 997,8 hPa 0,0 l/m² 20,2 km/h (4 Bft) W-SW 245 ° 0 min 0 W/m² -1,1 °C -8,0 °C 27,4 km/h (5 Bft)
15.01.2024 16:48 22,0 °C 1,3 °C 47 % 84 % 997,7 hPa 0,0 l/m² 21,8 km/h (4 Bft) W-SW 242 ° 0 min 0 W/m² -1,1 °C -8,7 °C 27,4 km/h (5 Bft)
15.01.2024 16:50 22,0 °C 1,3 °C 47 % 84 % 997,7 hPa 0,0 l/m² 18,5 km/h (3 Bft) SW 231 ° 0 min 0 W/m² -1,1 °C -7,3 °C 27,4 km/h (5 Bft)
15.01.2024 16:52 22,0 °C 1,3 °C 47 % 84 % 997,7 hPa 0,0 l/m² 15,3 km/h (3 Bft) SW 227 ° 0 min 0 W/m² -1,1 °C -5,6 °C 20,9 km/h (4 Bft)
15.01.2024 16:53 22,0 °C 1,3 °C 47 % 84 % 997,8 hPa 0,0 l/m² 17,2 km/h (3 Bft) SW 225 ° 0 min 0 W/m² -1,1 °C -6,6 °C 24,1 km/h (4 Bft)
15.01.2024 16:54 22,0 °C 1,3 °C 47 % 84 % 997,8 hPa 0,0 l/m² 17,3 km/h (3 Bft) W-SW 247 ° 0 min 0 W/m² -1,1 °C -6,7 °C 20,9 km/h (4 Bft)
15.01.2024 16:56 21,9 °C 1,2 °C 47 % 85 % 997,8 hPa 0,0 l/m² 17,0 km/h (3 Bft) SW 236 ° 0 min 0 W/m² -1,0 °C -6,6 °C 24,1 km/h (4 Bft)
15.01.2024 16:58 21,9 °C 1,2 °C 47 % 85 % 997,9 hPa 0,0 l/m² 15,7 km/h (3 Bft) SW 218 ° 0 min 0 W/m² -1,0 °C -5,9 °C 20,9 km/h (4 Bft)
15.01.2024 17:00 21,9 °C 1,2 °C 47 % 85 % 997,9 hPa 0,0 l/m² 17,6 km/h (3 Bft) SW 230 ° 0 min 0 W/m² -1,0 °C -6,9 °C 25,7 km/h (4 Bft)
15.01.2024 17:02 21,9 °C 1,2 °C 47 % 85 % 997,9 hPa 0,0 l/m² 15,5 km/h (3 Bft) SW 227 ° 0 min 0 W/m² -1,0 °C -5,8 °C 20,9 km/h (4 Bft)
15.01.2024 17:03 21,9 °C 1,2 °C 47 % 85 % 997,9 hPa 0,0 l/m² 18,5 km/h (3 Bft) SW 227 ° 0 min 0 W/m² -1,0 °C -7,4 °C 24,1 km/h (4 Bft)
15.01.2024 17:04 21,9 °C 1,2 °C 47 % 85 % 997,9 hPa 0,0 l/m² 15,6 km/h (3 Bft) SW 227 ° 0 min 0 W/m² -1,0 °C -5,9 °C 20,9 km/h (4 Bft)
15.01.2024 17:06 21,9 °C 1,2 °C 47 % 85 % 997,8 hPa 0,0 l/m² 17,4 km/h (3 Bft) SW 216 ° 0 min 0 W/m² -1,0 °C -6,8 °C 25,7 km/h (4 Bft)
15.01.2024 17:08 21,9 °C 1,2 °C 48 % 85 % 997,8 hPa 0,0 l/m² 15,6 km/h (3 Bft) SW 236 ° 0 min 0 W/m² -1,0 °C -5,9 °C 22,5 km/h (4 Bft)
15.01.2024 17:10 21,9 °C 1,2 °C 48 % 85 % 997,9 hPa 0,0 l/m² 16,4 km/h (3 Bft) W-SW 237 ° 0 min 0 W/m² -1,0 °C -6,3 °C 25,7 km/h (4 Bft)
15.01.2024 17:12 21,9 °C 1,2 °C 47 % 85 % 997,8 hPa 0,0 l/m² 13,8 km/h (3 Bft) SW 228 ° 0 min 0 W/m² -1,0 °C -4,8 °C 24,1 km/h (4 Bft)
15.01.2024 17:13 21,9 °C 1,2 °C 45 % 85 % 997,8 hPa 0,0 l/m² 19,9 km/h (4 Bft) W-SW 238 ° 0 min 0 W/m² -1,0 °C -8,0 °C 24,1 km/h (4 Bft)
15.01.2024 17:14 21,9 °C 1,2 °C 45 % 85 % 997,8 hPa 0,0 l/m² 18,6 km/h (3 Bft) S-SW 209 ° 0 min 0 W/m² -1,0 °C -7,4 °C 22,5 km/h (4 Bft)
15.01.2024 17:16 21,9 °C 1,1 °C 44 % 85 % 997,8 hPa 0,0 l/m² 18,6 km/h (3 Bft) SW 234 ° 0 min 0 W/m² -1,1 °C -7,6 °C 27,4 km/h (5 Bft)
15.01.2024 17:18 21,8 °C 1,2 °C 45 % 85 % 997,8 hPa 0,0 l/m² 15,6 km/h (3 Bft) SW 215 ° 0 min 0 W/m² -1,0 °C -5,9 °C 22,5 km/h (4 Bft)
15.01.2024 17:20 21,8 °C 1,2 °C 45 % 85 % 997,8 hPa 0,0 l/m² 20,4 km/h (4 Bft) SW 233 ° 0 min 0 W/m² -1,0 °C -8,3 °C 24,1 km/h (4 Bft)
15.01.2024 17:22 21,8 °C 1,2 °C 45 % 84 % 997,8 hPa 0,0 l/m² 19,3 km/h (3 Bft) SW 229 ° 0 min 0 W/m² -1,2 °C -7,8 °C 27,4 km/h (5 Bft)
15.01.2024 17:23 21,8 °C 1,2 °C 45 % 84 % 997,7 hPa 0,0 l/m² 19,0 km/h (3 Bft) SW 232 ° 0 min 0 W/m² -1,2 °C -7,6 °C 22,5 km/h (4 Bft)
15.01.2024 17:24 21,8 °C 1,2 °C 45 % 84 % 997,7 hPa 0,0 l/m² 20,6 km/h (4 Bft) SW 229 ° 0 min 0 W/m² -1,2 °C -8,3 °C 24,1 km/h (4 Bft)
15.01.2024 17:26 21,8 °C 1,2 °C 45 % 84 % 997,7 hPa 0,0 l/m² 17,0 km/h (3 Bft) W-SW 237 ° 0 min 0 W/m² -1,2 °C -6,6 °C 29,0 km/h (5 Bft)
15.01.2024 17:28 21,8 °C 1,2 °C 45 % 84 % 997,8 hPa 0,0 l/m² 21,5 km/h (4 Bft) SW 236 ° 0 min 0 W/m² -1,2 °C -8,7 °C 29,0 km/h (5 Bft)
15.01.2024 17:30 21,8 °C 1,2 °C 45 % 84 % 997,8 hPa 0,0 l/m² 21,2 km/h (4 Bft) SW 236 ° 0 min 0 W/m² -1,2 °C -8,6 °C 27,4 km/h (5 Bft)
15.01.2024 17:32 21,7 °C 1,2 °C 44 % 84 % 997,9 hPa 0,0 l/m² 17,9 km/h (3 Bft) S-SW 211 ° 0 min 0 W/m² -1,2 °C -7,1 °C 25,7 km/h (4 Bft)
15.01.2024 17:33 21,7 °C 1,2 °C 44 % 84 % 997,8 hPa 0,0 l/m² 22,1 km/h (4 Bft) SW 232 ° 0 min 0 W/m² -1,2 °C -9,0 °C 27,4 km/h (5 Bft)
15.01.2024 17:34 21,7 °C 1,2 °C 44 % 84 % 997,8 hPa 0,0 l/m² 17,0 km/h (3 Bft) W-SW 238 ° 0 min 0 W/m² -1,2 °C -6,6 °C 22,5 km/h (4 Bft)
15.01.2024 17:36 21,7 °C 1,3 °C 45 % 84 % 998,0 hPa 0,0 l/m² 19,9 km/h (4 Bft) SW 232 ° 0 min 0 W/m² -1,1 °C -7,9 °C 27,4 km/h (5 Bft)
15.01.2024 17:38 21,7 °C 1,2 °C 45 % 84 % 998,0 hPa 0,0 l/m² 15,9 km/h (3 Bft) W 259 ° 0 min 0 W/m² -1,2 °C -6,0 °C 24,1 km/h (4 Bft)
15.01.2024 17:40 21,7 °C 1,3 °C 45 % 84 % 998,0 hPa 0,0 l/m² 17,7 km/h (3 Bft) W-SW 248 ° 0 min 0 W/m² -1,1 °C -6,9 °C 25,7 km/h (4 Bft)
15.01.2024 17:42 21,7 °C 1,2 °C 45 % 84 % 998,0 hPa 0,0 l/m² 17,2 km/h (3 Bft) SW 236 ° 0 min 0 W/m² -1,2 °C -6,7 °C 25,7 km/h (4 Bft)
15.01.2024 17:43 21,7 °C 1,2 °C 45 % 84 % 998,0 hPa 0,0 l/m² 14,1 km/h (3 Bft) W-SW 252 ° 0 min 0 W/m² -1,2 °C -5,0 °C 29,0 km/h (5 Bft)
15.01.2024 17:44 21,7 °C 1,2 °C 45 % 84 % 998,0 hPa 0,0 l/m² 18,1 km/h (3 Bft) SW 231 ° 0 min 0 W/m² -1,2 °C -7,2 °C 22,5 km/h (4 Bft)
15.01.2024 17:46 21,8 °C 1,2 °C 46 % 84 % 998,0 hPa 0,0 l/m² 19,5 km/h (3 Bft) SW 236 ° 0 min 0 W/m² -1,2 °C -7,9 °C 25,7 km/h (4 Bft)
15.01.2024 17:48 21,7 °C 1,2 °C 46 % 84 % 998,0 hPa 0,0 l/m² 17,4 km/h (3 Bft) SW 219 ° 0 min 0 W/m² -1,2 °C -6,8 °C 22,5 km/h (4 Bft)
15.01.2024 17:50 21,8 °C 1,2 °C 46 % 84 % 998,1 hPa 0,0 l/m² 22,6 km/h (4 Bft) W-SW 244 ° 0 min 0 W/m² -1,2 °C -9,2 °C 29,0 km/h (5 Bft)
15.01.2024 17:52 21,8 °C 1,3 °C 46 % 84 % 998,1 hPa 0,0 l/m² 19,2 km/h (3 Bft) SW 222 ° 0 min 0 W/m² -1,1 °C -7,6 °C 25,7 km/h (4 Bft)
15.01.2024 17:53 21,8 °C 1,3 °C 46 % 84 % 998,1 hPa 0,0 l/m² 20,8 km/h (4 Bft) W-SW 239 ° 0 min 0 W/m² -1,1 °C -8,3 °C 27,4 km/h (5 Bft)
15.01.2024 17:54 21,8 °C 1,3 °C 46 % 84 % 998,1 hPa 0,0 l/m² 19,3 km/h (3 Bft) SW 230 ° 0 min 0 W/m² -1,1 °C -7,6 °C 20,9 km/h (4 Bft)
15.01.2024 17:56 21,8 °C 1,3 °C 46 % 84 % 998,1 hPa 0,0 l/m² 15,9 km/h (3 Bft) SW 223 ° 0 min 0 W/m² -1,1 °C -5,9 °C 22,5 km/h (4 Bft)
15.01.2024 17:58 21,8 °C 1,3 °C 46 % 84 % 998,1 hPa 0,0 l/m² 19,1 km/h (3 Bft) SW 221 ° 0 min 0 W/m² -1,1 °C -7,5 °C 25,7 km/h (4 Bft)
15.01.2024 18:00 21,8 °C 1,3 °C 47 % 84 % 998,1 hPa 0,0 l/m² 19,1 km/h (3 Bft) W-SW 252 ° 0 min 0 W/m² -1,1 °C -7,5 °C 25,7 km/h (4 Bft)
15.01.2024 18:02 21,8 °C 1,3 °C 47 % 84 % 998,1 hPa 0,0 l/m² 23,4 km/h (4 Bft) SW 232 ° 0 min 0 W/m² -1,1 °C -9,4 °C 29,0 km/h (5 Bft)
15.01.2024 18:03 21,8 °C 1,3 °C 47 % 84 % 998,1 hPa 0,0 l/m² 18,5 km/h (3 Bft) SW 225 ° 0 min 0 W/m² -1,1 °C -7,3 °C 25,7 km/h (4 Bft)
15.01.2024 18:04 21,8 °C 1,3 °C 47 % 83 % 998,1 hPa 0,0 l/m² 19,1 km/h (3 Bft) SW 224 ° 0 min 0 W/m² -1,3 °C -7,5 °C 25,7 km/h (4 Bft)
15.01.2024 18:06 21,9 °C 1,3 °C 47 % 83 % 998,1 hPa 0,0 l/m² 20,6 km/h (4 Bft) W-SW 238 ° 0 min 0 W/m² -1,3 °C -8,2 °C 29,0 km/h (5 Bft)
15.01.2024 18:08 21,9 °C 1,3 °C 47 % 83 % 998,1 hPa 0,0 l/m² 21,8 km/h (4 Bft) SW 225 ° 0 min 0 W/m² -1,3 °C -8,7 °C 29,0 km/h (5 Bft)
15.01.2024 18:10 21,9 °C 1,3 °C 47 % 83 % 998,1 hPa 0,0 l/m² 18,4 km/h (3 Bft) W-SW 243 ° 0 min 0 W/m² -1,3 °C -7,2 °C 30,6 km/h (5 Bft)
15.01.2024 18:12 21,9 °C 1,3 °C 47 % 84 % 998,1 hPa 0,0 l/m² 19,5 km/h (3 Bft) SW 232 ° 0 min 0 W/m² -1,1 °C -7,7 °C 29,0 km/h (5 Bft)
15.01.2024 18:13 21,9 °C 1,3 °C 47 % 84 % 998,1 hPa 0,0 l/m² 20,3 km/h (4 Bft) S-SW 205 ° 0 min 0 W/m² -1,1 °C -8,1 °C 29,0 km/h (5 Bft)
15.01.2024 18:14 21,9 °C 1,3 °C 47 % 84 % 998,1 hPa 0,0 l/m² 19,0 km/h (3 Bft) W-SW 242 ° 0 min 0 W/m² -1,1 °C -7,5 °C 24,1 km/h (4 Bft)
15.01.2024 18:16 21,9 °C 1,3 °C 47 % 84 % 998,2 hPa 0,0 l/m² 21,3 km/h (4 Bft) W-SW 237 ° 0 min 0 W/m² -1,1 °C -8,5 °C 33,8 km/h (5 Bft)
15.01.2024 18:18 21,9 °C 1,4 °C 47 % 83 % 998,3 hPa 0,0 l/m² 26,7 km/h (4 Bft) W-SW 239 ° 0 min 0 W/m² -1,2 °C -10,4 °C 35,4 km/h (5 Bft)
15.01.2024 18:20 21,9 °C 1,4 °C 47 % 83 % 998,2 hPa 0,0 l/m² 24,4 km/h (4 Bft) SW 223 ° 0 min 0 W/m² -1,2 °C -9,6 °C 32,2 km/h (5 Bft)
15.01.2024 18:22 21,8 °C 1,4 °C 47 % 84 % 998,3 hPa 0,0 l/m² 19,3 km/h (3 Bft) SW 224 ° 0 min 0 W/m² -1,0 °C -7,5 °C 32,2 km/h (5 Bft)
15.01.2024 18:23 21,8 °C 1,4 °C 47 % 84 % 998,3 hPa 0,0 l/m² 18,6 km/h (3 Bft) SW 229 ° 0 min 0 W/m² -1,0 °C -7,2 °C 24,1 km/h (4 Bft)
15.01.2024 18:24 21,8 °C 1,4 °C 47 % 84 % 998,3 hPa 0,0 l/m² 19,5 km/h (3 Bft) SW 236 ° 0 min 0 W/m² -1,0 °C -7,6 °C 22,5 km/h (4 Bft)
15.01.2024 18:26 21,8 °C 1,4 °C 47 % 84 % 998,2 hPa 0,0 l/m² 22,7 km/h (4 Bft) W-SW 241 ° 0 min 0 W/m² -1,0 °C -9,0 °C 32,2 km/h (5 Bft)
15.01.2024 18:28 21,8 °C 1,4 °C 47 % 84 % 998,3 hPa 0,0 l/m² 21,4 km/h (4 Bft) SW 229 ° 0 min 0 W/m² -1,0 °C -8,4 °C 32,2 km/h (5 Bft)
15.01.2024 18:30 21,8 °C 1,4 °C 47 % 84 % 998,3 hPa 0,0 l/m² 21,9 km/h (4 Bft) SW 225 ° 0 min 0 W/m² -1,0 °C -8,6 °C 30,6 km/h (5 Bft)
15.01.2024 18:32 21,8 °C 1,5 °C 47 % 84 % 998,3 hPa 0,0 l/m² 24,4 km/h (4 Bft) SW 226 ° 0 min 0 W/m² -0,9 °C -9,5 °C 32,2 km/h (5 Bft)
15.01.2024 18:33 21,8 °C 1,4 °C 47 % 84 % 998,4 hPa 0,0 l/m² 18,5 km/h (3 Bft) W-SW 242 ° 0 min 0 W/m² -1,0 °C -7,1 °C 24,1 km/h (4 Bft)
15.01.2024 18:35 21,8 °C 1,5 °C 47 % 84 % 998,4 hPa 0,0 l/m² 22,7 km/h (4 Bft) SW 235 ° 0 min 0 W/m² -0,9 °C -8,8 °C 32,2 km/h (5 Bft)
15.01.2024 18:37 21,8 °C 1,5 °C 47 % 84 % 998,4 hPa 0,0 l/m² 23,8 km/h (4 Bft) W-SW 242 ° 0 min 0 W/m² -0,9 °C -9,2 °C 30,6 km/h (5 Bft)
15.01.2024 18:39 21,8 °C 1,5 °C 47 % 84 % 998,4 hPa 0,0 l/m² 24,1 km/h (4 Bft) SW 226 ° 0 min 0 W/m² -0,9 °C -9,4 °C 40,2 km/h (6 Bft)
15.01.2024 18:41 21,8 °C 1,5 °C 47 % 84 % 998,4 hPa 0,0 l/m² 24,3 km/h (4 Bft) SW 234 ° 0 min 0 W/m² -0,9 °C -9,4 °C 33,8 km/h (5 Bft)
15.01.2024 18:42 21,8 °C 1,5 °C 47 % 84 % 998,3 hPa 0,0 l/m² 23,5 km/h (4 Bft) SW 225 ° 0 min 0 W/m² -0,9 °C -9,1 °C 33,8 km/h (5 Bft)
15.01.2024 18:43 21,8 °C 1,4 °C 47 % 84 % 998,3 hPa 0,0 l/m² 22,9 km/h (4 Bft) W-SW 248 ° 0 min 0 W/m² -1,0 °C -9,0 °C 27,4 km/h (5 Bft)
15.01.2024 18:44 21,8 °C 1,4 °C 47 % 84 % 998,4 hPa 0,0 l/m² 25,6 km/h (4 Bft) SW 236 ° 0 min 0 W/m² -1,0 °C -10,0 °C 32,2 km/h (5 Bft)
15.01.2024 18:46 21,8 °C 1,4 °C 48 % 84 % 998,5 hPa 0,0 l/m² 21,9 km/h (4 Bft) W-SW 245 ° 0 min 0 W/m² -1,0 °C -8,6 °C 32,2 km/h (5 Bft)
15.01.2024 18:48 21,8 °C 1,4 °C 48 % 84 % 998,4 hPa 0,0 l/m² 21,2 km/h (4 Bft) SW 233 ° 0 min 0 W/m² -1,0 °C -8,3 °C 27,4 km/h (5 Bft)
15.01.2024 18:50 21,7 °C 1,4 °C 48 % 84 % 998,5 hPa 0,0 l/m² 18,6 km/h (3 Bft) SW 235 ° 0 min 0 W/m² -1,0 °C -7,2 °C 25,7 km/h (4 Bft)
15.01.2024 18:52 21,7 °C 1,4 °C 48 % 84 % 998,5 hPa 0,0 l/m² 24,7 km/h (4 Bft) W-SW 238 ° 0 min 0 W/m² -1,0 °C -9,7 °C 33,8 km/h (5 Bft)
15.01.2024 18:53 21,7 °C 1,4 °C 48 % 84 % 998,6 hPa 0,0 l/m² 20,3 km/h (4 Bft) SW 225 ° 0 min 0 W/m² -1,0 °C -8,0 °C 25,7 km/h (4 Bft)
15.01.2024 18:54 21,7 °C 1,4 °C 48 % 84 % 998,6 hPa 0,0 l/m² 19,5 km/h (3 Bft) SW 228 ° 0 min 0 W/m² -1,0 °C -7,6 °C 22,5 km/h (4 Bft)
15.01.2024 18:56 21,7 °C 1,4 °C 48 % 84 % 998,5 hPa 0,0 l/m² 19,3 km/h (3 Bft) W-SW 238 ° 0 min 0 W/m² -1,0 °C -7,5 °C 27,4 km/h (5 Bft)
15.01.2024 18:58 21,7 °C 1,3 °C 48 % 84 % 998,6 hPa 0,0 l/m² 18,2 km/h (3 Bft) SW 229 ° 0 min 0 W/m² -1,1 °C -7,1 °C 29,0 km/h (5 Bft)
15.01.2024 19:00 21,7 °C 1,4 °C 48 % 84 % 998,6 hPa 0,0 l/m² 17,9 km/h (3 Bft) SW 223 ° 0 min 0 W/m² -1,0 °C -6,8 °C 22,5 km/h (4 Bft)
15.01.2024 19:02 21,7 °C 1,3 °C 48 % 84 % 998,6 hPa 0,0 l/m² 19,1 km/h (3 Bft) SW 226 ° 0 min 0 W/m² -1,1 °C -7,5 °C 27,4 km/h (5 Bft)
15.01.2024 19:03 21,7 °C 1,3 °C 48 % 84 % 998,5 hPa 0,0 l/m² 18,6 km/h (3 Bft) SW 225 ° 0 min 0 W/m² -1,1 °C -7,3 °C 22,5 km/h (4 Bft)
15.01.2024 19:05 21,7 °C 1,3 °C 48 % 84 % 998,5 hPa 0,0 l/m² 17,4 km/h (3 Bft) W-SW 250 ° 0 min 0 W/m² -1,1 °C -6,7 °C 22,5 km/h (4 Bft)
15.01.2024 19:07 21,7 °C 1,3 °C 48 % 84 % 998,5 hPa 0,0 l/m² 18,2 km/h (3 Bft) SW 217 ° 0 min 0 W/m² -1,1 °C -7,1 °C 29,0 km/h (5 Bft)
15.01.2024 19:09 21,7 °C 1,3 °C 48 % 84 % 998,5 hPa 0,0 l/m² 18,3 km/h (3 Bft) SW 233 ° 0 min 0 W/m² -1,1 °C -7,2 °C 30,6 km/h (5 Bft)
15.01.2024 19:11 21,7 °C 1,3 °C 48 % 84 % 998,6 hPa 0,0 l/m² 20,8 km/h (4 Bft) SW 224 ° 0 min 0 W/m² -1,1 °C -8,3 °C 32,2 km/h (5 Bft)
15.01.2024 19:12 21,7 °C 1,3 °C 48 % 85 % 998,6 hPa 0,0 l/m² 19,3 km/h (3 Bft) W-SW 238 ° 0 min 0 W/m² -0,9 °C -7,6 °C 29,0 km/h (5 Bft)
15.01.2024 19:13 21,7 °C 1,3 °C 48 % 85 % 998,6 hPa 0,0 l/m² 14,2 km/h (3 Bft) SW 234 ° 0 min 0 W/m² -0,9 °C -4,9 °C 22,5 km/h (4 Bft)
15.01.2024 19:15 21,7 °C 1,3 °C 48 % 85 % 998,6 hPa 0,0 l/m² 18,6 km/h (3 Bft) W-SW 238 ° 0 min 0 W/m² -0,9 °C -7,3 °C 24,1 km/h (4 Bft)
15.01.2024 19:17 21,7 °C 1,3 °C 48 % 84 % 998,6 hPa 0,0 l/m² 19,0 km/h (3 Bft) SW 223 ° 0 min 0 W/m² -1,1 °C -7,5 °C 27,4 km/h (5 Bft)
15.01.2024 19:19 21,7 °C 1,3 °C 48 % 84 % 998,7 hPa 0,0 l/m² 17,0 km/h (3 Bft) SW 219 ° 0 min 0 W/m² -1,1 °C -6,5 °C 24,1 km/h (4 Bft)
15.01.2024 19:21 21,7 °C 1,3 °C 47 % 84 % 998,6 hPa 0,0 l/m² 16,3 km/h (3 Bft) SW 232 ° 0 min 0 W/m² -1,1 °C -6,1 °C 22,5 km/h (4 Bft)
15.01.2024 19:22 21,6 °C 1,3 °C 47 % 84 % 998,6 hPa 0,0 l/m² 18,5 km/h (3 Bft) SW 224 ° 0 min 0 W/m² -1,1 °C -7,3 °C 27,4 km/h (5 Bft)
15.01.2024 19:23 21,6 °C 1,3 °C 47 % 84 % 998,6 hPa 0,0 l/m² 17,8 km/h (3 Bft) SW 228 ° 0 min 0 W/m² -1,1 °C -6,9 °C 22,5 km/h (4 Bft)
15.01.2024 19:24 21,6 °C 1,3 °C 46 % 84 % 998,7 hPa 0,0 l/m² 16,9 km/h (3 Bft) SW 226 ° 0 min 0 W/m² -1,1 °C -6,5 °C 22,5 km/h (4 Bft)
15.01.2024 19:26 21,6 °C 1,3 °C 46 % 84 % 998,7 hPa 0,0 l/m² 15,0 km/h (3 Bft) S-SW 198 ° 0 min 0 W/m² -1,1 °C -5,4 °C 20,9 km/h (4 Bft)
15.01.2024 19:28 21,6 °C 1,3 °C 47 % 84 % 998,7 hPa 0,0 l/m² 19,9 km/h (4 Bft) S-SW 212 ° 0 min 0 W/m² -1,1 °C -7,9 °C 27,4 km/h (5 Bft)
15.01.2024 19:30 21,6 °C 1,3 °C 47 % 84 % 998,7 hPa 0,0 l/m² 18,2 km/h (3 Bft) W-SW 240 ° 0 min 0 W/m² -1,1 °C -7,1 °C 27,4 km/h (5 Bft)
15.01.2024 19:32 21,6 °C 1,4 °C 47 % 84 % 998,8 hPa 0,0 l/m² 17,3 km/h (3 Bft) SW 221 ° 0 min 0 W/m² -1,0 °C -6,5 °C 24,1 km/h (4 Bft)
15.01.2024 19:33 21,6 °C 1,4 °C 47 % 84 % 998,8 hPa 0,0 l/m² 17,3 km/h (3 Bft) SW 224 ° 0 min 0 W/m² -1,0 °C -6,5 °C 20,9 km/h (4 Bft)
15.01.2024 19:34 21,6 °C 1,4 °C 47 % 84 % 998,8 hPa 0,0 l/m² 17,5 km/h (3 Bft) W-SW 244 ° 0 min 0 W/m² -1,0 °C -6,6 °C 19,3 km/h (3 Bft)
15.01.2024 19:36 21,6 °C 1,4 °C 47 % 84 % 998,8 hPa 0,0 l/m² 17,4 km/h (3 Bft) SW 232 ° 0 min 0 W/m² -1,0 °C -6,6 °C 24,1 km/h (4 Bft)
15.01.2024 19:38 21,6 °C 1,4 °C 48 % 84 % 998,9 hPa 0,0 l/m² 21,7 km/h (4 Bft) SW 226 ° 0 min 0 W/m² -1,0 °C -8,6 °C 29,0 km/h (5 Bft)
15.01.2024 19:40 21,6 °C 1,4 °C 48 % 84 % 998,9 hPa 0,0 l/m² 22,5 km/h (4 Bft) SW 222 ° 0 min 0 W/m² -1,0 °C -8,9 °C 30,6 km/h (5 Bft)
15.01.2024 19:42 21,6 °C 1,5 °C 48 % 84 % 999,0 hPa 0,0 l/m² 24,1 km/h (4 Bft) SW 233 ° 0 min 0 W/m² -0,9 °C -9,4 °C 32,2 km/h (5 Bft)
15.01.2024 19:43 21,6 °C 1,5 °C 49 % 84 % 998,9 hPa 0,0 l/m² 16,9 km/h (3 Bft) SW 225 ° 0 min 0 W/m² -0,9 °C -6,2 °C 24,1 km/h (4 Bft)
15.01.2024 19:44 21,6 °C 1,5 °C 49 % 84 % 998,9 hPa 0,0 l/m² 24,7 km/h (4 Bft) SW 227 ° 0 min 0 W/m² -0,9 °C -9,6 °C 27,4 km/h (5 Bft)
15.01.2024 19:46 21,7 °C 1,5 °C 49 % 84 % 999,1 hPa 0,0 l/m² 22,0 km/h (4 Bft) SW 222 ° 0 min 0 W/m² -0,9 °C -8,5 °C 30,6 km/h (5 Bft)
15.01.2024 19:48 21,7 °C 1,5 °C 50 % 84 % 999,1 hPa 0,0 l/m² 21,8 km/h (4 Bft) W-SW 240 ° 0 min 0 W/m² -0,9 °C -8,5 °C 29,0 km/h (5 Bft)
15.01.2024 19:50 21,7 °C 1,4 °C 50 % 85 % 999,1 hPa 0,0 l/m² 21,9 km/h (4 Bft) SW 228 ° 0 min 0 W/m² -0,8 °C -8,6 °C 30,6 km/h (5 Bft)
15.01.2024 19:52 21,7 °C 1,4 °C 50 % 85 % 999,2 hPa 0,0 l/m² 18,3 km/h (3 Bft) SW 219 ° 0 min 0 W/m² -0,8 °C -7,0 °C 22,5 km/h (4 Bft)
15.01.2024 19:53 21,7 °C 1,4 °C 51 % 85 % 999,3 hPa 0,0 l/m² 21,6 km/h (4 Bft) W-SW 245 ° 0 min 0 W/m² -0,8 °C -8,5 °C 25,7 km/h (4 Bft)
15.01.2024 19:54 21,7 °C 1,4 °C 51 % 85 % 999,3 hPa 0,0 l/m² 24,1 km/h (4 Bft) W-SW 237 ° 0 min 0 W/m² -0,8 °C -9,5 °C 27,4 km/h (5 Bft)
15.01.2024 19:56 21,7 °C 1,3 °C 51 % 86 % 999,3 hPa 0,0 l/m² 21,3 km/h (4 Bft) SW 220 ° 0 min 0 W/m² -0,8 °C -8,5 °C 30,6 km/h (5 Bft)
15.01.2024 19:58 21,7 °C 1,3 °C 51 % 86 % 999,3 hPa 0,0 l/m² 19,8 km/h (3 Bft) S-SW 213 ° 0 min 0 W/m² -0,8 °C -7,9 °C 30,6 km/h (5 Bft)
15.01.2024 20:00 21,7 °C 1,3 °C 51 % 86 % 999,3 hPa 0,0 l/m² 22,3 km/h (4 Bft) SW 227 ° 0 min 0 W/m² -0,8 °C -8,9 °C 30,6 km/h (5 Bft)
15.01.2024 20:02 21,7 °C 1,3 °C 51 % 86 % 999,4 hPa 0,0 l/m² 21,0 km/h (4 Bft) SW 221 ° 0 min 0 W/m² -0,8 °C -8,4 °C 27,4 km/h (5 Bft)
15.01.2024 20:03 21,7 °C 1,3 °C 50 % 87 % 999,5 hPa 0,0 l/m² 21,4 km/h (4 Bft) SW 231 ° 0 min 0 W/m² -0,6 °C -8,6 °C 27,4 km/h (5 Bft)
15.01.2024 20:04 21,7 °C 1,3 °C 50 % 87 % 999,5 hPa 0,0 l/m² 22,0 km/h (4 Bft) W-SW 242 ° 0 min 0 W/m² -0,6 °C -8,8 °C 27,4 km/h (5 Bft)
15.01.2024 20:06 21,7 °C 1,2 °C 50 % 87 % 999,5 hPa 0,0 l/m² 18,9 km/h (3 Bft) W-SW 239 ° 0 min 0 W/m² -0,7 °C -7,6 °C 24,1 km/h (4 Bft)
15.01.2024 20:08 21,7 °C 1,2 °C 50 % 87 % 999,5 hPa 0,0 l/m² 17,6 km/h (3 Bft) SW 227 ° 0 min 0 W/m² -0,7 °C -6,9 °C 24,1 km/h (4 Bft)
15.01.2024 20:10 21,7 °C 1,2 °C 50 % 87 % 999,5 hPa 0,0 l/m² 17,5 km/h (3 Bft) W-SW 245 ° 0 min 0 W/m² -0,7 °C -6,9 °C 22,5 km/h (4 Bft)
15.01.2024 20:12 21,7 °C 1,1 °C 50 % 87 % 999,5 hPa 0,0 l/m² 18,0 km/h (3 Bft) W-SW 244 ° 0 min 0 W/m² -0,8 °C -7,3 °C 30,6 km/h (5 Bft)
15.01.2024 20:13 21,7 °C 1,1 °C 50 % 88 % 999,6 hPa 0,0 l/m² 18,2 km/h (3 Bft) SW 225 ° 0 min 0 W/m² -0,7 °C -7,4 °C 20,9 km/h (4 Bft)
15.01.2024 20:14 21,7 °C 1,1 °C 50 % 88 % 999,6 hPa 0,0 l/m² 17,7 km/h (3 Bft) W 270 ° 0 min 0 W/m² -0,7 °C -7,1 °C 22,5 km/h (4 Bft)
15.01.2024 20:16 21,7 °C 1,1 °C 50 % 88 % 999,5 hPa 0,0 l/m² 17,3 km/h (3 Bft) W-SW 238 ° 0 min 0 W/m² -0,7 °C -6,9 °C 22,5 km/h (4 Bft)
15.01.2024 20:18 21,7 °C 1,1 °C 50 % 88 % 999,6 hPa 0,0 l/m² 17,7 km/h (3 Bft) SW 234 ° 0 min 0 W/m² -0,7 °C -7,1 °C 24,1 km/h (4 Bft)
15.01.2024 20:20 21,7 °C 1,1 °C 49 % 88 % 999,6 hPa 0,0 l/m² 18,2 km/h (3 Bft) W-SW 239 ° 0 min 0 W/m² -0,7 °C -7,4 °C 22,5 km/h (4 Bft)
15.01.2024 20:22 21,7 °C 1,0 °C 49 % 88 % 999,5 hPa 0,0 l/m² 16,8 km/h (3 Bft) W-SW 241 ° 0 min 0 W/m² -0,8 °C -6,8 °C 22,5 km/h (4 Bft)
15.01.2024 20:23 21,7 °C 1,0 °C 49 % 88 % 999,7 hPa 0,0 l/m² 15,6 km/h (3 Bft) W-SW 244 ° 0 min 0 W/m² -0,8 °C -6,1 °C 19,3 km/h (3 Bft)
15.01.2024 20:24 21,7 °C 1,0 °C 49 % 88 % 999,7 hPa 0,0 l/m² 17,9 km/h (3 Bft) W-SW 241 ° 0 min 0 W/m² -0,8 °C -7,3 °C 20,9 km/h (4 Bft)
15.01.2024 20:26 21,7 °C 0,9 °C 49 % 89 % 999,7 hPa 0,0 l/m² 17,0 km/h (3 Bft) W-SW 242 ° 0 min 0 W/m² -0,7 °C -7,0 °C 20,9 km/h (4 Bft)
15.01.2024 20:28 21,7 °C 0,9 °C 49 % 89 % 999,7 hPa 0,0 l/m² 16,9 km/h (3 Bft) W-SW 242 ° 0 min 0 W/m² -0,7 °C -6,9 °C 32,2 km/h (5 Bft)
15.01.2024 20:30 21,7 °C 0,9 °C 49 % 89 % 999,8 hPa 0,0 l/m² 20,7 km/h (4 Bft) W 267 ° 0 min 0 W/m² -0,7 °C -8,8 °C 29,0 km/h (5 Bft)
15.01.2024 20:32 21,7 °C 0,9 °C 49 % 89 % 1000,0 hPa 0,0 l/m² 15,5 km/h (3 Bft) W 263 ° 0 min 0 W/m² -0,7 °C -6,2 °C 20,9 km/h (4 Bft)
15.01.2024 20:33 21,7 °C 0,9 °C 49 % 89 % 1000,1 hPa 0,0 l/m² 16,9 km/h (3 Bft) W-SW 250 ° 0 min 0 W/m² -0,7 °C -6,9 °C 20,9 km/h (4 Bft)
15.01.2024 20:34 21,7 °C 0,9 °C 49 % 89 % 1000,1 hPa 0,0 l/m² 16,5 km/h (3 Bft) W-SW 253 ° 0 min 0 W/m² -0,7 °C -6,7 °C 19,3 km/h (3 Bft)
15.01.2024 20:36 21,7 °C 0,8 °C 48 % 89 % 1000,0 hPa 0,0 l/m² 12,6 km/h (3 Bft) W 262 ° 0 min 0 W/m² -0,8 °C -4,5 °C 16,1 km/h (3 Bft)
15.01.2024 20:38 21,7 °C 0,8 °C 49 % 90 % 1000,0 hPa 0,0 l/m² 13,5 km/h (3 Bft) W-SW 248 ° 0 min 0 W/m² -0,6 °C -5,1 °C 17,7 km/h (3 Bft)
15.01.2024 20:40 21,7 °C 0,7 °C 49 % 90 % 1000,0 hPa 0,0 l/m² 12,8 km/h (3 Bft) W-SW 258 ° 0 min 0 W/m² -0,7 °C -4,7 °C 19,3 km/h (3 Bft)
15.01.2024 20:42 21,7 °C 0,7 °C 49 % 90 % 1000,1 hPa 0,0 l/m² 14,3 km/h (3 Bft) W 263 ° 0 min 0 W/m² -0,7 °C -5,7 °C 17,7 km/h (3 Bft)
15.01.2024 20:43 21,7 °C 0,7 °C 49 % 90 % 1000,1 hPa 0,0 l/m² 12,5 km/h (2 Bft) W-SW 244 ° 0 min 0 W/m² -0,7 °C -4,5 °C 16,1 km/h (3 Bft)
15.01.2024 20:44 21,7 °C 0,7 °C 49 % 90 % 1000,1 hPa 0,0 l/m² 12,7 km/h (3 Bft) W-SW 246 ° 0 min 0 W/m² -0,7 °C -4,7 °C 14,5 km/h (3 Bft)
15.01.2024 20:46 21,7 °C 0,7 °C 49 % 90 % 1000,2 hPa 0,0 l/m² 14,5 km/h (3 Bft) SW 229 ° 0 min 0 W/m² -0,7 °C -5,8 °C 17,7 km/h (3 Bft)
15.01.2024 20:48 21,7 °C 0,7 °C 49 % 91 % 1000,2 hPa 0,0 l/m² 15,0 km/h (3 Bft) W-SW 240 ° 0 min 0 W/m² -0,6 °C -6,1 °C 24,1 km/h (4 Bft)
15.01.2024 20:50 21,7 °C 0,6 °C 49 % 91 % 1000,2 hPa 0,0 l/m² 13,9 km/h (3 Bft) W-SW 238 ° 0 min 0 W/m² -0,7 °C -5,6 °C 24,1 km/h (4 Bft)
15.01.2024 20:52 21,7 °C 0,6 °C 49 % 91 % 1000,2 hPa 0,0 l/m² 8,9 km/h (2 Bft) W-SW 247 ° 0 min 0 W/m² -0,7 °C -1,8 °C 14,5 km/h (3 Bft)
15.01.2024 20:53 21,8 °C 0,6 °C 49 % 91 % 1000,3 hPa 0,0 l/m² 9,0 km/h (2 Bft) W-SW 248 ° 0 min 0 W/m² -0,7 °C -1,9 °C 12,9 km/h (3 Bft)
15.01.2024 20:54 21,8 °C 0,6 °C 49 % 91 % 1000,3 hPa 0,0 l/m² 10,0 km/h (2 Bft) W-SW 249 ° 0 min 0 W/m² -0,7 °C -2,8 °C 12,9 km/h (3 Bft)
15.01.2024 20:56 21,8 °C 0,6 °C 49 % 91 % 1000,3 hPa 0,0 l/m² 9,5 km/h (2 Bft) W-SW 250 ° 0 min 0 W/m² -0,7 °C -2,4 °C 12,9 km/h (3 Bft)
15.01.2024 20:58 21,8 °C 0,6 °C 49 % 91 % 1000,3 hPa 0,0 l/m² 5,8 km/h (2 Bft) W-SW 252 ° 0 min 0 W/m² -0,7 °C 0,6 °C 11,3 km/h (2 Bft)
15.01.2024 21:00 21,8 °C 0,6 °C 49 % 91 % 1000,3 hPa 0,0 l/m² 6,3 km/h (2 Bft) W-SW 254 ° 0 min 0 W/m² -0,7 °C 0,6 °C 8,0 km/h (2 Bft)
15.01.2024 21:02 21,8 °C 0,5 °C 49 % 91 % 1000,3 hPa 0,0 l/m² 8,6 km/h (2 Bft) W-SW 251 ° 0 min 0 W/m² -0,8 °C -1,7 °C 14,5 km/h (3 Bft)
15.01.2024 21:03 21,8 °C 0,6 °C 49 % 91 % 1000,4 hPa 0,0 l/m² 9,1 km/h (2 Bft) W-SW 254 ° 0 min 0 W/m² -0,7 °C -2,0 °C 12,9 km/h (3 Bft)
15.01.2024 21:05 21,8 °C 0,6 °C 49 % 91 % 1000,4 hPa 0,0 l/m² 7,9 km/h (2 Bft) W 263 ° 0 min 0 W/m² -0,7 °C -0,9 °C 11,3 km/h (2 Bft)
15.01.2024 21:07 21,8 °C 0,6 °C 49 % 91 % 1000,5 hPa 0,0 l/m² 7,8 km/h (2 Bft) W-SW 252 ° 0 min 0 W/m² -0,7 °C -0,8 °C 11,3 km/h (2 Bft)
15.01.2024 21:09 21,8 °C 0,6 °C 49 % 91 % 1000,5 hPa 0,0 l/m² 7,7 km/h (2 Bft) W-SW 247 ° 0 min 0 W/m² -0,7 °C -0,7 °C 12,9 km/h (3 Bft)
15.01.2024 21:11 21,8 °C 0,6 °C 49 % 91 % 1000,6 hPa 0,0 l/m² 7,3 km/h (2 Bft) W-SW 248 ° 0 min 0 W/m² -0,7 °C -0,3 °C 11,3 km/h (2 Bft)
15.01.2024 21:12 21,8 °C 0,5 °C 49 % 91 % 1000,6 hPa 0,0 l/m² 6,4 km/h (2 Bft) W-SW 248 ° 0 min 0 W/m² -0,8 °C 0,5 °C 8,0 km/h (2 Bft)
15.01.2024 21:13 21,8 °C 0,6 °C 49 % 91 % 1000,5 hPa 0,0 l/m² 6,1 km/h (2 Bft) W-SW 249 ° 0 min 0 W/m² -0,7 °C 0,6 °C 6,4 km/h (2 Bft)
15.01.2024 21:14 21,8 °C 0,6 °C 49 % 91 % 1000,6 hPa 0,0 l/m² 6,5 km/h (2 Bft) W-SW 249 ° 0 min 0 W/m² -0,7 °C 0,5 °C 8,0 km/h (2 Bft)
15.01.2024 21:15 21,8 °C 0,5 °C 49 % 92 % 1000,5 hPa 0,0 l/m² 4,9 km/h (1 Bft) W-SW 249 ° 0 min 0 W/m² -0,6 °C 0,5 °C 8,0 km/h (2 Bft)
15.01.2024 21:16 21,8 °C 0,6 °C 49 % 92 % 1000,6 hPa 0,0 l/m² 4,9 km/h (1 Bft) W-SW 249 ° 0 min 0 W/m² -0,5 °C 0,6 °C 6,4 km/h (2 Bft)
15.01.2024 21:17 21,8 °C 0,5 °C 49 % 92 % 1000,5 hPa 0,0 l/m² 6,2 km/h (2 Bft) W-SW 250 ° 0 min 0 W/m² -0,6 °C 0,5 °C 6,4 km/h (2 Bft)
15.01.2024 21:18 21,8 °C 0,5 °C 49 % 92 % 1000,6 hPa 0,0 l/m² 3,8 km/h (1 Bft) W-SW 250 ° 0 min 0 W/m² -0,6 °C 0,5 °C 6,4 km/h (2 Bft)
15.01.2024 21:19 21,8 °C 0,5 °C 49 % 92 % 1000,7 hPa 0,0 l/m² 4,7 km/h (1 Bft) W-SW 252 ° 0 min 0 W/m² -0,6 °C 0,5 °C 6,4 km/h (2 Bft)
15.01.2024 21:21 21,8 °C 0,5 °C 49 % 92 % 1000,7 hPa 0,0 l/m² 5,2 km/h (1 Bft) W-SW 253 ° 0 min 0 W/m² -0,6 °C 0,5 °C 6,4 km/h (2 Bft)
15.01.2024 21:23 21,8 °C 0,5 °C 49 % 92 % 1000,7 hPa 0,0 l/m² 5,7 km/h (2 Bft) W-SW 253 ° 0 min 0 W/m² -0,6 °C 0,5 °C 8,0 km/h (2 Bft)
15.01.2024 21:24 21,9 °C 0,5 °C 49 % 92 % 1000,8 hPa 0,0 l/m² 6,3 km/h (2 Bft) W-SW 253 ° 0 min 0 W/m² -0,6 °C 0,5 °C 8,0 km/h (2 Bft)
15.01.2024 21:25 21,9 °C 0,5 °C 49 % 92 % 1000,8 hPa 0,0 l/m² 5,2 km/h (1 Bft) W-SW 253 ° 0 min 0 W/m² -0,6 °C 0,5 °C 8,0 km/h (2 Bft)
15.01.2024 21:26 21,8 °C 0,5 °C 49 % 92 % 1000,7 hPa 0,0 l/m² 5,0 km/h (1 Bft) W-SW 253 ° 0 min 0 W/m² -0,6 °C 0,5 °C 6,4 km/h (2 Bft)
15.01.2024 21:28 21,9 °C 0,4 °C 49 % 92 % 1000,7 hPa 0,0 l/m² 5,2 km/h (1 Bft) W-SW 253 ° 0 min 0 W/m² -0,7 °C 0,4 °C 8,0 km/h (2 Bft)
15.01.2024 21:29 21,9 °C 0,4 °C 49 % 92 % 1000,7 hPa 0,0 l/m² 5,4 km/h (2 Bft) W-SW 252 ° 0 min 0 W/m² -0,7 °C 0,4 °C 6,4 km/h (2 Bft)
15.01.2024 21:30 21,9 °C 0,5 °C 49 % 92 % 1000,7 hPa 0,0 l/m² 5,8 km/h (2 Bft) W-SW 252 ° 0 min 0 W/m² -0,6 °C 0,5 °C 8,0 km/h (2 Bft)
15.01.2024 21:32 21,9 °C 0,4 °C 49 % 92 % 1000,8 hPa 0,0 l/m² 5,8 km/h (2 Bft) W-SW 253 ° 0 min 0 W/m² -0,7 °C 0,4 °C 8,0 km/h (2 Bft)
15.01.2024 21:33 21,9 °C 0,4 °C 49 % 92 % 1000,8 hPa 0,0 l/m² 6,5 km/h (2 Bft) W-SW 252 ° 0 min 0 W/m² -0,7 °C 0,3 °C 8,0 km/h (2 Bft)
15.01.2024 21:34 21,8 °C 0,4 °C 49 % 92 % 1000,8 hPa 0,0 l/m² 5,5 km/h (2 Bft) W-SW 252 ° 0 min 0 W/m² -0,7 °C 0,4 °C 8,0 km/h (2 Bft)
15.01.2024 21:35 21,9 °C 0,4 °C 49 % 92 % 1000,8 hPa 0,0 l/m² 5,6 km/h (2 Bft) W-SW 252 ° 0 min 0 W/m² -0,7 °C 0,4 °C 6,4 km/h (2 Bft)
15.01.2024 21:36 21,9 °C 0,4 °C 49 % 92 % 1000,8 hPa 0,0 l/m² 6,5 km/h (2 Bft) W-SW 253 ° 0 min 0 W/m² -0,7 °C 0,3 °C 8,0 km/h (2 Bft)
15.01.2024 21:37 21,9 °C 0,4 °C 49 % 92 % 1000,8 hPa 0,0 l/m² 6,4 km/h (2 Bft) W-SW 253 ° 0 min 0 W/m² -0,7 °C 0,4 °C 8,0 km/h (2 Bft)
15.01.2024 21:38 21,9 °C 0,4 °C 49 % 92 % 1000,8 hPa 0,0 l/m² 4,5 km/h (1 Bft) W-SW 253 ° 0 min 0 W/m² -0,7 °C 0,4 °C 6,4 km/h (2 Bft)
15.01.2024 21:39 21,9 °C 0,4 °C 49 % 92 % 1000,9 hPa 0,0 l/m² 3,3 km/h (1 Bft) W-SW 253 ° 0 min 0 W/m² -0,7 °C 0,4 °C 4,8 km/h (1 Bft)
15.01.2024 21:41 21,9 °C 0,4 °C 49 % 92 % 1000,9 hPa 0,0 l/m² 3,2 km/h (1 Bft) W-SW 253 ° 0 min 0 W/m² -0,7 °C 0,4 °C 6,4 km/h (2 Bft)
15.01.2024 21:43 21,9 °C 0,3 °C 49 % 92 % 1000,9 hPa 0,0 l/m² 0,9 km/h (0 Bft) W-SW 253 ° 0 min 0 W/m² -0,8 °C 0,3 °C 4,8 km/h (1 Bft)
15.01.2024 21:44 21,9 °C 0,3 °C 49 % 92 % 1001,0 hPa 0,0 l/m² 0,5 km/h (0 Bft) W-SW 253 ° 0 min 0 W/m² -0,8 °C 0,3 °C 3,2 km/h (1 Bft)
15.01.2024 21:46 21,9 °C 0,3 °C 49 % 92 % 1000,9 hPa 0,0 l/m² 1,6 km/h (1 Bft) W-SW 253 ° 0 min 0 W/m² -0,8 °C 0,3 °C 3,2 km/h (1 Bft)
15.01.2024 21:47 21,9 °C 0,3 °C 49 % 92 % 1000,9 hPa 0,0 l/m² 1,3 km/h (1 Bft) W-SW 253 ° 0 min 0 W/m² -0,8 °C 0,3 °C 1,6 km/h (1 Bft)
15.01.2024 21:48 21,9 °C 0,2 °C 49 % 92 % 1001,0 hPa 0,0 l/m² 0,6 km/h (0 Bft) W-SW 253 ° 0 min 0 W/m² -0,9 °C 0,2 °C 3,2 km/h (1 Bft)
15.01.2024 21:49 21,9 °C 0,2 °C 49 % 91 % 1001,0 hPa 0,0 l/m² 0,1 km/h (0 Bft) W-SW 253 ° 0 min 0 W/m² -1,1 °C 0,2 °C 1,6 km/h (1 Bft)
15.01.2024 21:50 21,9 °C 0,1 °C 49 % 91 % 1001,0 hPa 0,0 l/m² 0,0 km/h (0 Bft) W-SW 253 ° 0 min 0 W/m² -1,2 °C 0,1 °C 0,0 km/h (0 Bft)
15.01.2024 21:52 21,9 °C -0,1 °C 49 % 92 % 1001,0 hPa 0,0 l/m² 0,0 km/h (0 Bft) W-SW 253 ° 0 min 0 W/m² -1,2 °C -0,1 °C 0,0 km/h (0 Bft)
15.01.2024 21:53 21,9 °C -0,1 °C 49 % 92 % 1001,0 hPa 0,0 l/m² 0,0 km/h (0 Bft) W-SW 253 ° 0 min 0 W/m² -1,2 °C -0,1 °C 0,0 km/h (0 Bft)
15.01.2024 21:54 21,9 °C -0,1 °C 49 % 92 % 1001,0 hPa 0,0 l/m² 0,0 km/h (0 Bft) W-SW 253 ° 0 min 0 W/m² -1,2 °C -0,1 °C 0,0 km/h (0 Bft)
15.01.2024 21:55 21,9 °C -0,1 °C 49 % 92 % 1001,0 hPa 0,0 l/m² 0,0 km/h (0 Bft) W-SW 253 ° 0 min 0 W/m² -1,2 °C -0,1 °C 0,0 km/h (0 Bft)
15.01.2024 21:56 21,9 °C -0,2 °C 49 % 92 % 1001,1 hPa 0,0 l/m² 0,0 km/h (0 Bft) W-SW 253 ° 0 min 0 W/m² -1,3 °C -0,2 °C 0,0 km/h (0 Bft)
15.01.2024 21:57 21,9 °C -0,2 °C 48 % 92 % 1001,1 hPa 0,0 l/m² 0,0 km/h (0 Bft) W-SW 253 ° 0 min 0 W/m² -1,3 °C -0,2 °C 0,0 km/h (0 Bft)
15.01.2024 21:58 21,9 °C -0,2 °C 49 % 92 % 1001,1 hPa 0,0 l/m² 1,5 km/h (1 Bft) W-SW 253 ° 0 min 0 W/m² -1,3 °C -0,2 °C 3,2 km/h (1 Bft)
15.01.2024 21:59 21,9 °C -0,2 °C 48 % 92 % 1001,2 hPa 0,0 l/m² 0,1 km/h (0 Bft) W-SW 253 ° 0 min 0 W/m² -1,3 °C -0,2 °C 1,6 km/h (1 Bft)
15.01.2024 22:01 21,9 °C -0,2 °C 48 % 92 % 1001,2 hPa 0,0 l/m² 0,0 km/h (0 Bft) W-SW 253 ° 0 min 0 W/m² -1,3 °C -0,2 °C 0,0 km/h (0 Bft)
15.01.2024 22:02 21,9 °C -0,2 °C 48 % 92 % 1001,1 hPa 0,0 l/m² 0,0 km/h (0 Bft) W-SW 253 ° 0 min 0 W/m² -1,3 °C -0,2 °C 0,0 km/h (0 Bft)
15.01.2024 22:04 21,9 °C -0,3 °C 48 % 92 % 1001,1 hPa 0,0 l/m² 2,9 km/h (1 Bft) W-SW 253 ° 0 min 0 W/m² -1,4 °C -0,3 °C 6,4 km/h (2 Bft)
15.01.2024 22:05 21,9 °C -0,3 °C 48 % 92 % 1001,1 hPa 0,0 l/m² 3,9 km/h (1 Bft) W-SW 253 ° 0 min 0 W/m² -1,4 °C -0,3 °C 4,8 km/h (1 Bft)
15.01.2024 22:06 21,9 °C -0,3 °C 48 % 92 % 1001,1 hPa 0,0 l/m² 6,2 km/h (2 Bft) W-SW 252 ° 0 min 0 W/m² -1,4 °C -0,3 °C 8,0 km/h (2 Bft)
15.01.2024 22:07 21,9 °C -0,4 °C 48 % 92 % 1001,1 hPa 0,0 l/m² 6,9 km/h (2 Bft) W-SW 240 ° 0 min 0 W/m² -1,5 °C -0,9 °C 9,7 km/h (2 Bft)
15.01.2024 22:08 21,9 °C -0,4 °C 48 % 92 % 1001,1 hPa 0,0 l/m² 11,8 km/h (2 Bft) SW 235 ° 0 min 0 W/m² -1,5 °C -5,3 °C 17,7 km/h (3 Bft)
15.01.2024 22:09 21,9 °C -0,4 °C 48 % 92 % 1001,1 hPa 0,0 l/m² 10,7 km/h (2 Bft) SW 229 ° 0 min 0 W/m² -1,5 °C -4,5 °C 16,1 km/h (3 Bft)
15.01.2024 22:11 21,9 °C -0,4 °C 48 % 92 % 1001,1 hPa 0,0 l/m² 13,0 km/h (3 Bft) SW 234 ° 0 min 0 W/m² -1,5 °C -6,2 °C 17,7 km/h (3 Bft)
15.01.2024 22:12 21,8 °C -0,4 °C 48 % 92 % 1001,1 hPa 0,0 l/m² 13,9 km/h (3 Bft) SW 232 ° 0 min 0 W/m² -1,5 °C -6,8 °C 17,7 km/h (3 Bft)
15.01.2024 22:14 21,8 °C -0,4 °C 48 % 92 % 1001,2 hPa 0,0 l/m² 15,1 km/h (3 Bft) W-SW 237 ° 0 min 0 W/m² -1,5 °C -7,5 °C 22,5 km/h (4 Bft)
15.01.2024 22:15 21,8 °C -0,3 °C 48 % 92 % 1001,2 hPa 0,0 l/m² 14,2 km/h (3 Bft) W 259 ° 0 min 0 W/m² -1,4 °C -6,8 °C 20,9 km/h (4 Bft)
15.01.2024 22:16 21,8 °C -0,3 °C 48 % 92 % 1001,2 hPa 0,0 l/m² 18,2 km/h (3 Bft) SW 231 ° 0 min 0 W/m² -1,4 °C -9,1 °C 22,5 km/h (4 Bft)
15.01.2024 22:17 21,8 °C -0,3 °C 48 % 92 % 1001,2 hPa 0,0 l/m² 15,9 km/h (3 Bft) W-SW 242 ° 0 min 0 W/m² -1,4 °C -7,9 °C 22,5 km/h (4 Bft)
15.01.2024 22:18 21,8 °C -0,3 °C 48 % 92 % 1001,2 hPa 0,0 l/m² 17,8 km/h (3 Bft) SW 233 ° 0 min 0 W/m² -1,4 °C -8,9 °C 24,1 km/h (4 Bft)
15.01.2024 22:19 21,8 °C -0,2 °C 48 % 91 % 1001,2 hPa 0,0 l/m² 15,3 km/h (3 Bft) SW 219 ° 0 min 0 W/m² -1,5 °C -7,4 °C 19,3 km/h (3 Bft)
15.01.2024 22:21 21,8 °C -0,2 °C 48 % 91 % 1001,2 hPa 0,0 l/m² 15,8 km/h (3 Bft) SW 224 ° 0 min 0 W/m² -1,5 °C -7,7 °C 24,1 km/h (4 Bft)
15.01.2024 22:23 21,8 °C -0,2 °C 48 % 91 % 1001,1 hPa 0,0 l/m² 17,0 km/h (3 Bft) SW 219 ° 0 min 0 W/m² -1,5 °C -8,4 °C 25,7 km/h (4 Bft)
15.01.2024 22:24 21,8 °C -0,1 °C 48 % 91 % 1001,1 hPa 0,0 l/m² 12,6 km/h (3 Bft) W-SW 246 ° 0 min 0 W/m² -1,4 °C -5,5 °C 19,3 km/h (3 Bft)
15.01.2024 22:25 21,8 °C -0,1 °C 48 % 91 % 1001,2 hPa 0,0 l/m² 12,1 km/h (2 Bft) SW 232 ° 0 min 0 W/m² -1,4 °C -5,2 °C 19,3 km/h (3 Bft)
15.01.2024 22:26 21,8 °C -0,1 °C 48 % 91 % 1001,1 hPa 0,0 l/m² 17,2 km/h (3 Bft) W-SW 241 ° 0 min 0 W/m² -1,4 °C -8,4 °C 22,5 km/h (4 Bft)
15.01.2024 22:27 21,8 °C -0,1 °C 48 % 91 % 1001,2 hPa 0,0 l/m² 16,4 km/h (3 Bft) W-SW 240 ° 0 min 0 W/m² -1,4 °C -7,9 °C 22,5 km/h (4 Bft)
15.01.2024 22:28 21,8 °C -0,1 °C 47 % 91 % 1001,2 hPa 0,0 l/m² 12,4 km/h (2 Bft) SW 228 ° 0 min 0 W/m² -1,4 °C -5,4 °C 17,7 km/h (3 Bft)
15.01.2024 22:29 21,8 °C 0,1 °C 48 % 91 % 1001,1 hPa 0,0 l/m² 16,5 km/h (3 Bft) SW 223 ° 0 min 0 W/m² -1,2 °C -7,7 °C 22,5 km/h (4 Bft)
15.01.2024 22:31 21,8 °C 0,1 °C 48 % 91 % 1001,2 hPa 0,0 l/m² 19,4 km/h (3 Bft) SW 227 ° 0 min 0 W/m² -1,2 °C -9,2 °C 25,7 km/h (4 Bft)
15.01.2024 22:33 21,8 °C 0,2 °C 48 % 91 % 1001,2 hPa 0,0 l/m² 19,0 km/h (3 Bft) SW 230 ° 0 min 0 W/m² -1,1 °C -8,9 °C 25,7 km/h (4 Bft)
15.01.2024 22:34 21,8 °C 0,2 °C 48 % 91 % 1001,2 hPa 0,0 l/m² 17,8 km/h (3 Bft) SW 220 ° 0 min 0 W/m² -1,1 °C -8,3 °C 22,5 km/h (4 Bft)
15.01.2024 22:35 21,8 °C 0,3 °C 48 % 91 % 1001,2 hPa 0,0 l/m² 16,5 km/h (3 Bft) SW 232 ° 0 min 0 W/m² -1,0 °C -7,5 °C 20,9 km/h (4 Bft)
15.01.2024 22:36 21,8 °C 0,3 °C 48 % 91 % 1001,2 hPa 0,0 l/m² 19,9 km/h (4 Bft) SW 232 ° 0 min 0 W/m² -1,0 °C -9,2 °C 25,7 km/h (4 Bft)
15.01.2024 22:37 21,8 °C 0,3 °C 47 % 91 % 1001,2 hPa 0,0 l/m² 20,6 km/h (4 Bft) W-SW 240 ° 0 min 0 W/m² -1,0 °C -9,5 °C 27,4 km/h (5 Bft)
15.01.2024 22:38 21,8 °C 0,4 °C 48 % 91 % 1001,2 hPa 0,0 l/m² 23,0 km/h (4 Bft) SW 223 ° 0 min 0 W/m² -0,9 °C -10,4 °C 27,4 km/h (5 Bft)
15.01.2024 22:39 21,8 °C 0,4 °C 48 % 91 % 1001,3 hPa 0,0 l/m² 19,7 km/h (3 Bft) SW 222 ° 0 min 0 W/m² -0,9 °C -9,0 °C 25,7 km/h (4 Bft)
15.01.2024 22:41 21,7 °C 0,4 °C 47 % 90 % 1001,2 hPa 0,0 l/m² 20,0 km/h (4 Bft) W-SW 244 ° 0 min 0 W/m² -1,0 °C -9,1 °C 25,7 km/h (4 Bft)
15.01.2024 22:43 21,8 °C 0,5 °C 48 % 90 % 1001,2 hPa 0,0 l/m² 14,8 km/h (3 Bft) W-SW 253 ° 0 min 0 W/m² -0,9 °C -6,3 °C 20,9 km/h (4 Bft)
15.01.2024 22:44 21,7 °C 0,5 °C 47 % 90 % 1001,2 hPa 0,0 l/m² 13,3 km/h (3 Bft) SW 225 ° 0 min 0 W/m² -0,9 °C -5,3 °C 17,7 km/h (3 Bft)
15.01.2024 22:45 21,7 °C 0,5 °C 47 % 90 % 1001,2 hPa 0,0 l/m² 13,9 km/h (3 Bft) W-SW 238 ° 0 min 0 W/m² -0,9 °C -5,7 °C 19,3 km/h (3 Bft)
15.01.2024 22:46 21,7 °C 0,6 °C 47 % 90 % 1001,2 hPa 0,0 l/m² 16,4 km/h (3 Bft) SW 215 ° 0 min 0 W/m² -0,8 °C -7,1 °C 20,9 km/h (4 Bft)
15.01.2024 22:47 21,7 °C 0,6 °C 47 % 90 % 1001,2 hPa 0,0 l/m² 14,8 km/h (3 Bft) W-SW 240 ° 0 min 0 W/m² -0,8 °C -6,1 °C 19,3 km/h (3 Bft)
15.01.2024 22:48 21,7 °C 0,6 °C 47 % 90 % 1001,2 hPa 0,0 l/m² 14,6 km/h (3 Bft) W-SW 244 ° 0 min 0 W/m² -0,8 °C -6,0 °C 19,3 km/h (3 Bft)
15.01.2024 22:49 21,8 °C 0,6 °C 48 % 90 % 1001,2 hPa 0,0 l/m² 14,7 km/h (3 Bft) SW 227 ° 0 min 0 W/m² -0,8 °C -6,1 °C 17,7 km/h (3 Bft)
15.01.2024 22:50 21,7 °C 0,6 °C 47 % 90 % 1001,1 hPa 0,0 l/m² 13,7 km/h (3 Bft) SW 232 ° 0 min 0 W/m² -0,8 °C -5,5 °C 17,7 km/h (3 Bft)
15.01.2024 22:52 21,7 °C 0,5 °C 47 % 90 % 1001,2 hPa 0,0 l/m² 11,3 km/h (2 Bft) SW 231 ° 0 min 0 W/m² -0,9 °C -3,9 °C 16,1 km/h (3 Bft)
15.01.2024 22:53 21,8 °C 0,6 °C 47 % 90 % 1001,2 hPa 0,0 l/m² 11,7 km/h (2 Bft) SW 225 ° 0 min 0 W/m² -0,8 °C -4,1 °C 14,5 km/h (3 Bft)
15.01.2024 22:54 21,8 °C 0,6 °C 47 % 89 % 1001,3 hPa 0,0 l/m² 11,2 km/h (2 Bft) W-SW 238 ° 0 min 0 W/m² -1,0 °C -3,7 °C 16,1 km/h (3 Bft)
15.01.2024 22:55 21,7 °C 0,6 °C 47 % 89 % 1001,2 hPa 0,0 l/m² 10,5 km/h (2 Bft) SW 235 ° 0 min 0 W/m² -1,0 °C -3,2 °C 16,1 km/h (3 Bft)
15.01.2024 22:56 21,7 °C 0,5 °C 47 % 89 % 1001,2 hPa 0,0 l/m² 12,3 km/h (2 Bft) SW 227 ° 0 min 0 W/m² -1,1 °C -4,6 °C 16,1 km/h (3 Bft)
15.01.2024 22:57 21,8 °C 0,5 °C 47 % 89 % 1001,3 hPa 0,0 l/m² 12,2 km/h (2 Bft) SW 229 ° 0 min 0 W/m² -1,1 °C -4,6 °C 16,1 km/h (3 Bft)
15.01.2024 22:58 21,8 °C 0,5 °C 47 % 89 % 1001,3 hPa 0,0 l/m² 9,5 km/h (2 Bft) SW 233 ° 0 min 0 W/m² -1,1 °C -2,5 °C 14,5 km/h (3 Bft)
15.01.2024 22:59 21,8 °C 0,4 °C 47 % 89 % 1001,2 hPa 0,0 l/m² 8,9 km/h (2 Bft) W-SW 245 ° 0 min 0 W/m² -1,2 °C -2,1 °C 12,9 km/h (3 Bft)
15.01.2024 23:01 21,7 °C 0,4 °C 47 % 89 % 1001,2 hPa 0,0 l/m² 9,9 km/h (2 Bft) SW 232 ° 0 min 0 W/m² -1,2 °C -2,9 °C 14,5 km/h (3 Bft)
15.01.2024 23:03 21,8 °C 0,4 °C 47 % 89 % 1001,3 hPa 0,0 l/m² 12,8 km/h (3 Bft) SW 236 ° 0 min 0 W/m² -1,2 °C -5,1 °C 17,7 km/h (3 Bft)
15.01.2024 23:04 21,7 °C 0,4 °C 47 % 89 % 1001,3 hPa 0,0 l/m² 10,4 km/h (2 Bft) W-SW 244 ° 0 min 0 W/m² -1,2 °C -3,3 °C 14,5 km/h (3 Bft)
15.01.2024 23:05 21,8 °C 0,3 °C 47 % 89 % 1001,4 hPa 0,0 l/m² 10,4 km/h (2 Bft) SW 236 ° 0 min 0 W/m² -1,3 °C -3,4 °C 14,5 km/h (3 Bft)
15.01.2024 23:06 21,8 °C 0,3 °C 48 % 89 % 1001,3 hPa 0,0 l/m² 11,8 km/h (2 Bft) W-SW 238 ° 0 min 0 W/m² -1,3 °C -4,5 °C 14,5 km/h (3 Bft)
15.01.2024 23:07 21,8 °C 0,3 °C 48 % 89 % 1001,3 hPa 0,0 l/m² 13,2 km/h (3 Bft) SW 230 ° 0 min 0 W/m² -1,3 °C -5,5 °C 17,7 km/h (3 Bft)
15.01.2024 23:08 21,7 °C 0,2 °C 47 % 89 % 1001,4 hPa 0,0 l/m² 12,3 km/h (2 Bft) W-SW 243 ° 0 min 0 W/m² -1,4 °C -5,0 °C 16,1 km/h (3 Bft)
15.01.2024 23:09 21,8 °C 0,2 °C 48 % 88 % 1001,4 hPa 0,0 l/m² 12,9 km/h (3 Bft) SW 234 ° 0 min 0 W/m² -1,5 °C -5,4 °C 16,1 km/h (3 Bft)
15.01.2024 23:10 21,8 °C 0,2 °C 48 % 88 % 1001,4 hPa 0,0 l/m² 11,7 km/h (2 Bft) SW 231 ° 0 min 0 W/m² -1,5 °C -4,6 °C 14,5 km/h (3 Bft)
15.01.2024 23:12 21,8 °C 0,1 °C 48 % 88 % 1001,4 hPa 0,0 l/m² 10,9 km/h (2 Bft) SW 236 ° 0 min 0 W/m² -1,6 °C -4,1 °C 16,1 km/h (3 Bft)
15.01.2024 23:13 21,8 °C 0,1 °C 48 % 88 % 1001,4 hPa 0,0 l/m² 13,0 km/h (3 Bft) SW 234 ° 0 min 0 W/m² -1,6 °C -5,6 °C 16,1 km/h (3 Bft)
15.01.2024 23:14 21,8 °C 0,1 °C 48 % 88 % 1001,4 hPa 0,0 l/m² 10,8 km/h (2 Bft) SW 234 ° 0 min 0 W/m² -1,6 °C -4,0 °C 14,5 km/h (3 Bft)
15.01.2024 23:15 21,8 °C 0,1 °C 48 % 88 % 1001,3 hPa 0,0 l/m² 10,5 km/h (2 Bft) SW 234 ° 0 min 0 W/m² -1,6 °C -3,7 °C 14,5 km/h (3 Bft)
15.01.2024 23:16 21,8 °C 0,0 °C 48 % 88 % 1001,3 hPa 0,0 l/m² 9,7 km/h (2 Bft) SW 225 ° 0 min 0 W/m² -1,7 °C -3,2 °C 14,5 km/h (3 Bft)
15.01.2024 23:17 21,8 °C 0,0 °C 48 % 88 % 1001,4 hPa 0,0 l/m² 11,3 km/h (2 Bft) SW 225 ° 0 min 0 W/m² -1,7 °C -4,5 °C 14,5 km/h (3 Bft)
15.01.2024 23:22 21,8 °C 0,0 °C 48 % 88 % 1001,5 hPa 0,0 l/m² 14,2 km/h (3 Bft) W-SW 238 ° 0 min 0 W/m² -1,7 °C -6,5 °C 19,3 km/h (3 Bft)
15.01.2024 23:24 21,8 °C 0,1 °C 48 % 88 % 1001,4 hPa 0,0 l/m² 14,8 km/h (3 Bft) SW 221 ° 0 min 0 W/m² -1,6 °C -6,7 °C 20,9 km/h (4 Bft)
15.01.2024 23:25 21,8 °C 0,0 °C 48 % 88 % 1001,4 hPa 0,0 l/m² 13,4 km/h (3 Bft) W-SW 238 ° 0 min 0 W/m² -1,7 °C -6,0 °C 17,7 km/h (3 Bft)
15.01.2024 23:26 21,8 °C 0,1 °C 48 % 88 % 1001,5 hPa 0,0 l/m² 15,7 km/h (3 Bft) W-SW 238 ° 0 min 0 W/m² -1,6 °C -7,3 °C 22,5 km/h (4 Bft)
15.01.2024 23:28 21,8 °C 0,1 °C 48 % 88 % 1001,5 hPa 0,0 l/m² 14,5 km/h (3 Bft) SW 229 ° 0 min 0 W/m² -1,6 °C -6,6 °C 20,9 km/h (4 Bft)
15.01.2024 23:30 21,8 °C 0,1 °C 48 % 88 % 1001,5 hPa 0,0 l/m² 16,3 km/h (3 Bft) SW 225 ° 0 min 0 W/m² -1,6 °C -7,6 °C 20,9 km/h (4 Bft)
15.01.2024 23:31 21,8 °C 0,1 °C 48 % 88 % 1001,5 hPa 0,0 l/m² 15,6 km/h (3 Bft) SW 233 ° 0 min 0 W/m² -1,6 °C -7,2 °C 20,9 km/h (4 Bft)
15.01.2024 23:32 21,8 °C 0,1 °C 48 % 88 % 1001,5 hPa 0,0 l/m² 16,9 km/h (3 Bft) S-SW 211 ° 0 min 0 W/m² -1,6 °C -7,9 °C 20,9 km/h (4 Bft)
15.01.2024 23:34 21,8 °C 0,1 °C 48 % 87 % 1001,5 hPa 0,0 l/m² 15,1 km/h (3 Bft) W-SW 238 ° 0 min 0 W/m² -1,8 °C -6,9 °C 20,9 km/h (4 Bft)
15.01.2024 23:35 21,8 °C 0,1 °C 48 % 87 % 1001,5 hPa 0,0 l/m² 18,3 km/h (3 Bft) SW 227 ° 0 min 0 W/m² -1,8 °C -8,7 °C 24,1 km/h (4 Bft)
15.01.2024 23:37 21,8 °C 0,1 °C 48 % 87 % 1001,6 hPa 0,0 l/m² 15,6 km/h (3 Bft) W-SW 243 ° 0 min 0 W/m² -1,8 °C -7,2 °C 20,9 km/h (4 Bft)
15.01.2024 23:39 21,8 °C 0,1 °C 48 % 87 % 1001,7 hPa 0,0 l/m² 17,2 km/h (3 Bft) SW 219 ° 0 min 0 W/m² -1,8 °C -8,1 °C 25,7 km/h (4 Bft)
15.01.2024 23:40 21,8 °C 0,2 °C 48 % 87 % 1001,6 hPa 0,0 l/m² 20,1 km/h (4 Bft) W-SW 240 ° 0 min 0 W/m² -1,7 °C -9,4 °C 27,4 km/h (5 Bft)
15.01.2024 23:42 21,8 °C 0,2 °C 48 % 87 % 1001,7 hPa 0,0 l/m² 20,3 km/h (4 Bft) W-SW 255 ° 0 min 0 W/m² -1,7 °C -9,5 °C 29,0 km/h (5 Bft)
15.01.2024 23:43 21,8 °C 0,2 °C 48 % 87 % 1001,8 hPa 0,0 l/m² 18,2 km/h (3 Bft) W-SW 245 ° 0 min 0 W/m² -1,7 °C -8,5 °C 25,7 km/h (4 Bft)
15.01.2024 23:44 21,8 °C 0,2 °C 48 % 87 % 1001,8 hPa 0,0 l/m² 17,9 km/h (3 Bft) SW 229 ° 0 min 0 W/m² -1,7 °C -8,3 °C 25,7 km/h (4 Bft)
15.01.2024 23:46 21,8 °C 0,3 °C 48 % 87 % 1001,8 hPa 0,0 l/m² 17,2 km/h (3 Bft) SW 233 ° 0 min 0 W/m² -1,6 °C -7,9 °C 24,1 km/h (4 Bft)
15.01.2024 23:48 21,8 °C 0,3 °C 48 % 87 % 1001,9 hPa 0,0 l/m² 17,6 km/h (3 Bft) W-SW 246 ° 0 min 0 W/m² -1,6 °C -8,1 °C 20,9 km/h (4 Bft)
15.01.2024 23:50 21,8 °C 0,3 °C 48 % 87 % 1001,8 hPa 0,0 l/m² 18,4 km/h (3 Bft) W-SW 244 ° 0 min 0 W/m² -1,6 °C -8,5 °C 25,7 km/h (4 Bft)
15.01.2024 23:51 21,8 °C 0,4 °C 48 % 87 % 1001,9 hPa 0,0 l/m² 14,4 km/h (3 Bft) W-SW 247 ° 0 min 0 W/m² -1,5 °C -6,1 °C 17,7 km/h (3 Bft)
15.01.2024 23:52 21,8 °C 0,4 °C 48 % 87 % 1001,9 hPa 0,0 l/m² 22,5 km/h (4 Bft) SW 234 ° 0 min 0 W/m² -1,5 °C -10,2 °C 29,0 km/h (5 Bft)
15.01.2024 23:54 21,8 °C 0,4 °C 48 % 87 % 1001,9 hPa 0,0 l/m² 19,6 km/h (3 Bft) W-SW 250 ° 0 min 0 W/m² -1,5 °C -8,9 °C 25,7 km/h (4 Bft)
15.01.2024 23:55 21,8 °C 0,4 °C 48 % 87 % 1002,0 hPa 0,0 l/m² 17,8 km/h (3 Bft) W-SW 242 ° 0 min 0 W/m² -1,5 °C -8,0 °C 24,1 km/h (4 Bft)
15.01.2024 23:57 21,8 °C 0,5 °C 48 % 87 % 1001,9 hPa 0,0 l/m² 19,7 km/h (3 Bft) W-SW 244 ° 0 min 0 W/m² -1,4 °C -8,8 °C 29,0 km/h (5 Bft)
15.01.2024 23:59 21,8 °C 0,6 °C 48 % 87 % 1001,9 hPa 0,0 l/m² 18,5 km/h (3 Bft) W 268 ° 0 min 0 W/m² -1,3 °C -8,1 °C 22,5 km/h (4 Bft)
_ Min-Zeit 03:47 22:14 17:34 16:07 13:49 - 22:02 - - - - 23:39 02:11 22:02
Minimum _ 20,9 °C -0,4 °C 44 % 81 % 996,1 hPa - 0,0 km/h (0 Bft) - - - - -1,8 °C -14,1 °C 0,0 km/h (0 Bft)
_ Max-Zeit 12:49 12:46 20:02 22:18 23:55 23:59 02:11 - - 14:14 12:40 12:39 21:16 07:18
Maximum _ 23,2 °C 3,2 °C 51 % 92 % 1002,0 hPa 0,0 l/m² 37,0 km/h
SW (5 Bft)
- - 3 min 367 W/m² 0,3 °C 0,6 °C 49,9 km/h
SW (7 Bft)
Durchschnitt _ 21,8 °C 1,1 °C 48 % 86 % 997,7 hPa #0,0 l/m² 21,3 km/h (4 Bft) SW - #6:21 h 49 W/m² -1,0 °C -8,4 °C 28,9 km/h (5 Bft)
© 2009 Mathias Hoßbach